Time,TemperatureF,DewpointF,PressureIn,WindDirection,WindDirectionDegrees,WindSpeedMPH,WindSpeedGustMPH,Humidity,HourlyPrecipIn,Conditions,Clouds,dailyrainin,SoftwareType,DateUTC
2013-08-16 00:00:00,60.6,53.7,29.20,SW,225,0.9,0.9,78,0.00,,,0.00,VWS V14.01,2013-08-16 04:00:00,
2013-08-16 00:01:00,60.6,53.7,29.20,SSW,202,1.6,2.5,78,0.00,,,0.00,VWS V14.01,2013-08-16 04:01:00,
2013-08-16 00:02:00,60.6,53.7,29.20,SSW,202,1.6,1.6,78,0.00,,,0.00,VWS V14.01,2013-08-16 04:02:00,
2013-08-16 00:03:00,60.6,53.7,29.20,SSW,202,0.9,0.9,78,0.00,,,0.00,VWS V14.01,2013-08-16 04:03:00,
2013-08-16 00:04:00,60.4,53.6,29.20,SW,225,0.0,0.0,78,0.00,,,0.00,VWS V14.01,2013-08-16 04:04:00,
2013-08-16 00:05:00,60.4,53.6,29.20,SSW,202,0.9,1.1,78,0.00,,,0.00,VWS V14.01,2013-08-16 04:05:00,
2013-08-16 00:06:00,60.3,53.4,29.20,SSW,202,0.0,0.9,78,0.00,,,0.00,VWS V14.01,2013-08-16 04:06:00,
2013-08-16 00:07:00,60.3,53.4,29.20,SSW,202,0.0,0.0,78,0.00,,,0.00,VWS V14.01,2013-08-16 04:07:00,
2013-08-16 00:08:00,60.4,53.6,29.20,SW,225,0.9,0.9,78,0.00,,,0.00,VWS V14.01,2013-08-16 04:08:00,
2013-08-16 00:09:00,60.1,53.2,29.20,SSW,202,0.0,0.0,78,0.00,,,0.00,VWS V14.01,2013-08-16 04:09:00,
2013-08-16 00:10:00,60.1,53.2,29.20,SSW,202,0.0,0.0,78,0.00,,,0.00,VWS V14.01,2013-08-16 04:10:00,
2013-08-16 00:11:00,60.1,53.2,29.20,SSW,202,0.0,0.0,78,0.00,,,0.00,VWS V14.01,2013-08-16 04:11:00,
2013-08-16 00:12:00,60.1,53.2,29.20,SSW,202,1.1,1.3,78,0.00,,,0.00,VWS V14.01,2013-08-16 04:12:00,
2013-08-16 00:13:00,60.1,53.2,29.20,SSW,202,0.0,1.1,78,0.00,,,0.00,VWS V14.01,2013-08-16 04:13:00,
2013-08-16 00:14:00,60.3,53.4,29.20,SSW,202,0.0,0.0,78,0.00,,,0.00,VWS V14.01,2013-08-16 04:14:00,
2013-08-16 00:15:00,60.1,53.2,29.20,SSW,202,0.0,0.9,78,0.00,,,0.00,VWS V14.01,2013-08-16 04:15:00,
2013-08-16 00:16:00,60.1,53.2,29.23,SSW,202,0.0,1.1,78,0.00,,,0.00,VWS V14.01,2013-08-16 04:16:00,
2013-08-16 00:17:00,60.1,53.2,29.23,SSW,202,1.1,1.1,78,0.00,,,0.00,VWS V14.01,2013-08-16 04:17:00,
2013-08-16 00:18:00,60.1,53.2,29.23,SSW,202,0.0,1.3,78,0.00,,,0.00,VWS V14.01,2013-08-16 04:18:00,
2013-08-16 00:19:00,60.1,53.2,29.20,SSW,202,1.6,1.6,78,0.00,,,0.00,VWS V14.01,2013-08-16 04:19:00,
2013-08-16 00:20:00,60.1,53.2,29.23,SSE,158,0.0,1.1,78,0.00,,,0.00,VWS V14.01,2013-08-16 04:20:00,
2013-08-16 00:21:00,60.1,53.2,29.23,SSE,158,0.0,0.0,78,0.00,,,0.00,VWS V14.01,2013-08-16 04:21:00,
2013-08-16 00:22:00,60.1,53.2,29.23,ESE,112,0.0,0.0,78,0.00,,,0.00,VWS V14.01,2013-08-16 04:22:00,
2013-08-16 00:23:00,60.1,53.2,29.23,South,180,1.6,1.6,78,0.00,,,0.00,VWS V14.01,2013-08-16 04:23:00,
2013-08-16 00:24:00,60.1,53.2,29.23,SSW,202,0.0,0.0,78,0.00,,,0.00,VWS V14.01,2013-08-16 04:24:00,
2013-08-16 00:25:00,60.1,53.2,29.23,SSE,158,0.0,1.1,78,0.00,,,0.00,VWS V14.01,2013-08-16 04:25:00,
2013-08-16 00:26:00,60.1,53.2,29.23,SSE,158,0.0,0.0,78,0.00,,,0.00,VWS V14.01,2013-08-16 04:26:00,
2013-08-16 00:27:00,60.1,53.6,29.23,SSE,158,0.0,0.0,79,0.00,,,0.00,VWS V14.01,2013-08-16 04:27:00,
2013-08-16 00:28:00,60.1,53.2,29.23,SSE,158,0.0,0.9,78,0.00,,,0.00,VWS V14.01,2013-08-16 04:28:00,
2013-08-16 00:29:00,60.1,53.2,29.23,SSE,158,2.0,2.0,78,0.00,,,0.00,VWS V14.01,2013-08-16 04:29:00,
2013-08-16 00:30:00,60.1,53.6,29.23,SSE,158,1.3,2.2,79,0.00,,,0.00,VWS V14.01,2013-08-16 04:30:00,
2013-08-16 00:31:00,60.1,53.2,29.20,SSE,158,0.0,1.3,78,0.00,,,0.00,VWS V14.01,2013-08-16 04:31:00,
2013-08-16 00:32:00,60.1,53.2,29.20,SSE,158,0.0,0.0,78,0.00,,,0.00,VWS V14.01,2013-08-16 04:32:00,
2013-08-16 00:33:00,60.1,53.2,29.20,SSE,158,0.0,0.0,78,0.00,,,0.00,VWS V14.01,2013-08-16 04:33:00,
2013-08-16 00:34:00,60.1,53.2,29.23,SSE,158,0.0,0.0,78,0.00,,,0.00,VWS V14.01,2013-08-16 04:34:00,
2013-08-16 00:35:00,59.9,53.0,29.20,SSE,158,0.0,0.0,78,0.00,,,0.00,VWS V14.01,2013-08-16 04:35:00,
2013-08-16 00:36:00,59.9,53.0,29.20,SSW,202,0.0,1.3,78,0.00,,,0.00,VWS V14.01,2013-08-16 04:36:00,
2013-08-16 00:37:00,59.9,53.0,29.20,SSE,158,1.3,2.9,78,0.00,,,0.00,VWS V14.01,2013-08-16 04:37:00,
2013-08-16 00:38:00,59.9,53.0,29.20,SE,135,2.0,2.0,78,0.00,,,0.00,VWS V14.01,2013-08-16 04:38:00,
2013-08-16 00:39:00,60.1,53.2,29.20,SSE,158,0.0,0.0,78,0.00,,,0.00,VWS V14.01,2013-08-16 04:39:00,
2013-08-16 00:40:00,60.1,53.6,29.20,SSE,158,0.0,2.0,79,0.00,,,0.00,VWS V14.01,2013-08-16 04:40:00,
2013-08-16 00:41:00,60.1,53.6,29.20,SSW,202,0.0,1.3,79,0.00,,,0.00,VWS V14.01,2013-08-16 04:41:00,
2013-08-16 00:42:00,60.1,53.6,29.20,South,180,1.1,1.1,79,0.00,,,0.00,VWS V14.01,2013-08-16 04:42:00,
2013-08-16 00:43:00,60.1,53.6,29.20,South,180,1.1,1.1,79,0.00,,,0.00,VWS V14.01,2013-08-16 04:43:00,
2013-08-16 00:44:00,59.9,53.0,29.20,SE,135,2.0,2.0,78,0.00,,,0.00,VWS V14.01,2013-08-16 04:44:00,
2013-08-16 00:45:00,60.1,53.6,29.20,SE,135,2.7,2.7,79,0.00,,,0.00,VWS V14.01,2013-08-16 04:45:00,
2013-08-16 00:46:00,60.1,53.6,29.23,SSE,158,2.0,2.7,79,0.00,,,0.00,VWS V14.01,2013-08-16 04:46:00,
2013-08-16 00:47:00,60.1,53.6,29.23,South,180,1.3,2.9,79,0.00,,,0.00,VWS V14.01,2013-08-16 04:47:00,
2013-08-16 00:48:00,60.1,53.6,29.23,South,180,2.0,2.0,79,0.00,,,0.00,VWS V14.01,2013-08-16 04:48:00,
2013-08-16 00:49:00,60.1,53.6,29.20,South,180,1.1,2.5,79,0.00,,,0.00,VWS V14.01,2013-08-16 04:49:00,
2013-08-16 00:50:00,60.1,53.6,29.23,SSE,158,0.0,1.6,79,0.00,,,0.00,VWS V14.01,2013-08-16 04:50:00,
2013-08-16 00:51:00,60.3,54.1,29.23,SSE,158,2.5,2.5,80,0.00,,,0.00,VWS V14.01,2013-08-16 04:51:00,
2013-08-16 00:52:00,60.3,54.1,29.23,SE,135,1.3,2.5,80,0.00,,,0.00,VWS V14.01,2013-08-16 04:52:00,
2013-08-16 00:53:00,60.3,54.1,29.23,SE,135,2.0,2.2,80,0.00,,,0.00,VWS V14.01,2013-08-16 04:53:00,
2013-08-16 00:54:00,60.1,53.6,29.23,SSE,158,0.9,2.0,79,0.00,,,0.00,VWS V14.01,2013-08-16 04:54:00,
2013-08-16 00:55:00,60.3,54.1,29.23,SSE,158,1.1,2.9,80,0.00,,,0.00,VWS V14.01,2013-08-16 04:55:00,
2013-08-16 00:56:00,60.3,54.1,29.23,SE,135,0.9,1.3,80,0.00,,,0.00,VWS V14.01,2013-08-16 04:56:00,
2013-08-16 00:57:00,60.3,54.1,29.23,SSW,202,0.0,1.3,80,0.00,,,0.00,VWS V14.01,2013-08-16 04:57:00,
2013-08-16 00:58:00,60.3,54.1,29.23,SSW,202,1.1,2.2,80,0.00,,,0.00,VWS V14.01,2013-08-16 04:58:00,
2013-08-16 00:59:00,60.3,54.1,29.23,SE,135,1.6,2.0,80,0.00,,,0.00,VWS V14.01,2013-08-16 04:59:00,
2013-08-16 01:00:00,60.3,54.1,29.23,SSE,158,2.5,2.5,80,0.00,,,0.00,VWS V14.01,2013-08-16 05:00:00,
2013-08-16 01:01:00,60.3,54.1,29.23,SSE,158,1.1,2.5,80,0.00,,,0.00,VWS V14.01,2013-08-16 05:01:00,
2013-08-16 01:02:00,60.3,54.1,29.23,South,180,0.0,1.3,80,0.00,,,0.00,VWS V14.01,2013-08-16 05:02:00,
2013-08-16 01:03:00,60.3,54.1,29.23,South,180,0.0,0.0,80,0.00,,,0.00,VWS V14.01,2013-08-16 05:03:00,
2013-08-16 01:04:00,60.3,54.1,29.23,SSE,158,1.6,1.6,80,0.00,,,0.00,VWS V14.01,2013-08-16 05:04:00,
2013-08-16 01:05:00,60.3,54.1,29.23,SSE,158,1.3,1.6,80,0.00,,,0.00,VWS V14.01,2013-08-16 05:05:00,
2013-08-16 01:06:00,60.3,54.1,29.23,SSE,158,1.1,3.1,80,0.00,,,0.00,VWS V14.01,2013-08-16 05:06:00,
2013-08-16 01:07:00,60.3,54.1,29.23,SSE,158,1.6,2.0,80,0.00,,,0.00,VWS V14.01,2013-08-16 05:07:00,
2013-08-16 01:08:00,60.3,54.1,29.23,SE,135,0.0,1.6,80,0.00,,,0.00,VWS V14.01,2013-08-16 05:08:00,
2013-08-16 01:09:00,60.3,54.1,29.23,South,180,0.0,0.0,80,0.00,,,0.00,VWS V14.01,2013-08-16 05:09:00,
2013-08-16 01:10:00,60.4,54.6,29.23,SSE,158,2.5,2.5,81,0.00,,,0.00,VWS V14.01,2013-08-16 05:10:00,
2013-08-16 01:11:00,60.4,54.6,29.23,SSW,202,0.0,2.5,81,0.00,,,0.00,VWS V14.01,2013-08-16 05:11:00,
2013-08-16 01:12:00,60.4,54.6,29.23,South,180,2.0,2.0,81,0.00,,,0.00,VWS V14.01,2013-08-16 05:12:00,
2013-08-16 01:13:00,60.4,54.6,29.23,SSE,158,0.0,2.0,81,0.00,,,0.00,VWS V14.01,2013-08-16 05:13:00,
2013-08-16 01:14:00,60.4,54.2,29.23,South,180,1.1,1.1,80,0.00,,,0.00,VWS V14.01,2013-08-16 05:14:00,
2013-08-16 01:15:00,60.6,54.8,29.23,SSW,202,1.6,2.5,81,0.00,,,0.00,VWS V14.01,2013-08-16 05:15:00,
2013-08-16 01:16:00,60.6,54.8,29.23,South,180,2.5,2.5,81,0.00,,,0.00,VWS V14.01,2013-08-16 05:16:00,
2013-08-16 01:17:00,60.6,54.8,29.23,SSE,158,2.9,2.9,81,0.00,,,0.00,VWS V14.01,2013-08-16 05:17:00,
2013-08-16 01:18:00,60.8,54.9,29.23,SW,225,2.2,2.9,81,0.00,,,0.00,VWS V14.01,2013-08-16 05:18:00,
2013-08-16 01:19:00,60.4,54.6,29.23,SSE,158,0.9,2.5,81,0.00,,,0.00,VWS V14.01,2013-08-16 05:19:00,
2013-08-16 01:20:00,61.0,55.1,29.23,SSW,202,0.0,2.5,81,0.00,,,0.00,VWS V14.01,2013-08-16 05:20:00,
2013-08-16 01:21:00,61.0,55.1,29.23,SSW,202,2.2,2.7,81,0.00,,,0.00,VWS V14.01,2013-08-16 05:21:00,
2013-08-16 01:22:00,61.0,55.1,29.23,SSW,202,2.9,2.9,81,0.00,,,0.00,VWS V14.01,2013-08-16 05:22:00,
2013-08-16 01:23:00,61.0,55.1,29.23,SSW,202,0.0,2.9,81,0.00,,,0.00,VWS V14.01,2013-08-16 05:23:00,
2013-08-16 01:24:00,61.0,55.1,29.23,SSE,158,2.5,2.5,81,0.00,,,0.00,VWS V14.01,2013-08-16 05:24:00,
2013-08-16 01:25:00,61.0,55.1,29.23,SSW,202,2.2,2.5,81,0.00,,,0.00,VWS V14.01,2013-08-16 05:25:00,
2013-08-16 01:26:00,61.0,55.1,29.23,SSW,202,0.0,2.2,81,0.00,,,0.00,VWS V14.01,2013-08-16 05:26:00,
2013-08-16 01:27:00,61.0,55.1,29.23,SSW,202,2.2,2.2,81,0.00,,,0.00,VWS V14.01,2013-08-16 05:27:00,
2013-08-16 01:28:00,61.0,55.1,29.23,SSW,202,2.0,2.2,81,0.00,,,0.00,VWS V14.01,2013-08-16 05:28:00,
2013-08-16 01:29:00,61.0,55.1,29.23,SSW,202,2.0,2.7,81,0.00,,,0.00,VWS V14.01,2013-08-16 05:29:00,
2013-08-16 01:30:00,61.0,55.1,29.23,SSW,202,1.1,2.5,81,0.00,,,0.00,VWS V14.01,2013-08-16 05:30:00,
2013-08-16 01:31:00,61.0,55.1,29.23,SSW,202,2.9,2.9,81,0.00,,,0.00,VWS V14.01,2013-08-16 05:31:00,
2013-08-16 01:32:00,61.0,55.1,29.23,SW,225,0.0,2.9,81,0.00,,,0.00,VWS V14.01,2013-08-16 05:32:00,
2013-08-16 01:33:00,61.0,55.1,29.23,SSW,202,0.0,0.0,81,0.00,,,0.00,VWS V14.01,2013-08-16 05:33:00,
2013-08-16 01:34:00,61.0,55.1,29.23,SSW,202,0.0,2.5,81,0.00,,,0.00,VWS V14.01,2013-08-16 05:34:00,
2013-08-16 01:35:00,61.0,55.1,29.23,South,180,2.0,2.0,81,0.00,,,0.00,VWS V14.01,2013-08-16 05:35:00,
2013-08-16 01:36:00,61.0,55.1,29.23,SW,225,3.4,3.4,81,0.00,,,0.00,VWS V14.01,2013-08-16 05:36:00,
2013-08-16 01:37:00,61.0,55.1,29.23,SW,225,1.3,3.4,81,0.00,,,0.00,VWS V14.01,2013-08-16 05:37:00,
2013-08-16 01:38:00,61.0,55.1,29.23,SW,225,0.9,1.3,81,0.00,,,0.00,VWS V14.01,2013-08-16 05:38:00,
2013-08-16 01:39:00,61.0,55.1,29.23,WSW,248,1.1,1.6,81,0.00,,,0.00,VWS V14.01,2013-08-16 05:39:00,
2013-08-16 01:40:00,61.0,55.1,29.23,SSW,202,0.9,0.9,81,0.00,,,0.00,VWS V14.01,2013-08-16 05:40:00,
2013-08-16 01:41:00,60.8,54.6,29.23,South,180,1.6,1.6,80,0.00,,,0.00,VWS V14.01,2013-08-16 05:41:00,
2013-08-16 01:42:00,60.8,54.6,29.23,South,180,0.9,1.6,80,0.00,,,0.00,VWS V14.01,2013-08-16 05:42:00,
2013-08-16 01:43:00,60.8,54.6,29.23,SSW,202,1.1,1.6,80,0.00,,,0.00,VWS V14.01,2013-08-16 05:43:00,
2013-08-16 01:44:00,60.8,54.6,29.23,South,180,0.0,2.0,80,0.00,,,0.00,VWS V14.01,2013-08-16 05:44:00,
2013-08-16 01:45:00,60.8,54.6,29.23,SSW,202,0.9,1.1,80,0.00,,,0.00,VWS V14.01,2013-08-16 05:45:00,
2013-08-16 01:46:00,60.6,54.4,29.23,South,180,1.6,2.2,80,0.00,,,0.00,VWS V14.01,2013-08-16 05:46:00,
2013-08-16 01:47:00,60.6,54.4,29.23,SSW,202,2.0,2.2,80,0.00,,,0.00,VWS V14.01,2013-08-16 05:47:00,
2013-08-16 01:48:00,60.6,54.4,29.23,SSW,202,1.3,2.0,80,0.00,,,0.00,VWS V14.01,2013-08-16 05:48:00,
2013-08-16 01:49:00,60.6,54.4,29.23,SSE,158,3.1,3.1,80,0.00,,,0.00,VWS V14.01,2013-08-16 05:49:00,
2013-08-16 01:50:00,60.6,54.4,29.23,South,180,0.0,0.0,80,0.00,,,0.00,VWS V14.01,2013-08-16 05:50:00,
2013-08-16 01:51:00,60.6,54.4,29.23,South,180,1.6,2.2,80,0.00,,,0.00,VWS V14.01,2013-08-16 05:51:00,
2013-08-16 01:52:00,60.6,54.4,29.23,SSW,202,2.0,2.0,80,0.00,,,0.00,VWS V14.01,2013-08-16 05:52:00,
2013-08-16 01:53:00,60.6,54.4,29.23,SSW,202,1.3,2.9,80,0.00,,,0.00,VWS V14.01,2013-08-16 05:53:00,
2013-08-16 01:54:00,60.6,54.4,29.23,SSW,202,0.0,1.6,80,0.00,,,0.00,VWS V14.01,2013-08-16 05:54:00,
2013-08-16 01:55:00,60.6,54.4,29.23,SSE,158,1.3,3.1,80,0.00,,,0.00,VWS V14.01,2013-08-16 05:55:00,
2013-08-16 01:56:00,60.6,54.4,29.23,SSW,202,2.5,2.7,80,0.00,,,0.00,VWS V14.01,2013-08-16 05:56:00,
2013-08-16 01:57:00,60.6,54.4,29.23,SSW,202,1.1,2.5,80,0.00,,,0.00,VWS V14.01,2013-08-16 05:57:00,
2013-08-16 01:58:00,60.6,54.4,29.23,SSW,202,1.6,2.9,80,0.00,,,0.00,VWS V14.01,2013-08-16 05:58:00,
2013-08-16 01:59:00,60.6,54.4,29.23,SSW,202,2.9,2.9,80,0.00,,,0.00,VWS V14.01,2013-08-16 05:59:00,
2013-08-16 02:00:00,60.6,54.4,29.23,SSE,158,3.1,3.1,80,0.00,,,0.00,VWS V14.01,2013-08-16 06:00:00,
2013-08-16 02:01:00,60.4,54.2,29.23,SW,225,2.0,2.2,80,0.00,,,0.00,VWS V14.01,2013-08-16 06:01:00,
2013-08-16 02:02:00,60.4,54.2,29.23,South,180,2.5,3.1,80,0.00,,,0.00,VWS V14.01,2013-08-16 06:02:00,
2013-08-16 02:03:00,60.4,54.2,29.23,SSE,158,2.7,2.7,80,0.00,,,0.00,VWS V14.01,2013-08-16 06:03:00,
2013-08-16 02:04:00,60.4,54.2,29.23,SSW,202,1.1,2.7,80,0.00,,,0.00,VWS V14.01,2013-08-16 06:04:00,
2013-08-16 02:05:00,60.6,54.4,29.23,SSW,202,2.0,3.4,80,0.00,,,0.00,VWS V14.01,2013-08-16 06:05:00,
2013-08-16 02:06:00,60.6,54.4,29.23,SSW,202,2.0,2.5,80,0.00,,,0.00,VWS V14.01,2013-08-16 06:06:00,
2013-08-16 02:07:00,60.6,54.4,29.23,SW,225,0.0,2.0,80,0.00,,,0.00,VWS V14.01,2013-08-16 06:07:00,
2013-08-16 02:08:00,60.4,54.2,29.23,SSE,158,1.6,2.5,80,0.00,,,0.00,VWS V14.01,2013-08-16 06:08:00,
2013-08-16 02:09:00,60.4,54.2,29.23,SW,225,2.0,2.9,80,0.00,,,0.00,VWS V14.01,2013-08-16 06:09:00,
2013-08-16 02:10:00,60.4,54.2,29.23,WSW,248,2.5,2.5,80,0.00,,,0.00,VWS V14.01,2013-08-16 06:10:00,
2013-08-16 02:11:00,60.4,54.2,29.23,SSW,202,2.5,2.7,80,0.00,,,0.00,VWS V14.01,2013-08-16 06:11:00,
2013-08-16 02:12:00,60.4,54.2,29.23,SW,225,2.5,2.9,80,0.00,,,0.00,VWS V14.01,2013-08-16 06:12:00,
2013-08-16 02:13:00,60.4,54.2,29.23,SSW,202,0.9,2.5,80,0.00,,,0.00,VWS V14.01,2013-08-16 06:13:00,
2013-08-16 02:14:00,60.4,53.9,29.23,SSW,202,1.1,2.7,79,0.00,,,0.00,VWS V14.01,2013-08-16 06:14:00,
2013-08-16 02:15:00,60.4,54.2,29.23,SSE,158,1.6,2.0,80,0.00,,,0.00,VWS V14.01,2013-08-16 06:15:00,
2013-08-16 02:16:00,60.4,53.9,29.23,SSW,202,0.0,2.7,79,0.00,,,0.00,VWS V14.01,2013-08-16 06:16:00,
2013-08-16 02:17:00,60.4,53.9,29.23,SW,225,2.7,3.4,79,0.00,,,0.00,VWS V14.01,2013-08-16 06:17:00,
2013-08-16 02:18:00,60.4,53.9,29.23,SSW,202,0.9,2.7,79,0.00,,,0.00,VWS V14.01,2013-08-16 06:18:00,
2013-08-16 02:19:00,60.4,53.9,29.23,SW,225,2.7,2.7,79,0.00,,,0.00,VWS V14.01,2013-08-16 06:19:00,
2013-08-16 02:20:00,60.4,53.9,29.23,WSW,248,1.6,2.7,79,0.00,,,0.00,VWS V14.01,2013-08-16 06:20:00,
2013-08-16 02:21:00,60.3,53.7,29.23,SSW,202,0.9,2.0,79,0.00,,,0.00,VWS V14.01,2013-08-16 06:21:00,
2013-08-16 02:22:00,60.3,53.7,29.23,SW,225,2.0,2.7,79,0.00,,,0.00,VWS V14.01,2013-08-16 06:22:00,
2013-08-16 02:23:00,60.1,53.6,29.23,SSW,202,1.1,2.2,79,0.00,,,0.00,VWS V14.01,2013-08-16 06:23:00,
2013-08-16 02:24:00,60.1,53.6,29.23,SSW,202,0.0,2.0,79,0.00,,,0.00,VWS V14.01,2013-08-16 06:24:00,
2013-08-16 02:25:00,60.4,53.9,29.23,WSW,248,1.6,2.7,79,0.00,,,0.00,VWS V14.01,2013-08-16 06:25:00,
2013-08-16 02:26:00,59.9,53.0,29.23,SSW,202,2.0,2.2,78,0.00,,,0.00,VWS V14.01,2013-08-16 06:26:00,
2013-08-16 02:27:00,59.9,53.0,29.23,SSW,202,1.6,2.5,78,0.00,,,0.00,VWS V14.01,2013-08-16 06:27:00,
2013-08-16 02:28:00,59.9,53.0,29.23,SSW,202,1.3,2.0,78,0.00,,,0.00,VWS V14.01,2013-08-16 06:28:00,
2013-08-16 02:29:00,59.9,53.0,29.23,SSW,202,0.9,3.1,78,0.00,,,0.00,VWS V14.01,2013-08-16 06:29:00,
2013-08-16 02:30:00,60.1,53.6,29.23,South,180,2.7,2.7,79,0.00,,,0.00,VWS V14.01,2013-08-16 06:30:00,
2013-08-16 02:31:00,59.7,52.9,29.26,SSW,202,1.6,2.7,78,0.00,,,0.00,VWS V14.01,2013-08-16 06:31:00,
2013-08-16 02:32:00,59.7,52.9,29.26,SSW,202,2.7,3.1,78,0.00,,,0.00,VWS V14.01,2013-08-16 06:32:00,
2013-08-16 02:33:00,59.7,52.9,29.26,South,180,2.2,3.1,78,0.00,,,0.00,VWS V14.01,2013-08-16 06:33:00,
2013-08-16 02:34:00,59.7,52.9,29.26,South,180,0.9,2.2,78,0.00,,,0.00,VWS V14.01,2013-08-16 06:34:00,
2013-08-16 02:35:00,59.9,53.0,29.23,SSW,202,0.0,1.6,78,0.00,,,0.00,VWS V14.01,2013-08-16 06:35:00,
2013-08-16 02:36:00,59.7,53.2,29.26,WSW,248,2.5,2.5,79,0.00,,,0.00,VWS V14.01,2013-08-16 06:36:00,
2013-08-16 02:37:00,59.5,52.7,29.26,SSW,202,2.2,2.5,78,0.00,,,0.00,VWS V14.01,2013-08-16 06:37:00,
2013-08-16 02:38:00,59.5,52.7,29.26,SSW,202,1.1,2.2,78,0.00,,,0.00,VWS V14.01,2013-08-16 06:38:00,
2013-08-16 02:39:00,59.5,52.7,29.26,SW,225,0.0,3.1,78,0.00,,,0.00,VWS V14.01,2013-08-16 06:39:00,
2013-08-16 02:40:00,59.7,53.2,29.26,SW,225,2.0,2.0,79,0.00,,,0.00,VWS V14.01,2013-08-16 06:40:00,
2013-08-16 02:41:00,59.4,52.5,29.26,SSW,202,1.1,2.7,78,0.00,,,0.00,VWS V14.01,2013-08-16 06:41:00,
2013-08-16 02:42:00,59.4,52.5,29.26,SSW,202,1.1,2.2,78,0.00,,,0.00,VWS V14.01,2013-08-16 06:42:00,
2013-08-16 02:43:00,59.4,52.5,29.26,SSW,202,0.0,1.1,78,0.00,,,0.00,VWS V14.01,2013-08-16 06:43:00,
2013-08-16 02:44:00,59.4,52.5,29.26,SSW,202,0.0,2.0,78,0.00,,,0.00,VWS V14.01,2013-08-16 06:44:00,
2013-08-16 02:45:00,59.5,52.7,29.26,South,180,1.1,1.1,78,0.00,,,0.00,VWS V14.01,2013-08-16 06:45:00,
2013-08-16 02:46:00,59.2,52.3,29.23,SSW,202,0.0,1.1,78,0.00,,,0.00,VWS V14.01,2013-08-16 06:46:00,
2013-08-16 02:47:00,59.2,52.3,29.23,SW,225,1.6,1.6,78,0.00,,,0.00,VWS V14.01,2013-08-16 06:47:00,
2013-08-16 02:48:00,59.2,52.3,29.23,South,180,1.3,1.6,78,0.00,,,0.00,VWS V14.01,2013-08-16 06:48:00,
2013-08-16 02:49:00,59.2,52.3,29.23,SSW,202,0.0,1.3,78,0.00,,,0.00,VWS V14.01,2013-08-16 06:49:00,
2013-08-16 02:50:00,59.2,52.3,29.26,SSW,202,0.0,1.6,78,0.00,,,0.00,VWS V14.01,2013-08-16 06:50:00,
2013-08-16 02:51:00,59.2,52.3,29.23,SSW,202,0.0,2.0,78,0.00,,,0.00,VWS V14.01,2013-08-16 06:51:00,
2013-08-16 02:52:00,59.2,52.3,29.23,SE,135,0.0,0.0,78,0.00,,,0.00,VWS V14.01,2013-08-16 06:52:00,
2013-08-16 02:53:00,59.0,52.2,29.23,SW,225,1.1,1.1,78,0.00,,,0.00,VWS V14.01,2013-08-16 06:53:00,
2013-08-16 02:54:00,59.0,52.2,29.23,SSW,202,1.6,1.6,78,0.00,,,0.00,VWS V14.01,2013-08-16 06:54:00,
2013-08-16 02:55:00,59.2,52.3,29.23,SW,225,1.1,1.6,78,0.00,,,0.00,VWS V14.01,2013-08-16 06:55:00,
2013-08-16 02:56:00,59.0,52.2,29.23,SW,225,0.0,0.0,78,0.00,,,0.00,VWS V14.01,2013-08-16 06:56:00,
2013-08-16 02:57:00,58.8,52.3,29.23,SE,135,1.1,1.3,79,0.00,,,0.00,VWS V14.01,2013-08-16 06:57:00,
2013-08-16 02:58:00,58.8,52.3,29.23,SE,135,0.0,1.3,79,0.00,,,0.00,VWS V14.01,2013-08-16 06:58:00,
2013-08-16 02:59:00,58.8,52.3,29.23,SE,135,0.0,1.1,79,0.00,,,0.00,VWS V14.01,2013-08-16 06:59:00,
2013-08-16 03:00:00,59.0,52.2,29.23,SW,225,0.0,1.6,78,0.00,,,0.00,VWS V14.01,2013-08-16 07:00:00,
2013-08-16 03:01:00,58.6,52.2,29.23,SSE,158,2.5,2.7,79,0.00,,,0.00,VWS V14.01,2013-08-16 07:01:00,
2013-08-16 03:02:00,58.6,52.2,29.23,SSE,158,0.0,2.7,79,0.00,,,0.00,VWS V14.01,2013-08-16 07:02:00,
2013-08-16 03:03:00,58.6,52.2,29.23,SSE,158,0.0,0.0,79,0.00,,,0.00,VWS V14.01,2013-08-16 07:03:00,
2013-08-16 03:04:00,58.6,52.2,29.23,SSE,158,1.6,1.6,79,0.00,,,0.00,VWS V14.01,2013-08-16 07:04:00,
2013-08-16 03:05:00,58.6,52.2,29.23,SE,135,1.1,1.1,79,0.00,,,0.00,VWS V14.01,2013-08-16 07:05:00,
2013-08-16 03:06:00,58.6,52.2,29.23,SE,135,0.0,0.0,79,0.00,,,0.00,VWS V14.01,2013-08-16 07:06:00,
2013-08-16 03:07:00,58.6,52.2,29.23,SE,135,0.0,0.0,79,0.00,,,0.00,VWS V14.01,2013-08-16 07:07:00,
2013-08-16 03:08:00,58.5,52.0,29.23,South,180,0.9,2.2,79,0.00,,,0.00,VWS V14.01,2013-08-16 07:08:00,
2013-08-16 03:09:00,58.5,52.0,29.23,South,180,0.0,0.9,79,0.00,,,0.00,VWS V14.01,2013-08-16 07:09:00,
2013-08-16 03:10:00,58.6,52.2,29.23,SE,135,0.0,1.6,79,0.00,,,0.00,VWS V14.01,2013-08-16 07:10:00,
2013-08-16 03:11:00,58.3,51.8,29.23,SSE,158,0.9,0.9,79,0.00,,,0.00,VWS V14.01,2013-08-16 07:11:00,
2013-08-16 03:12:00,58.1,51.6,29.23,SE,135,1.3,1.3,79,0.00,,,0.00,VWS V14.01,2013-08-16 07:12:00,
2013-08-16 03:13:00,58.1,51.6,29.23,ESE,112,0.9,1.3,79,0.00,,,0.00,VWS V14.01,2013-08-16 07:13:00,
2013-08-16 03:14:00,58.3,51.8,29.23,ESE,112,1.3,1.3,79,0.00,,,0.00,VWS V14.01,2013-08-16 07:14:00,
2013-08-16 03:15:00,58.3,51.8,29.23,South,180,0.0,0.0,79,0.00,,,0.00,VWS V14.01,2013-08-16 07:15:00,
2013-08-16 03:16:00,58.1,51.6,29.23,SE,135,2.5,2.5,79,0.00,,,0.00,VWS V14.01,2013-08-16 07:16:00,
2013-08-16 03:17:00,58.1,51.6,29.23,ESE,112,2.5,2.5,79,0.00,,,0.00,VWS V14.01,2013-08-16 07:17:00,
2013-08-16 03:18:00,58.1,52.0,29.23,ESE,112,1.6,2.5,80,0.00,,,0.00,VWS V14.01,2013-08-16 07:18:00,
2013-08-16 03:19:00,58.1,52.0,29.23,SSE,158,2.2,2.5,80,0.00,,,0.00,VWS V14.01,2013-08-16 07:19:00,
2013-08-16 03:20:00,58.1,51.6,29.23,ESE,112,2.2,2.2,79,0.00,,,0.00,VWS V14.01,2013-08-16 07:20:00,
2013-08-16 03:21:00,58.3,52.2,29.23,SSE,158,1.6,2.9,80,0.00,,,0.00,VWS V14.01,2013-08-16 07:21:00,
2013-08-16 03:22:00,58.3,52.5,29.23,ESE,112,1.6,2.7,81,0.00,,,0.00,VWS V14.01,2013-08-16 07:22:00,
2013-08-16 03:23:00,58.3,52.5,29.23,ESE,112,1.3,1.6,81,0.00,,,0.00,VWS V14.01,2013-08-16 07:23:00,
2013-08-16 03:24:00,58.3,52.5,29.23,East,90,1.3,2.2,81,0.00,,,0.00,VWS V14.01,2013-08-16 07:24:00,
2013-08-16 03:25:00,58.1,52.0,29.23,SE,135,2.5,2.5,80,0.00,,,0.00,VWS V14.01,2013-08-16 07:25:00,
2013-08-16 03:26:00,58.1,52.3,29.23,SE,135,1.3,2.5,81,0.00,,,0.00,VWS V14.01,2013-08-16 07:26:00,
2013-08-16 03:27:00,58.1,52.3,29.23,SSE,158,2.5,2.5,81,0.00,,,0.00,VWS V14.01,2013-08-16 07:27:00,
2013-08-16 03:28:00,58.1,52.3,29.23,SSE,158,1.1,2.5,81,0.00,,,0.00,VWS V14.01,2013-08-16 07:28:00,
2013-08-16 03:29:00,58.3,52.5,29.23,SE,135,1.3,1.3,81,0.00,,,0.00,VWS V14.01,2013-08-16 07:29:00,
2013-08-16 03:30:00,58.3,52.5,29.23,ESE,112,1.6,2.5,81,0.00,,,0.00,VWS V14.01,2013-08-16 07:30:00,
2013-08-16 03:31:00,58.3,52.8,29.23,ESE,112,2.0,2.2,82,0.00,,,0.00,VWS V14.01,2013-08-16 07:31:00,
2013-08-16 03:32:00,58.3,52.8,29.26,SE,135,2.7,2.7,82,0.00,,,0.00,VWS V14.01,2013-08-16 07:32:00,
2013-08-16 03:33:00,58.3,52.8,29.26,SE,135,2.2,2.7,82,0.00,,,0.00,VWS V14.01,2013-08-16 07:33:00,
2013-08-16 03:34:00,58.3,52.8,29.26,East,90,2.0,2.2,82,0.00,,,0.00,VWS V14.01,2013-08-16 07:34:00,
2013-08-16 03:35:00,58.3,52.5,29.23,ESE,112,2.2,2.2,81,0.00,,,0.00,VWS V14.01,2013-08-16 07:35:00,
2013-08-16 03:36:00,58.1,52.6,29.26,ESE,112,1.6,2.0,82,0.00,,,0.00,VWS V14.01,2013-08-16 07:36:00,
2013-08-16 03:37:00,58.1,52.6,29.26,East,90,2.0,2.0,82,0.00,,,0.00,VWS V14.01,2013-08-16 07:37:00,
2013-08-16 03:38:00,58.1,52.6,29.26,East,90,0.0,2.0,82,0.00,,,0.00,VWS V14.01,2013-08-16 07:38:00,
2013-08-16 03:39:00,58.1,52.6,29.26,East,90,0.9,1.3,82,0.00,,,0.00,VWS V14.01,2013-08-16 07:39:00,
2013-08-16 03:40:00,58.1,52.6,29.26,East,90,1.3,2.0,82,0.00,,,0.00,VWS V14.01,2013-08-16 07:40:00,
2013-08-16 03:41:00,58.3,52.8,29.26,East,90,1.6,2.0,82,0.00,,,0.00,VWS V14.01,2013-08-16 07:41:00,
2013-08-16 03:42:00,57.9,52.5,29.26,SE,135,1.6,1.6,82,0.00,,,0.00,VWS V14.01,2013-08-16 07:42:00,
2013-08-16 03:43:00,57.9,52.5,29.26,SSE,158,0.9,2.0,82,0.00,,,0.00,VWS V14.01,2013-08-16 07:43:00,
2013-08-16 03:44:00,57.9,52.5,29.26,SSE,158,0.0,0.9,82,0.00,,,0.00,VWS V14.01,2013-08-16 07:44:00,
2013-08-16 03:45:00,57.9,52.5,29.26,SSE,158,1.1,2.5,82,0.00,,,0.00,VWS V14.01,2013-08-16 07:45:00,
2013-08-16 03:46:00,58.1,52.6,29.26,East,90,1.3,1.3,82,0.00,,,0.00,VWS V14.01,2013-08-16 07:46:00,
2013-08-16 03:47:00,58.1,52.6,29.26,South,180,0.0,0.0,82,0.00,,,0.00,VWS V14.01,2013-08-16 07:47:00,
2013-08-16 03:48:00,58.1,52.6,29.26,South,180,0.0,0.0,82,0.00,,,0.00,VWS V14.01,2013-08-16 07:48:00,
2013-08-16 03:49:00,58.1,52.6,29.26,SSE,158,1.1,1.1,82,0.00,,,0.00,VWS V14.01,2013-08-16 07:49:00,
2013-08-16 03:50:00,58.1,52.6,29.26,SW,225,0.0,1.3,82,0.00,,,0.00,VWS V14.01,2013-08-16 07:50:00,
2013-08-16 03:51:00,57.9,52.5,29.26,SSE,158,1.1,1.1,82,0.00,,,0.00,VWS V14.01,2013-08-16 07:51:00,
2013-08-16 03:52:00,58.1,53.0,29.26,SE,135,1.6,1.6,83,0.00,,,0.00,VWS V14.01,2013-08-16 07:52:00,
2013-08-16 03:53:00,58.1,53.0,29.26,South,180,0.0,1.6,83,0.00,,,0.00,VWS V14.01,2013-08-16 07:53:00,
2013-08-16 03:54:00,58.3,53.2,29.26,South,180,0.0,0.0,83,0.00,,,0.00,VWS V14.01,2013-08-16 07:54:00,
2013-08-16 03:55:00,58.3,53.2,29.26,SSE,158,0.9,0.9,83,0.00,,,0.00,VWS V14.01,2013-08-16 07:55:00,
2013-08-16 03:56:00,58.1,52.6,29.26,SW,225,0.0,0.0,82,0.00,,,0.00,VWS V14.01,2013-08-16 07:56:00,
2013-08-16 03:57:00,58.3,53.2,29.26,ESE,112,0.0,1.1,83,0.00,,,0.00,VWS V14.01,2013-08-16 07:57:00,
2013-08-16 03:58:00,57.9,52.5,29.26,East,90,2.0,2.2,82,0.00,,,0.00,VWS V14.01,2013-08-16 07:58:00,
2013-08-16 03:59:00,57.9,52.5,29.26,ESE,112,1.6,2.0,82,0.00,,,0.00,VWS V14.01,2013-08-16 07:59:00,
2013-08-16 04:00:00,57.7,52.3,29.26,SE,135,0.0,2.5,82,0.00,,,0.00,VWS V14.01,2013-08-16 08:00:00,
2013-08-16 04:01:00,58.3,53.2,29.26,SSE,158,0.9,0.9,83,0.00,,,0.00,VWS V14.01,2013-08-16 08:01:00,
2013-08-16 04:02:00,57.9,52.5,29.26,ESE,112,1.6,2.5,82,0.00,,,0.00,VWS V14.01,2013-08-16 08:02:00,
2013-08-16 04:03:00,57.9,52.8,29.26,ESE,112,2.0,2.2,83,0.00,,,0.00,VWS V14.01,2013-08-16 08:03:00,
2013-08-16 04:04:00,57.7,52.6,29.26,SE,135,2.0,2.0,83,0.00,,,0.00,VWS V14.01,2013-08-16 08:04:00,
2013-08-16 04:05:00,57.7,52.3,29.26,ESE,112,1.6,2.5,82,0.00,,,0.00,VWS V14.01,2013-08-16 08:05:00,
2013-08-16 04:06:00,57.7,52.3,29.26,SE,135,2.0,2.0,82,0.00,,,0.00,VWS V14.01,2013-08-16 08:06:00,
2013-08-16 04:07:00,57.7,52.6,29.26,East,90,2.5,2.5,83,0.00,,,0.00,VWS V14.01,2013-08-16 08:07:00,
2013-08-16 04:08:00,57.6,52.4,29.26,East,90,1.3,2.5,83,0.00,,,0.00,VWS V14.01,2013-08-16 08:08:00,
2013-08-16 04:09:00,57.6,52.4,29.26,East,90,2.5,2.5,83,0.00,,,0.00,VWS V14.01,2013-08-16 08:09:00,
2013-08-16 04:10:00,57.6,52.4,29.26,ESE,112,2.0,2.5,83,0.00,,,0.00,VWS V14.01,2013-08-16 08:10:00,
2013-08-16 04:11:00,57.7,52.3,29.26,East,90,2.0,2.0,82,0.00,,,0.00,VWS V14.01,2013-08-16 08:11:00,
2013-08-16 04:12:00,57.2,51.8,29.26,ESE,112,1.1,2.0,82,0.00,,,0.00,VWS V14.01,2013-08-16 08:12:00,
2013-08-16 04:13:00,57.2,51.8,29.26,East,90,1.6,1.6,82,0.00,,,0.00,VWS V14.01,2013-08-16 08:13:00,
2013-08-16 04:14:00,57.2,51.8,29.26,East,90,0.0,2.2,82,0.00,,,0.00,VWS V14.01,2013-08-16 08:14:00,
2013-08-16 04:15:00,57.2,51.8,29.26,East,90,0.0,0.0,82,0.00,,,0.00,VWS V14.01,2013-08-16 08:15:00,
2013-08-16 04:16:00,57.4,52.3,29.26,ESE,112,1.6,2.0,83,0.00,,,0.00,VWS V14.01,2013-08-16 08:16:00,
2013-08-16 04:17:00,56.8,51.4,29.26,SE,135,0.0,0.0,82,0.00,,,0.00,VWS V14.01,2013-08-16 08:17:00,
2013-08-16 04:18:00,56.8,51.4,29.26,SE,135,1.3,2.5,82,0.00,,,0.00,VWS V14.01,2013-08-16 08:18:00,
2013-08-16 04:19:00,56.8,51.7,29.26,ENE,68,0.9,1.3,83,0.00,,,0.00,VWS V14.01,2013-08-16 08:19:00,
2013-08-16 04:20:00,56.8,51.7,29.26,SSE,158,0.0,0.9,83,0.00,,,0.00,VWS V14.01,2013-08-16 08:20:00,
2013-08-16 04:21:00,57.0,51.9,29.26,East,90,0.0,0.0,83,0.00,,,0.00,VWS V14.01,2013-08-16 08:21:00,
2013-08-16 04:22:00,56.7,51.6,29.26,SSE,158,0.0,0.0,83,0.00,,,0.00,VWS V14.01,2013-08-16 08:22:00,
2013-08-16 04:23:00,56.7,51.6,29.26,SSW,202,0.0,0.0,83,0.00,,,0.00,VWS V14.01,2013-08-16 08:23:00,
2013-08-16 04:24:00,56.7,51.6,29.26,SSW,202,0.0,0.0,83,0.00,,,0.00,VWS V14.01,2013-08-16 08:24:00,
2013-08-16 04:25:00,56.7,51.6,29.26,SSW,202,0.0,0.0,83,0.00,,,0.00,VWS V14.01,2013-08-16 08:25:00,
2013-08-16 04:26:00,56.8,51.7,29.26,SSE,158,0.0,0.0,83,0.00,,,0.00,VWS V14.01,2013-08-16 08:26:00,
2013-08-16 04:27:00,56.8,51.7,29.26,South,180,0.0,2.2,83,0.00,,,0.00,VWS V14.01,2013-08-16 08:27:00,
2013-08-16 04:28:00,56.8,51.7,29.26,South,180,0.0,0.0,83,0.00,,,0.00,VWS V14.01,2013-08-16 08:28:00,
2013-08-16 04:29:00,56.8,52.1,29.26,South,180,1.1,1.1,84,0.00,,,0.00,VWS V14.01,2013-08-16 08:29:00,
2013-08-16 04:30:00,56.8,52.1,29.26,SSW,202,0.0,1.1,84,0.00,,,0.00,VWS V14.01,2013-08-16 08:30:00,
2013-08-16 04:31:00,56.7,51.6,29.26,SSW,202,0.0,0.0,83,0.00,,,0.00,VWS V14.01,2013-08-16 08:31:00,
2013-08-16 04:32:00,56.8,52.1,29.26,WSW,248,0.0,0.0,84,0.00,,,0.00,VWS V14.01,2013-08-16 08:32:00,
2013-08-16 04:33:00,57.2,52.4,29.26,WSW,248,0.0,0.0,84,0.00,,,0.00,VWS V14.01,2013-08-16 08:33:00,
2013-08-16 04:34:00,57.2,52.1,29.26,SSW,202,0.9,0.9,83,0.00,,,0.00,VWS V14.01,2013-08-16 08:34:00,
2013-08-16 04:35:00,57.2,52.1,29.26,SSW,202,0.0,1.3,83,0.00,,,0.00,VWS V14.01,2013-08-16 08:35:00,
2013-08-16 04:36:00,56.8,52.1,29.26,South,180,2.7,2.7,84,0.00,,,0.00,VWS V14.01,2013-08-16 08:36:00,
2013-08-16 04:37:00,57.2,52.1,29.26,SW,225,0.0,1.3,83,0.00,,,0.00,VWS V14.01,2013-08-16 08:37:00,
2013-08-16 04:38:00,57.2,52.1,29.26,SSE,158,1.3,2.0,83,0.00,,,0.00,VWS V14.01,2013-08-16 08:38:00,
2013-08-16 04:39:00,57.4,52.6,29.26,WSW,248,0.0,1.3,84,0.00,,,0.00,VWS V14.01,2013-08-16 08:39:00,
2013-08-16 04:40:00,57.4,52.6,29.26,SW,225,0.0,0.0,84,0.00,,,0.00,VWS V14.01,2013-08-16 08:40:00,
2013-08-16 04:41:00,57.2,52.1,29.26,SSW,202,0.0,0.9,83,0.00,,,0.00,VWS V14.01,2013-08-16 08:41:00,
2013-08-16 04:42:00,57.6,52.8,29.26,South,180,1.1,2.5,84,0.00,,,0.00,VWS V14.01,2013-08-16 08:42:00,
2013-08-16 04:43:00,57.6,52.8,29.26,SSE,158,0.0,2.0,84,0.00,,,0.00,VWS V14.01,2013-08-16 08:43:00,
2013-08-16 04:44:00,57.6,52.8,29.26,SSE,158,0.0,0.0,84,0.00,,,0.00,VWS V14.01,2013-08-16 08:44:00,
2013-08-16 04:45:00,57.6,52.8,29.26,SW,225,0.9,1.3,84,0.00,,,0.00,VWS V14.01,2013-08-16 08:45:00,
2013-08-16 04:46:00,57.4,52.6,29.26,South,180,0.9,1.6,84,0.00,,,0.00,VWS V14.01,2013-08-16 08:46:00,
2013-08-16 04:47:00,57.6,52.8,29.26,SSW,202,1.1,1.6,84,0.00,,,0.00,VWS V14.01,2013-08-16 08:47:00,
2013-08-16 04:48:00,57.6,52.8,29.26,SW,225,0.9,1.1,84,0.00,,,0.00,VWS V14.01,2013-08-16 08:48:00,
2013-08-16 04:49:00,57.7,52.9,29.26,SW,225,0.9,2.2,84,0.00,,,0.00,VWS V14.01,2013-08-16 08:49:00,
2013-08-16 04:50:00,57.9,53.1,29.26,SSW,202,0.9,2.2,84,0.00,,,0.00,VWS V14.01,2013-08-16 08:50:00,
2013-08-16 04:51:00,57.6,52.8,29.26,South,180,0.0,0.9,84,0.00,,,0.00,VWS V14.01,2013-08-16 08:51:00,
2013-08-16 04:52:00,57.7,52.9,29.26,SSW,202,0.0,0.0,84,0.00,,,0.00,VWS V14.01,2013-08-16 08:52:00,
2013-08-16 04:53:00,57.7,52.9,29.26,SSW,202,0.0,0.0,84,0.00,,,0.00,VWS V14.01,2013-08-16 08:53:00,
2013-08-16 04:54:00,57.7,52.9,29.26,SSE,158,1.3,2.0,84,0.00,,,0.00,VWS V14.01,2013-08-16 08:54:00,
2013-08-16 04:55:00,57.7,52.9,29.26,South,180,0.0,2.2,84,0.00,,,0.00,VWS V14.01,2013-08-16 08:55:00,
2013-08-16 04:56:00,57.9,53.1,29.26,SSW,202,0.0,0.9,84,0.00,,,0.00,VWS V14.01,2013-08-16 08:56:00,
2013-08-16 04:57:00,57.7,52.9,29.26,SW,225,2.7,2.7,84,0.00,,,0.00,VWS V14.01,2013-08-16 08:57:00,
2013-08-16 04:58:00,57.7,52.9,29.26,SSW,202,0.9,2.7,84,0.00,,,0.00,VWS V14.01,2013-08-16 08:58:00,
2013-08-16 04:59:00,57.9,53.1,29.26,SSW,202,2.0,2.2,84,0.00,,,0.00,VWS V14.01,2013-08-16 08:59:00,
2013-08-16 05:00:00,57.9,53.1,29.26,SSW,202,0.0,2.0,84,0.00,,,0.00,VWS V14.01,2013-08-16 09:00:00,
2013-08-16 05:01:00,57.7,53.0,29.26,SSW,202,0.0,0.0,84,0.00,,,0.00,VWS V14.01,2013-08-16 09:01:00,
2013-08-16 05:02:00,57.7,52.9,29.26,SSW,202,0.0,0.0,84,0.00,,,0.00,VWS V14.01,2013-08-16 09:02:00,
2013-08-16 05:03:00,57.7,52.9,29.26,South,180,2.5,2.5,84,0.00,,,0.00,VWS V14.01,2013-08-16 09:03:00,
2013-08-16 05:04:00,57.7,52.9,29.26,South,180,0.0,2.5,84,0.00,,,0.00,VWS V14.01,2013-08-16 09:04:00,
2013-08-16 05:05:00,57.7,52.9,29.26,South,180,0.0,0.0,84,0.00,,,0.00,VWS V14.01,2013-08-16 09:05:00,
2013-08-16 05:06:00,57.7,53.0,29.26,SSW,202,0.0,0.0,84,0.00,,,0.00,VWS V14.01,2013-08-16 09:06:00,
2013-08-16 05:07:00,57.7,52.9,29.26,South,180,0.0,0.0,84,0.00,,,0.00,VWS V14.01,2013-08-16 09:07:00,
2013-08-16 05:08:00,57.6,52.8,29.26,South,180,0.0,2.2,84,0.00,,,0.00,VWS V14.01,2013-08-16 09:08:00,
2013-08-16 05:09:00,57.6,52.8,29.26,SSE,158,1.6,2.2,84,0.00,,,0.00,VWS V14.01,2013-08-16 09:09:00,
2013-08-16 05:10:00,57.6,52.8,29.26,SSE,158,0.9,1.6,84,0.00,,,0.00,VWS V14.01,2013-08-16 09:10:00,
2013-08-16 05:11:00,57.7,53.0,29.26,South,180,0.0,0.0,84,0.00,,,0.00,VWS V14.01,2013-08-16 09:11:00,
2013-08-16 05:12:00,57.6,52.8,29.26,SSE,158,0.0,0.9,84,0.00,,,0.00,VWS V14.01,2013-08-16 09:12:00,
2013-08-16 05:13:00,57.6,52.8,29.26,SSE,158,0.0,0.0,84,0.00,,,0.00,VWS V14.01,2013-08-16 09:13:00,
2013-08-16 05:14:00,57.6,52.8,29.26,SSW,202,1.3,2.7,84,0.00,,,0.00,VWS V14.01,2013-08-16 09:14:00,
2013-08-16 05:15:00,57.6,52.8,29.26,South,180,1.6,2.2,84,0.00,,,0.00,VWS V14.01,2013-08-16 09:15:00,
2013-08-16 05:16:00,57.6,52.8,29.26,SSE,158,0.0,0.9,84,0.00,,,0.00,VWS V14.01,2013-08-16 09:16:00,
2013-08-16 05:17:00,57.6,52.8,29.26,SSW,202,0.0,1.1,84,0.00,,,0.00,VWS V14.01,2013-08-16 09:17:00,
2013-08-16 05:18:00,57.6,52.8,29.26,SW,225,0.0,2.9,84,0.00,,,0.00,VWS V14.01,2013-08-16 09:18:00,
2013-08-16 05:19:00,57.7,52.9,29.26,South,180,1.1,2.5,84,0.00,,,0.00,VWS V14.01,2013-08-16 09:19:00,
2013-08-16 05:20:00,57.7,52.9,29.26,South,180,1.3,1.3,84,0.00,,,0.00,VWS V14.01,2013-08-16 09:20:00,
2013-08-16 05:21:00,57.6,52.8,29.26,South,180,1.3,2.5,84,0.00,,,0.00,VWS V14.01,2013-08-16 09:21:00,
2013-08-16 05:22:00,57.7,52.9,29.26,SE,135,0.0,1.1,84,0.00,,,0.00,VWS V14.01,2013-08-16 09:22:00,
2013-08-16 05:23:00,57.7,52.9,29.26,SSW,202,0.0,2.7,84,0.00,,,0.00,VWS V14.01,2013-08-16 09:23:00,
2013-08-16 05:24:00,57.7,52.9,29.26,SSE,158,0.9,1.3,84,0.00,,,0.00,VWS V14.01,2013-08-16 09:24:00,
2013-08-16 05:25:00,57.7,52.9,29.26,SE,135,2.0,2.9,84,0.00,,,0.00,VWS V14.01,2013-08-16 09:25:00,
2013-08-16 05:26:00,57.7,53.0,29.26,South,180,0.0,1.3,84,0.00,,,0.00,VWS V14.01,2013-08-16 09:26:00,
2013-08-16 05:27:00,57.7,52.9,29.26,ESE,112,2.5,2.7,84,0.00,,,0.00,VWS V14.01,2013-08-16 09:27:00,
2013-08-16 05:28:00,57.6,52.8,29.26,ESE,112,2.5,2.9,84,0.00,,,0.00,VWS V14.01,2013-08-16 09:28:00,
2013-08-16 05:29:00,57.6,52.8,29.26,East,90,2.9,2.9,84,0.00,,,0.00,VWS V14.01,2013-08-16 09:29:00,
2013-08-16 05:30:00,57.6,52.8,29.26,ESE,112,1.3,2.9,84,0.00,,,0.00,VWS V14.01,2013-08-16 09:30:00,
2013-08-16 05:31:00,57.9,53.4,29.26,East,90,1.6,2.0,85,0.00,,,0.00,VWS V14.01,2013-08-16 09:31:00,
2013-08-16 05:32:00,57.4,52.6,29.26,SSE,158,0.0,2.7,84,0.00,,,0.00,VWS V14.01,2013-08-16 09:32:00,
2013-08-16 05:33:00,57.2,52.4,29.26,SSE,158,1.6,1.6,84,0.00,,,0.00,VWS V14.01,2013-08-16 09:33:00,
2013-08-16 05:34:00,57.2,52.4,29.26,SSE,158,0.0,1.6,84,0.00,,,0.00,VWS V14.01,2013-08-16 09:34:00,
2013-08-16 05:35:00,57.2,52.4,29.26,SSE,158,0.0,0.0,84,0.00,,,0.00,VWS V14.01,2013-08-16 09:35:00,
2013-08-16 05:36:00,57.4,52.6,29.26,SE,135,2.7,2.9,84,0.00,,,0.00,VWS V14.01,2013-08-16 09:36:00,
2013-08-16 05:37:00,57.0,52.2,29.26,SSE,158,0.9,0.9,84,0.00,,,0.00,VWS V14.01,2013-08-16 09:37:00,
2013-08-16 05:38:00,57.0,52.2,29.26,SSE,158,1.1,1.3,84,0.00,,,0.00,VWS V14.01,2013-08-16 09:38:00,
2013-08-16 05:39:00,56.8,52.1,29.26,SE,135,1.3,1.3,84,0.00,,,0.00,VWS V14.01,2013-08-16 09:39:00,
2013-08-16 05:40:00,56.8,52.1,29.26,SE,135,0.0,1.3,84,0.00,,,0.00,VWS V14.01,2013-08-16 09:40:00,
2013-08-16 05:41:00,57.2,52.4,29.26,SSE,158,0.0,0.9,84,0.00,,,0.00,VWS V14.01,2013-08-16 09:41:00,
2013-08-16 05:42:00,56.5,51.7,29.26,East,90,1.3,1.3,84,0.00,,,0.00,VWS V14.01,2013-08-16 09:42:00,
2013-08-16 05:43:00,56.5,51.7,29.26,East,90,0.9,1.3,84,0.00,,,0.00,VWS V14.01,2013-08-16 09:43:00,
2013-08-16 05:44:00,56.3,51.5,29.26,ESE,112,1.6,1.6,84,0.00,,,0.00,VWS V14.01,2013-08-16 09:44:00,
2013-08-16 05:45:00,56.3,51.5,29.26,ESE,112,1.6,1.6,84,0.00,,,0.00,VWS V14.01,2013-08-16 09:45:00,
2013-08-16 05:46:00,56.7,51.9,29.26,SE,135,0.0,1.6,84,0.00,,,0.00,VWS V14.01,2013-08-16 09:46:00,
2013-08-16 05:47:00,56.3,51.5,29.26,East,90,0.0,0.0,84,0.00,,,0.00,VWS V14.01,2013-08-16 09:47:00,
2013-08-16 05:48:00,56.3,51.5,29.26,East,90,0.0,0.0,84,0.00,,,0.00,VWS V14.01,2013-08-16 09:48:00,
2013-08-16 05:49:00,56.1,51.4,29.26,East,90,0.0,0.0,84,0.00,,,0.00,VWS V14.01,2013-08-16 09:49:00,
2013-08-16 05:50:00,55.9,51.2,29.26,East,90,0.0,0.0,84,0.00,,,0.00,VWS V14.01,2013-08-16 09:50:00,
2013-08-16 05:51:00,56.3,51.5,29.26,East,90,0.0,0.0,84,0.00,,,0.00,VWS V14.01,2013-08-16 09:51:00,
2013-08-16 05:52:00,55.8,51.0,29.26,East,90,0.0,0.0,84,0.00,,,0.00,VWS V14.01,2013-08-16 09:52:00,
2013-08-16 05:53:00,55.8,51.0,29.26,East,90,0.0,0.0,84,0.00,,,0.00,VWS V14.01,2013-08-16 09:53:00,
2013-08-16 05:54:00,55.8,51.0,29.26,East,90,0.0,0.0,84,0.00,,,0.00,VWS V14.01,2013-08-16 09:54:00,
2013-08-16 05:55:00,55.8,51.0,29.26,East,90,0.0,0.0,84,0.00,,,0.00,VWS V14.01,2013-08-16 09:55:00,
2013-08-16 05:56:00,55.9,51.2,29.26,East,90,0.0,0.0,84,0.00,,,0.00,VWS V14.01,2013-08-16 09:56:00,
2013-08-16 05:57:00,55.9,51.2,29.26,SSE,158,0.0,1.6,84,0.00,,,0.00,VWS V14.01,2013-08-16 09:57:00,
2013-08-16 05:58:00,55.9,51.5,29.26,SSE,158,0.0,0.0,85,0.00,,,0.00,VWS V14.01,2013-08-16 09:58:00,
2013-08-16 05:59:00,55.9,51.5,29.26,SSE,158,0.0,0.0,85,0.00,,,0.00,VWS V14.01,2013-08-16 09:59:00,
2013-08-16 06:00:00,55.8,51.3,29.26,SSE,158,0.0,0.0,85,0.00,,,0.00,VWS V14.01,2013-08-16 10:00:00,
2013-08-16 06:01:00,55.6,50.8,29.26,SSE,158,0.0,0.0,84,0.00,,,0.00,VWS V14.01,2013-08-16 10:01:00,
2013-08-16 06:02:00,55.9,51.2,29.26,SSE,158,0.0,0.0,84,0.00,,,0.00,VWS V14.01,2013-08-16 10:02:00,
2013-08-16 06:03:00,55.6,50.8,29.26,ESE,112,0.9,0.9,84,0.00,,,0.00,VWS V14.01,2013-08-16 10:03:00,
2013-08-16 06:04:00,55.6,50.8,29.26,ESE,112,1.1,1.1,84,0.00,,,0.00,VWS V14.01,2013-08-16 10:04:00,
2013-08-16 06:05:00,55.6,50.8,29.26,ESE,112,0.0,1.1,84,0.00,,,0.00,VWS V14.01,2013-08-16 10:05:00,
2013-08-16 06:06:00,55.6,50.8,29.26,ESE,112,1.3,1.3,84,0.00,,,0.00,VWS V14.01,2013-08-16 10:06:00,
2013-08-16 06:07:00,55.6,50.8,29.26,SSE,158,0.0,0.0,84,0.00,,,0.00,VWS V14.01,2013-08-16 10:07:00,
2013-08-16 06:08:00,55.8,51.6,29.26,ESE,112,0.9,1.6,86,0.00,,,0.00,VWS V14.01,2013-08-16 10:08:00,
2013-08-16 06:09:00,55.9,51.8,29.26,ESE,112,0.0,0.9,86,0.00,,,0.00,VWS V14.01,2013-08-16 10:09:00,
2013-08-16 06:10:00,55.9,51.8,29.26,ESE,112,0.0,0.0,86,0.00,,,0.00,VWS V14.01,2013-08-16 10:10:00,
2013-08-16 06:11:00,55.9,51.8,29.26,ESE,112,0.0,0.0,86,0.00,,,0.00,VWS V14.01,2013-08-16 10:11:00,
2013-08-16 06:12:00,55.9,51.8,29.26,ESE,112,0.9,1.1,86,0.00,,,0.00,VWS V14.01,2013-08-16 10:12:00,
2013-08-16 06:13:00,55.9,52.1,29.26,ESE,112,0.0,0.9,87,0.00,,,0.00,VWS V14.01,2013-08-16 10:13:00,
2013-08-16 06:14:00,55.9,52.1,29.26,ESE,112,0.0,0.0,87,0.00,,,0.00,VWS V14.01,2013-08-16 10:14:00,
2013-08-16 06:15:00,55.8,51.6,29.26,ESE,112,0.0,0.0,86,0.00,,,0.00,VWS V14.01,2013-08-16 10:15:00,
2013-08-16 06:16:00,55.8,51.6,29.26,ESE,112,0.0,0.0,86,0.00,,,0.00,VWS V14.01,2013-08-16 10:16:00,
2013-08-16 06:17:00,55.6,51.5,29.26,ESE,112,0.0,0.0,86,0.00,,,0.00,VWS V14.01,2013-08-16 10:17:00,
2013-08-16 06:18:00,55.9,51.8,29.26,ESE,112,0.9,1.1,86,0.00,,,0.00,VWS V14.01,2013-08-16 10:18:00,
2013-08-16 06:19:00,55.6,51.5,29.26,ESE,112,0.0,0.0,86,0.00,,,0.00,VWS V14.01,2013-08-16 10:19:00,
2013-08-16 06:20:00,55.6,51.5,29.26,ESE,112,0.0,0.0,86,0.00,,,0.00,VWS V14.01,2013-08-16 10:20:00,
2013-08-16 06:21:00,55.8,51.6,29.26,ESE,112,0.0,0.0,86,0.00,,,0.00,VWS V14.01,2013-08-16 10:21:00,
2013-08-16 06:22:00,55.6,51.5,29.26,ESE,112,1.3,1.3,86,0.00,,,0.00,VWS V14.01,2013-08-16 10:22:00,
2013-08-16 06:23:00,55.6,51.5,29.26,ESE,112,0.0,0.0,86,0.00,,,0.00,VWS V14.01,2013-08-16 10:23:00,
2013-08-16 06:24:00,55.6,51.5,29.26,East,90,1.3,1.3,86,0.00,,,0.00,VWS V14.01,2013-08-16 10:24:00,
2013-08-16 06:25:00,55.6,51.5,29.26,East,90,1.1,1.3,86,0.00,,,0.00,VWS V14.01,2013-08-16 10:25:00,
2013-08-16 06:26:00,55.6,51.5,29.26,East,90,0.0,1.1,86,0.00,,,0.00,VWS V14.01,2013-08-16 10:26:00,
2013-08-16 06:27:00,55.6,51.5,29.26,ESE,112,0.0,0.0,86,0.00,,,0.00,VWS V14.01,2013-08-16 10:27:00,
2013-08-16 06:28:00,55.6,51.5,29.26,East,90,0.9,1.6,86,0.00,,,0.00,VWS V14.01,2013-08-16 10:28:00,
2013-08-16 06:29:00,55.4,51.3,29.26,SE,135,0.0,0.0,86,0.00,,,0.00,VWS V14.01,2013-08-16 10:29:00,
2013-08-16 06:30:00,55.4,51.3,29.26,SE,135,0.0,0.0,86,0.00,,,0.00,VWS V14.01,2013-08-16 10:30:00,
2013-08-16 06:31:00,55.2,51.1,29.26,SE,135,0.0,0.0,86,0.00,,,0.00,VWS V14.01,2013-08-16 10:31:00,
2013-08-16 06:32:00,55.2,51.1,29.26,SE,135,0.0,0.0,86,0.00,,,0.00,VWS V14.01,2013-08-16 10:32:00,
2013-08-16 06:33:00,55.6,51.5,29.26,SE,135,0.0,0.0,86,0.00,,,0.00,VWS V14.01,2013-08-16 10:33:00,
2013-08-16 06:34:00,55.2,51.1,29.26,SE,135,1.6,2.2,86,0.00,,,0.00,VWS V14.01,2013-08-16 10:34:00,
2013-08-16 06:35:00,55.2,51.1,29.26,SSE,158,1.3,2.2,86,0.00,,,0.00,VWS V14.01,2013-08-16 10:35:00,
2013-08-16 06:36:00,55.4,51.3,29.26,SE,135,0.0,1.3,86,0.00,,,0.00,VWS V14.01,2013-08-16 10:36:00,
2013-08-16 06:37:00,55.2,51.1,29.26,SE,135,0.0,0.0,86,0.00,,,0.00,VWS V14.01,2013-08-16 10:37:00,
2013-08-16 06:38:00,55.2,51.1,29.26,SE,135,0.0,0.0,86,0.00,,,0.00,VWS V14.01,2013-08-16 10:38:00,
2013-08-16 06:39:00,55.0,50.9,29.26,East,90,0.0,1.6,86,0.00,,,0.00,VWS V14.01,2013-08-16 10:39:00,
2013-08-16 06:40:00,55.0,50.9,29.26,ESE,112,0.0,0.0,86,0.00,,,0.00,VWS V14.01,2013-08-16 10:40:00,
2013-08-16 06:41:00,55.0,50.9,29.26,SSW,202,0.0,0.9,86,0.00,,,0.00,VWS V14.01,2013-08-16 10:41:00,
2013-08-16 06:42:00,55.0,50.9,29.26,SSW,202,0.0,0.0,86,0.00,,,0.00,VWS V14.01,2013-08-16 10:42:00,
2013-08-16 06:43:00,55.2,51.1,29.26,East,90,0.9,1.1,86,0.00,,,0.00,VWS V14.01,2013-08-16 10:43:00,
2013-08-16 06:44:00,55.0,50.9,29.26,SE,135,0.0,1.6,86,0.00,,,0.00,VWS V14.01,2013-08-16 10:44:00,
2013-08-16 06:45:00,55.2,51.1,29.26,SSW,202,0.0,0.9,86,0.00,,,0.00,VWS V14.01,2013-08-16 10:45:00,
2013-08-16 06:46:00,55.2,51.1,29.26,South,180,0.0,0.0,86,0.00,,,0.00,VWS V14.01,2013-08-16 10:46:00,
2013-08-16 06:47:00,55.4,51.3,29.26,SSE,158,0.0,0.9,86,0.00,,,0.00,VWS V14.01,2013-08-16 10:47:00,
2013-08-16 06:48:00,55.0,50.6,29.26,South,180,0.0,0.0,85,0.00,,,0.00,VWS V14.01,2013-08-16 10:48:00,
2013-08-16 06:49:00,55.2,51.1,29.26,ESE,112,0.0,0.0,86,0.00,,,0.00,VWS V14.01,2013-08-16 10:49:00,
2013-08-16 06:50:00,55.2,51.1,29.26,ESE,112,0.0,0.0,86,0.00,,,0.00,VWS V14.01,2013-08-16 10:50:00,
2013-08-16 06:51:00,55.0,50.9,29.26,ESE,112,0.0,0.0,86,0.00,,,0.00,VWS V14.01,2013-08-16 10:51:00,
2013-08-16 06:52:00,55.0,50.9,29.26,SE,135,0.0,0.0,86,0.00,,,0.00,VWS V14.01,2013-08-16 10:52:00,
2013-08-16 06:53:00,55.2,51.1,29.26,ESE,112,0.0,0.0,86,0.00,,,0.00,VWS V14.01,2013-08-16 10:53:00,
2013-08-16 06:54:00,55.0,50.9,29.26,SE,135,0.0,0.0,86,0.00,,,0.00,VWS V14.01,2013-08-16 10:54:00,
2013-08-16 06:55:00,54.9,50.8,29.26,SE,135,0.0,0.0,86,0.00,,,0.00,VWS V14.01,2013-08-16 10:55:00,
2013-08-16 06:56:00,54.9,50.8,29.26,SE,135,0.0,0.0,86,0.00,,,0.00,VWS V14.01,2013-08-16 10:56:00,
2013-08-16 06:57:00,54.7,50.3,29.26,SE,135,0.0,0.0,85,0.00,,,0.00,VWS V14.01,2013-08-16 10:57:00,
2013-08-16 06:58:00,55.0,50.9,29.26,SE,135,0.0,0.0,86,0.00,,,0.00,VWS V14.01,2013-08-16 10:58:00,
2013-08-16 06:59:00,54.5,50.1,29.26,SE,135,0.0,0.0,85,0.00,,,0.00,VWS V14.01,2013-08-16 10:59:00,
2013-08-16 07:00:00,54.5,50.1,29.26,East,90,1.6,1.6,85,0.00,,,0.00,VWS V14.01,2013-08-16 11:00:00,
2013-08-16 07:01:00,54.5,50.1,29.29,East,90,1.1,1.6,85,0.00,,,0.00,VWS V14.01,2013-08-16 11:01:00,
2013-08-16 07:02:00,54.3,49.9,29.29,ENE,68,2.2,2.5,85,0.00,,,0.00,VWS V14.01,2013-08-16 11:02:00,
2013-08-16 07:03:00,54.5,50.1,29.29,ENE,68,1.6,2.2,85,0.00,,,0.00,VWS V14.01,2013-08-16 11:03:00,
2013-08-16 07:04:00,54.7,50.3,29.26,SE,135,0.0,0.0,85,0.00,,,0.00,VWS V14.01,2013-08-16 11:04:00,
2013-08-16 07:05:00,54.5,50.4,29.29,ESE,112,2.2,2.2,86,0.00,,,0.00,VWS V14.01,2013-08-16 11:05:00,
2013-08-16 07:06:00,54.9,50.8,29.29,ESE,112,0.0,2.2,86,0.00,,,0.00,VWS V14.01,2013-08-16 11:06:00,
2013-08-16 07:07:00,54.9,50.8,29.29,ESE,112,0.0,0.0,86,0.00,,,0.00,VWS V14.01,2013-08-16 11:07:00,
2013-08-16 07:08:00,55.0,51.2,29.29,SE,135,0.0,0.0,87,0.00,,,0.00,VWS V14.01,2013-08-16 11:08:00,
2013-08-16 07:09:00,54.5,50.1,29.29,ENE,68,1.6,1.6,85,0.00,,,0.00,VWS V14.01,2013-08-16 11:09:00,
2013-08-16 07:10:00,55.2,51.4,29.29,South,180,1.3,1.3,87,0.00,,,0.00,VWS V14.01,2013-08-16 11:10:00,
2013-08-16 07:11:00,55.4,51.6,29.29,South,180,0.0,1.3,87,0.00,,,0.00,VWS V14.01,2013-08-16 11:11:00,
2013-08-16 07:12:00,55.4,51.6,29.29,South,180,0.0,2.0,87,0.00,,,0.00,VWS V14.01,2013-08-16 11:12:00,
2013-08-16 07:13:00,55.6,51.8,29.29,South,180,0.0,1.3,87,0.00,,,0.00,VWS V14.01,2013-08-16 11:13:00,
2013-08-16 07:14:00,55.0,51.2,29.29,SE,135,0.0,0.0,87,0.00,,,0.00,VWS V14.01,2013-08-16 11:14:00,
2013-08-16 07:15:00,55.4,51.6,29.29,ESE,112,0.0,0.0,87,0.00,,,0.00,VWS V14.01,2013-08-16 11:15:00,
2013-08-16 07:16:00,55.6,51.8,29.29,SE,135,0.0,1.1,87,0.00,,,0.00,VWS V14.01,2013-08-16 11:16:00,
2013-08-16 07:17:00,55.6,51.8,29.29,SE,135,0.0,0.0,87,0.00,,,0.00,VWS V14.01,2013-08-16 11:17:00,
2013-08-16 07:18:00,55.6,51.8,29.29,ESE,112,0.9,0.9,87,0.00,,,0.00,VWS V14.01,2013-08-16 11:18:00,
2013-08-16 07:19:00,55.6,51.8,29.29,South,180,0.0,0.0,87,0.00,,,0.00,VWS V14.01,2013-08-16 11:19:00,
2013-08-16 07:20:00,55.8,52.0,29.29,SSE,158,0.9,1.1,87,0.00,,,0.00,VWS V14.01,2013-08-16 11:20:00,
2013-08-16 07:21:00,55.9,52.1,29.29,SSE,158,0.9,0.9,87,0.00,,,0.00,VWS V14.01,2013-08-16 11:21:00,
2013-08-16 07:22:00,55.9,52.1,29.29,SSE,158,0.0,0.9,87,0.00,,,0.00,VWS V14.01,2013-08-16 11:22:00,
2013-08-16 07:23:00,55.9,52.4,29.29,SSE,158,0.0,0.0,88,0.00,,,0.00,VWS V14.01,2013-08-16 11:23:00,
2013-08-16 07:24:00,55.6,51.8,29.29,ESE,112,0.0,0.9,87,0.00,,,0.00,VWS V14.01,2013-08-16 11:24:00,
2013-08-16 07:25:00,56.1,52.6,29.29,SSE,158,1.1,1.1,88,0.00,,,0.00,VWS V14.01,2013-08-16 11:25:00,
2013-08-16 07:26:00,56.1,52.6,29.29,South,180,1.1,1.3,88,0.00,,,0.00,VWS V14.01,2013-08-16 11:26:00,
2013-08-16 07:27:00,56.1,52.6,29.29,South,180,0.0,1.1,88,0.00,,,0.00,VWS V14.01,2013-08-16 11:27:00,
2013-08-16 07:28:00,56.1,52.6,29.29,South,180,0.0,0.0,88,0.00,,,0.00,VWS V14.01,2013-08-16 11:28:00,
2013-08-16 07:29:00,55.9,52.4,29.29,SSE,158,0.0,0.0,88,0.00,,,0.00,VWS V14.01,2013-08-16 11:29:00,
2013-08-16 07:30:00,55.9,52.1,29.29,ESE,112,1.3,1.3,87,0.00,,,0.00,VWS V14.01,2013-08-16 11:30:00,
2013-08-16 07:31:00,55.9,52.1,29.29,ESE,112,0.0,1.3,87,0.00,,,0.00,VWS V14.01,2013-08-16 11:31:00,
2013-08-16 07:32:00,55.9,52.1,29.29,ESE,112,0.9,1.3,87,0.00,,,0.00,VWS V14.01,2013-08-16 11:32:00,
2013-08-16 07:33:00,55.9,52.1,29.29,ESE,112,0.9,2.0,87,0.00,,,0.00,VWS V14.01,2013-08-16 11:33:00,
2013-08-16 07:34:00,56.1,52.6,29.29,South,180,0.0,0.0,88,0.00,,,0.00,VWS V14.01,2013-08-16 11:34:00,
2013-08-16 07:35:00,55.9,52.1,29.29,East,90,1.6,2.5,87,0.00,,,0.00,VWS V14.01,2013-08-16 11:35:00,
2013-08-16 07:36:00,55.9,52.1,29.29,East,90,1.3,2.2,87,0.00,,,0.00,VWS V14.01,2013-08-16 11:36:00,
2013-08-16 07:37:00,55.9,52.1,29.29,ESE,112,1.3,2.5,87,0.00,,,0.00,VWS V14.01,2013-08-16 11:37:00,
2013-08-16 07:38:00,55.9,52.1,29.29,East,90,1.3,1.6,87,0.00,,,0.00,VWS V14.01,2013-08-16 11:38:00,
2013-08-16 07:39:00,55.9,52.1,29.29,East,90,1.3,1.3,87,0.00,,,0.00,VWS V14.01,2013-08-16 11:39:00,
2013-08-16 07:40:00,55.9,52.1,29.29,East,90,1.3,1.3,87,0.00,,,0.00,VWS V14.01,2013-08-16 11:40:00,
2013-08-16 07:41:00,56.1,52.3,29.29,East,90,0.0,1.3,87,0.00,,,0.00,VWS V14.01,2013-08-16 11:41:00,
2013-08-16 07:42:00,56.1,52.3,29.29,East,90,1.1,1.1,87,0.00,,,0.00,VWS V14.01,2013-08-16 11:42:00,
2013-08-16 07:43:00,56.1,52.3,29.29,East,90,0.0,1.3,87,0.00,,,0.00,VWS V14.01,2013-08-16 11:43:00,
2013-08-16 07:44:00,55.9,52.1,29.29,East,90,1.3,1.3,87,0.00,,,0.00,VWS V14.01,2013-08-16 11:44:00,
2013-08-16 07:45:00,56.1,52.3,29.29,East,90,0.0,1.6,87,0.00,,,0.00,VWS V14.01,2013-08-16 11:45:00,
2013-08-16 07:46:00,56.1,52.3,29.29,East,90,0.9,1.6,87,0.00,,,0.00,VWS V14.01,2013-08-16 11:46:00,
2013-08-16 07:47:00,56.3,52.5,29.32,East,90,0.0,0.9,87,0.00,,,0.00,VWS V14.01,2013-08-16 11:47:00,
2013-08-16 07:48:00,56.3,52.5,29.32,East,90,0.0,0.0,87,0.00,,,0.00,VWS V14.01,2013-08-16 11:48:00,
2013-08-16 07:49:00,56.1,52.3,29.29,East,90,0.0,1.1,87,0.00,,,0.00,VWS V14.01,2013-08-16 11:49:00,
2013-08-16 07:50:00,56.3,52.5,29.32,East,90,0.0,0.0,87,0.00,,,0.00,VWS V14.01,2013-08-16 11:50:00,
2013-08-16 07:51:00,56.3,52.5,29.32,East,90,0.0,0.0,87,0.00,,,0.00,VWS V14.01,2013-08-16 11:51:00,
2013-08-16 07:52:00,56.3,52.5,29.32,East,90,0.0,0.0,87,0.00,,,0.00,VWS V14.01,2013-08-16 11:52:00,
2013-08-16 07:53:00,56.5,52.7,29.32,East,90,0.0,0.0,87,0.00,,,0.00,VWS V14.01,2013-08-16 11:53:00,
2013-08-16 07:54:00,56.3,52.5,29.32,East,90,0.0,0.0,87,0.00,,,0.00,VWS V14.01,2013-08-16 11:54:00,
2013-08-16 07:55:00,56.5,53.0,29.32,East,90,0.0,0.0,88,0.00,,,0.00,VWS V14.01,2013-08-16 11:55:00,
2013-08-16 07:56:00,56.5,53.0,29.32,East,90,0.9,0.9,88,0.00,,,0.00,VWS V14.01,2013-08-16 11:56:00,
2013-08-16 07:57:00,56.5,53.0,29.32,East,90,0.0,0.9,88,0.00,,,0.00,VWS V14.01,2013-08-16 11:57:00,
2013-08-16 07:58:00,56.7,53.2,29.32,East,90,0.0,0.0,88,0.00,,,0.00,VWS V14.01,2013-08-16 11:58:00,
2013-08-16 07:59:00,56.5,52.7,29.32,East,90,0.0,0.0,87,0.00,,,0.00,VWS V14.01,2013-08-16 11:59:00,
2013-08-16 08:00:00,56.7,53.2,29.32,East,90,0.0,0.0,88,0.00,,,0.00,VWS V14.01,2013-08-16 12:00:00,
2013-08-16 08:01:00,56.7,53.2,29.32,East,90,0.0,0.0,88,0.00,,,0.00,VWS V14.01,2013-08-16 12:01:00,
2013-08-16 08:02:00,56.8,53.3,29.32,East,90,0.0,0.0,88,0.00,,,0.00,VWS V14.01,2013-08-16 12:02:00,
2013-08-16 08:03:00,56.8,53.3,29.32,ESE,112,0.0,0.0,88,0.00,,,0.00,VWS V14.01,2013-08-16 12:03:00,
2013-08-16 08:04:00,56.7,53.2,29.32,East,90,0.0,0.0,88,0.00,,,0.00,VWS V14.01,2013-08-16 12:04:00,
2013-08-16 08:05:00,57.0,53.5,29.32,SW,225,0.0,0.0,88,0.00,,,0.00,VWS V14.01,2013-08-16 12:05:00,
2013-08-16 08:06:00,57.2,53.7,29.32,SSE,158,1.3,2.5,88,0.00,,,0.00,VWS V14.01,2013-08-16 12:06:00,
2013-08-16 08:07:00,57.4,53.9,29.32,SSE,158,1.3,1.3,88,0.00,,,0.00,VWS V14.01,2013-08-16 12:07:00,
2013-08-16 08:08:00,57.6,54.3,29.32,SSE,158,1.3,1.3,89,0.00,,,0.00,VWS V14.01,2013-08-16 12:08:00,
2013-08-16 08:09:00,57.0,53.5,29.32,ESE,112,0.0,0.0,88,0.00,,,0.00,VWS V14.01,2013-08-16 12:09:00,
2013-08-16 08:10:00,57.6,54.3,29.32,East,90,0.0,1.3,89,0.00,,,0.00,VWS V14.01,2013-08-16 12:10:00,
2013-08-16 08:11:00,57.7,54.5,29.32,ESE,112,0.0,0.0,89,0.00,,,0.00,VWS V14.01,2013-08-16 12:11:00,
2013-08-16 08:12:00,57.9,54.7,29.32,SSE,158,0.9,0.9,89,0.00,,,0.00,VWS V14.01,2013-08-16 12:12:00,
2013-08-16 08:13:00,57.9,54.7,29.32,SSE,158,0.0,1.3,89,0.00,,,0.00,VWS V14.01,2013-08-16 12:13:00,
2013-08-16 08:14:00,57.6,54.3,29.32,SE,135,0.9,1.3,89,0.00,,,0.00,VWS V14.01,2013-08-16 12:14:00,
2013-08-16 08:15:00,58.3,55.1,29.32,South,180,1.1,1.1,89,0.00,,,0.00,VWS V14.01,2013-08-16 12:15:00,
2013-08-16 08:16:00,58.3,55.1,29.32,South,180,0.0,1.1,89,0.00,,,0.00,VWS V14.01,2013-08-16 12:16:00,
2013-08-16 08:17:00,58.5,55.2,29.32,South,180,0.0,0.0,89,0.00,,,0.00,VWS V14.01,2013-08-16 12:17:00,
2013-08-16 08:18:00,58.5,55.2,29.32,South,180,0.0,0.0,89,0.00,,,0.00,VWS V14.01,2013-08-16 12:18:00,
2013-08-16 08:19:00,58.1,54.9,29.32,SSE,158,0.0,0.0,89,0.00,,,0.00,VWS V14.01,2013-08-16 12:19:00,
2013-08-16 08:20:00,58.5,55.2,29.32,South,180,0.0,0.0,89,0.00,,,0.00,VWS V14.01,2013-08-16 12:20:00,
2013-08-16 08:21:00,58.6,55.4,29.32,South,180,0.0,0.0,89,0.00,,,0.00,VWS V14.01,2013-08-16 12:21:00,
2013-08-16 08:22:00,58.8,55.6,29.32,South,180,0.0,0.0,89,0.00,,,0.00,VWS V14.01,2013-08-16 12:22:00,
2013-08-16 08:23:00,58.8,55.6,29.32,South,180,0.0,0.0,89,0.00,,,0.00,VWS V14.01,2013-08-16 12:23:00,
2013-08-16 08:24:00,58.5,55.2,29.32,South,180,0.0,0.0,89,0.00,,,0.00,VWS V14.01,2013-08-16 12:24:00,
2013-08-16 08:25:00,59.0,55.5,29.32,South,180,0.0,0.0,88,0.00,,,0.00,VWS V14.01,2013-08-16 12:25:00,
2013-08-16 08:26:00,59.0,55.5,29.32,South,180,0.0,0.0,88,0.00,,,0.00,VWS V14.01,2013-08-16 12:26:00,
2013-08-16 08:27:00,59.2,55.6,29.32,South,180,0.0,0.0,88,0.00,,,0.00,VWS V14.01,2013-08-16 12:27:00,
2013-08-16 08:28:00,59.2,55.6,29.32,South,180,0.0,0.0,88,0.00,,,0.00,VWS V14.01,2013-08-16 12:28:00,
2013-08-16 08:29:00,58.8,55.3,29.32,South,180,0.0,0.0,88,0.00,,,0.00,VWS V14.01,2013-08-16 12:29:00,
2013-08-16 08:30:00,59.4,55.8,29.32,South,180,0.0,0.0,88,0.00,,,0.00,VWS V14.01,2013-08-16 12:30:00,
2013-08-16 08:31:00,59.5,56.0,29.32,South,180,0.0,0.0,88,0.00,,,0.00,VWS V14.01,2013-08-16 12:31:00,
2013-08-16 08:32:00,59.5,56.0,29.32,South,180,0.0,0.0,88,0.00,,,0.00,VWS V14.01,2013-08-16 12:32:00,
2013-08-16 08:33:00,59.7,56.2,29.32,South,180,0.9,0.9,88,0.00,,,0.00,VWS V14.01,2013-08-16 12:33:00,
2013-08-16 08:34:00,59.4,55.8,29.32,South,180,0.0,0.0,88,0.00,,,0.00,VWS V14.01,2013-08-16 12:34:00,
2013-08-16 08:35:00,59.9,56.3,29.32,South,180,0.0,1.1,88,0.00,,,0.00,VWS V14.01,2013-08-16 12:35:00,
2013-08-16 08:36:00,60.1,56.5,29.32,South,180,0.0,0.0,88,0.00,,,0.00,VWS V14.01,2013-08-16 12:36:00,
2013-08-16 08:37:00,60.3,56.7,29.32,South,180,0.0,0.0,88,0.00,,,0.00,VWS V14.01,2013-08-16 12:37:00,
2013-08-16 08:38:00,60.4,56.9,29.32,SSE,158,2.0,2.0,88,0.00,,,0.00,VWS V14.01,2013-08-16 12:38:00,
2013-08-16 08:39:00,59.7,56.2,29.32,South,180,0.0,0.9,88,0.00,,,0.00,VWS V14.01,2013-08-16 12:39:00,
2013-08-16 08:40:00,60.8,57.2,29.32,SSW,202,2.7,2.7,88,0.00,,,0.00,VWS V14.01,2013-08-16 12:40:00,
2013-08-16 08:41:00,61.0,57.4,29.32,SSW,202,2.5,2.7,88,0.00,,,0.00,VWS V14.01,2013-08-16 12:41:00,
2013-08-16 08:42:00,61.3,57.8,29.32,SSE,158,1.6,2.5,88,0.00,,,0.00,VWS V14.01,2013-08-16 12:42:00,
2013-08-16 08:43:00,61.5,57.9,29.32,SSE,158,0.0,2.2,88,0.00,,,0.00,VWS V14.01,2013-08-16 12:43:00,
2013-08-16 08:44:00,60.6,57.0,29.32,SSE,158,1.1,2.0,88,0.00,,,0.00,VWS V14.01,2013-08-16 12:44:00,
2013-08-16 08:45:00,62.2,59.0,29.32,South,180,0.0,1.3,89,0.00,,,0.00,VWS V14.01,2013-08-16 12:45:00,
2013-08-16 08:46:00,62.2,59.0,29.32,South,180,0.0,0.0,89,0.00,,,0.00,VWS V14.01,2013-08-16 12:46:00,
2013-08-16 08:47:00,62.6,59.3,29.32,SSW,202,0.0,0.0,89,0.00,,,0.00,VWS V14.01,2013-08-16 12:47:00,
2013-08-16 08:48:00,62.8,59.5,29.32,SSW,202,1.1,1.1,89,0.00,,,0.00,VWS V14.01,2013-08-16 12:48:00,
2013-08-16 08:49:00,61.7,58.4,29.32,South,180,2.0,2.0,89,0.00,,,0.00,VWS V14.01,2013-08-16 12:49:00,
2013-08-16 08:50:00,63.0,59.7,29.32,SW,225,2.2,2.2,89,0.00,,,0.00,VWS V14.01,2013-08-16 12:50:00,
2013-08-16 08:51:00,63.1,59.8,29.32,SW,225,1.1,2.2,89,0.00,,,0.00,VWS V14.01,2013-08-16 12:51:00,
2013-08-16 08:52:00,63.5,60.2,29.32,SW,225,1.1,2.0,89,0.00,,,0.00,VWS V14.01,2013-08-16 12:52:00,
2013-08-16 08:53:00,63.5,60.2,29.32,SW,225,1.3,2.0,89,0.00,,,0.00,VWS V14.01,2013-08-16 12:53:00,
2013-08-16 08:54:00,62.8,59.5,29.32,SSW,202,1.3,1.3,89,0.00,,,0.00,VWS V14.01,2013-08-16 12:54:00,
2013-08-16 08:55:00,63.9,60.9,29.32,SW,225,1.3,2.0,90,0.00,,,0.00,VWS V14.01,2013-08-16 12:55:00,
2013-08-16 08:56:00,63.9,60.9,29.32,SW,225,0.0,1.3,90,0.00,,,0.00,VWS V14.01,2013-08-16 12:56:00,
2013-08-16 08:57:00,64.0,61.0,29.32,SW,225,0.0,0.0,90,0.00,,,0.00,VWS V14.01,2013-08-16 12:57:00,
2013-08-16 08:58:00,64.2,61.2,29.32,SW,225,0.0,0.0,90,0.00,,,0.00,VWS V14.01,2013-08-16 12:58:00,
2013-08-16 08:59:00,63.5,60.2,29.32,SW,225,0.0,1.3,89,0.00,,,0.00,VWS V14.01,2013-08-16 12:59:00,
2013-08-16 09:00:00,64.4,61.1,29.32,SW,225,1.1,1.3,89,0.00,,,0.00,VWS V14.01,2013-08-16 13:00:00,
2013-08-16 09:01:00,64.8,61.5,29.32,SSW,202,0.0,1.1,89,0.00,,,0.00,VWS V14.01,2013-08-16 13:01:00,
2013-08-16 09:02:00,64.9,61.6,29.32,SW,225,1.6,2.2,89,0.00,,,0.00,VWS V14.01,2013-08-16 13:02:00,
2013-08-16 09:03:00,65.1,62.1,29.32,West,270,1.6,1.6,90,0.00,,,0.00,VWS V14.01,2013-08-16 13:03:00,
2013-08-16 09:04:00,64.2,60.9,29.32,SW,225,1.1,1.1,89,0.00,,,0.00,VWS V14.01,2013-08-16 13:04:00,
2013-08-16 09:05:00,65.3,62.0,29.32,SSW,202,0.9,0.9,89,0.00,,,0.00,VWS V14.01,2013-08-16 13:05:00,
2013-08-16 09:06:00,65.3,62.0,29.32,SW,225,2.5,2.5,89,0.00,,,0.00,VWS V14.01,2013-08-16 13:06:00,
2013-08-16 09:07:00,65.5,62.2,29.32,SW,225,1.1,2.9,89,0.00,,,0.00,VWS V14.01,2013-08-16 13:07:00,
2013-08-16 09:08:00,65.7,62.0,29.32,SW,225,1.6,2.2,88,0.00,,,0.00,VWS V14.01,2013-08-16 13:08:00,
2013-08-16 09:09:00,65.1,62.1,29.32,WSW,248,0.0,1.6,90,0.00,,,0.00,VWS V14.01,2013-08-16 13:09:00,
2013-08-16 09:10:00,65.7,61.7,29.32,SSW,202,0.0,2.2,87,0.00,,,0.00,VWS V14.01,2013-08-16 13:10:00,
2013-08-16 09:11:00,65.8,61.2,29.32,SSW,202,0.9,0.9,85,0.00,,,0.00,VWS V14.01,2013-08-16 13:11:00,
2013-08-16 09:12:00,66.0,61.4,29.32,SSW,202,0.0,1.6,85,0.00,,,0.00,VWS V14.01,2013-08-16 13:12:00,
2013-08-16 09:13:00,66.0,61.4,29.32,SW,225,1.1,1.3,85,0.00,,,0.00,VWS V14.01,2013-08-16 13:13:00,
2013-08-16 09:14:00,65.7,62.0,29.32,SW,225,1.6,2.0,88,0.00,,,0.00,VWS V14.01,2013-08-16 13:14:00,
2013-08-16 09:15:00,66.4,61.1,29.32,SW,225,2.0,2.5,83,0.00,,,0.00,VWS V14.01,2013-08-16 13:15:00,
2013-08-16 09:16:00,66.6,60.9,29.32,SW,225,0.0,2.2,82,0.00,,,0.00,VWS V14.01,2013-08-16 13:16:00,
2013-08-16 09:17:00,66.7,60.7,29.32,SW,225,0.0,0.9,81,0.00,,,0.00,VWS V14.01,2013-08-16 13:17:00,
2013-08-16 09:18:00,66.9,60.9,29.32,WSW,248,2.2,2.2,81,0.00,,,0.00,VWS V14.01,2013-08-16 13:18:00,
2013-08-16 09:19:00,66.4,61.4,29.32,SW,225,2.5,2.5,84,0.00,,,0.00,VWS V14.01,2013-08-16 13:19:00,
2013-08-16 09:20:00,67.3,61.3,29.32,SW,225,1.3,1.3,81,0.00,,,0.00,VWS V14.01,2013-08-16 13:20:00,
2013-08-16 09:21:00,67.5,61.1,29.32,SW,225,0.0,1.3,80,0.00,,,0.00,VWS V14.01,2013-08-16 13:21:00,
2013-08-16 09:22:00,67.6,61.3,29.32,SW,225,1.6,2.0,80,0.00,,,0.00,VWS V14.01,2013-08-16 13:22:00,
2013-08-16 09:23:00,68.0,61.6,29.32,WSW,248,1.1,2.0,80,0.00,,,0.00,VWS V14.01,2013-08-16 13:23:00,
2013-08-16 09:24:00,67.1,61.1,29.32,WSW,248,0.0,2.2,81,0.00,,,0.00,VWS V14.01,2013-08-16 13:24:00,
2013-08-16 09:25:00,68.2,61.8,29.32,SW,225,1.3,1.6,80,0.00,,,0.00,VWS V14.01,2013-08-16 13:25:00,
2013-08-16 09:26:00,68.7,62.0,29.32,WSW,248,1.6,2.0,79,0.00,,,0.00,VWS V14.01,2013-08-16 13:26:00,
2013-08-16 09:27:00,68.9,62.1,29.32,WSW,248,1.3,1.6,79,0.00,,,0.00,VWS V14.01,2013-08-16 13:27:00,
2013-08-16 09:28:00,69.1,61.9,29.32,WSW,248,0.0,1.3,78,0.00,,,0.00,VWS V14.01,2013-08-16 13:28:00,
2013-08-16 09:29:00,68.2,61.8,29.32,SW,225,1.6,2.2,80,0.00,,,0.00,VWS V14.01,2013-08-16 13:29:00,
2013-08-16 09:30:00,68.9,59.5,29.32,SSW,202,0.0,0.9,72,0.00,,,0.00,VWS V14.01,2013-08-16 13:30:00,
2013-08-16 09:31:00,68.9,59.9,29.32,SSW,202,0.0,1.3,73,0.00,,,0.00,VWS V14.01,2013-08-16 13:31:00,
2013-08-16 09:32:00,69.1,60.5,29.32,SSW,202,2.0,2.0,74,0.00,,,0.00,VWS V14.01,2013-08-16 13:32:00,
2013-08-16 09:33:00,69.3,59.9,29.32,SSW,202,0.0,2.0,72,0.00,,,0.00,VWS V14.01,2013-08-16 13:33:00,
2013-08-16 09:34:00,68.7,59.3,29.32,SSW,202,0.0,0.9,72,0.00,,,0.00,VWS V14.01,2013-08-16 13:34:00,
2013-08-16 09:35:00,69.8,60.4,29.32,SSW,202,0.0,0.0,72,0.00,,,0.00,VWS V14.01,2013-08-16 13:35:00,
2013-08-16 09:36:00,70.2,61.1,29.32,West,270,0.9,2.0,73,0.00,,,0.00,VWS V14.01,2013-08-16 13:36:00,
2013-08-16 09:37:00,70.3,60.5,29.32,WSW,248,2.0,2.5,71,0.00,,,0.00,VWS V14.01,2013-08-16 13:37:00,
2013-08-16 09:38:00,70.5,60.7,29.32,WSW,248,2.0,2.0,71,0.00,,,0.00,VWS V14.01,2013-08-16 13:38:00,
2013-08-16 09:39:00,69.6,60.6,29.32,SSW,202,0.0,0.0,73,0.00,,,0.00,VWS V14.01,2013-08-16 13:39:00,
2013-08-16 09:40:00,70.9,60.6,29.32,WSW,248,1.1,2.5,70,0.00,,,0.00,VWS V14.01,2013-08-16 13:40:00,
2013-08-16 09:41:00,71.1,60.4,29.32,WSW,248,1.6,1.6,69,0.00,,,0.00,VWS V14.01,2013-08-16 13:41:00,
2013-08-16 09:42:00,71.2,60.2,29.32,WSW,248,0.0,1.6,68,0.00,,,0.00,VWS V14.01,2013-08-16 13:42:00,
2013-08-16 09:43:00,71.6,60.1,29.32,WSW,248,0.0,0.0,67,0.00,,,0.00,VWS V14.01,2013-08-16 13:43:00,
2013-08-16 09:44:00,70.7,60.8,29.32,WSW,248,2.5,2.5,71,0.00,,,0.00,VWS V14.01,2013-08-16 13:44:00,
2013-08-16 09:45:00,72.0,60.0,29.32,WSW,248,2.2,2.5,66,0.00,,,0.00,VWS V14.01,2013-08-16 13:45:00,
2013-08-16 09:46:00,72.1,60.2,29.32,WSW,248,2.2,2.2,66,0.00,,,0.00,VWS V14.01,2013-08-16 13:46:00,
2013-08-16 09:47:00,72.3,59.9,29.32,West,270,0.9,2.2,65,0.00,,,0.00,VWS V14.01,2013-08-16 13:47:00,
2013-08-16 09:48:00,72.5,59.6,29.32,West,270,1.1,1.1,64,0.00,,,0.00,VWS V14.01,2013-08-16 13:48:00,
2013-08-16 09:49:00,72.5,58.3,29.32,West,270,0.0,1.1,61,0.00,,,0.00,VWS V14.01,2013-08-16 13:49:00,
2013-08-16 09:50:00,72.0,60.4,29.32,WSW,248,2.2,2.5,67,0.00,,,0.00,VWS V14.01,2013-08-16 13:50:00,
2013-08-16 09:51:00,72.7,59.4,29.32,SW,225,0.0,0.0,63,0.00,,,0.00,VWS V14.01,2013-08-16 13:51:00,
2013-08-16 09:52:00,72.7,58.5,29.32,East,90,2.5,2.5,61,0.00,,,0.00,VWS V14.01,2013-08-16 13:52:00,
2013-08-16 09:53:00,73.0,59.3,29.32,East,90,2.0,2.5,62,0.00,,,0.00,VWS V14.01,2013-08-16 13:53:00,
2013-08-16 09:54:00,73.0,59.3,29.32,East,90,0.0,2.0,62,0.00,,,0.00,VWS V14.01,2013-08-16 13:54:00,
2013-08-16 09:55:00,72.5,58.3,29.32,West,270,0.0,0.0,61,0.00,,,0.00,VWS V14.01,2013-08-16 13:55:00,
2013-08-16 09:56:00,73.2,57.1,29.32,East,90,0.0,1.1,57,0.00,,,0.00,VWS V14.01,2013-08-16 13:56:00,
2013-08-16 09:57:00,73.2,55.1,29.32,East,90,2.5,2.5,53,0.00,,,0.00,VWS V14.01,2013-08-16 13:57:00,
2013-08-16 09:58:00,73.0,54.4,29.32,SE,135,1.1,3.1,52,0.00,,,0.00,VWS V14.01,2013-08-16 13:58:00,
2013-08-16 09:59:00,73.2,52.9,29.32,SE,135,1.3,1.3,49,0.00,,,0.00,VWS V14.01,2013-08-16 13:59:00,
2013-08-16 10:00:00,73.0,59.3,29.32,East,90,0.0,0.0,62,0.00,,,0.00,VWS V14.01,2013-08-16 14:00:00,
2013-08-16 10:01:00,73.6,54.4,29.32,East,90,1.1,2.0,51,0.00,,,0.00,VWS V14.01,2013-08-16 14:01:00,
2013-08-16 10:02:00,73.8,53.4,29.32,East,90,0.0,2.5,49,0.00,,,0.00,VWS V14.01,2013-08-16 14:02:00,
2013-08-16 10:03:00,74.1,54.8,29.32,East,90,0.0,0.0,51,0.00,,,0.00,VWS V14.01,2013-08-16 14:03:00,
2013-08-16 10:04:00,74.5,55.2,29.32,East,90,0.9,0.9,51,0.00,,,0.00,VWS V14.01,2013-08-16 14:04:00,
2013-08-16 10:05:00,73.4,53.1,29.32,SE,135,1.3,1.3,49,0.00,,,0.00,VWS V14.01,2013-08-16 14:05:00,
2013-08-16 10:06:00,74.8,56.0,29.32,NE,45,0.0,2.5,52,0.00,,,0.00,VWS V14.01,2013-08-16 14:06:00,
2013-08-16 10:07:00,74.7,53.1,29.32,NE,45,0.0,0.0,47,0.00,,,0.00,VWS V14.01,2013-08-16 14:07:00,
2013-08-16 10:08:00,74.7,53.1,29.32,NE,45,0.0,0.0,47,0.00,,,0.00,VWS V14.01,2013-08-16 14:08:00,
2013-08-16 10:09:00,75.0,55.1,29.32,NE,45,2.0,2.0,50,0.00,,,0.00,VWS V14.01,2013-08-16 14:09:00,
2013-08-16 10:10:00,74.5,55.2,29.32,East,90,0.0,0.9,51,0.00,,,0.00,VWS V14.01,2013-08-16 14:10:00,
2013-08-16 10:11:00,74.7,53.7,29.32,ESE,112,2.2,3.8,48,0.00,,,0.00,VWS V14.01,2013-08-16 14:11:00,
2013-08-16 10:12:00,74.7,54.2,29.32,ESE,112,1.1,2.2,49,0.00,,,0.00,VWS V14.01,2013-08-16 14:12:00,
2013-08-16 10:13:00,74.7,54.2,29.32,ESE,112,2.2,2.2,49,0.00,,,0.00,VWS V14.01,2013-08-16 14:13:00,
2013-08-16 10:14:00,74.7,54.2,29.32,ESE,112,1.3,2.2,49,0.00,,,0.00,VWS V14.01,2013-08-16 14:14:00,
2013-08-16 10:15:00,75.0,55.1,29.32,NE,45,2.0,2.0,50,0.00,,,0.00,VWS V14.01,2013-08-16 14:15:00,
2013-08-16 10:16:00,75.7,52.3,29.32,ESE,112,0.0,2.5,44,0.00,,,0.00,VWS V14.01,2013-08-16 14:16:00,
2013-08-16 10:17:00,75.6,52.8,29.32,East,90,3.4,3.4,45,0.00,,,0.00,VWS V14.01,2013-08-16 14:17:00,
2013-08-16 10:18:00,75.6,52.8,29.32,East,90,1.3,3.4,45,0.00,,,0.00,VWS V14.01,2013-08-16 14:18:00,
2013-08-16 10:19:00,76.1,52.6,29.32,East,90,0.0,1.3,44,0.00,,,0.00,VWS V14.01,2013-08-16 14:19:00,
2013-08-16 10:20:00,74.7,54.2,29.32,ESE,112,1.3,1.3,49,0.00,,,0.00,VWS V14.01,2013-08-16 14:20:00,
2013-08-16 10:21:00,76.5,52.3,29.32,East,90,2.0,2.0,43,0.00,,,0.00,VWS V14.01,2013-08-16 14:21:00,
2013-08-16 10:22:00,76.6,53.1,29.32,East,90,2.0,2.0,44,0.00,,,0.00,VWS V14.01,2013-08-16 14:22:00,
2013-08-16 10:23:00,76.6,51.8,29.32,East,90,1.3,2.7,42,0.00,,,0.00,VWS V14.01,2013-08-16 14:23:00,
2013-08-16 10:24:00,76.8,52.7,29.32,East,90,1.1,2.7,43,0.00,,,0.00,VWS V14.01,2013-08-16 14:24:00,
2013-08-16 10:25:00,76.3,52.8,29.32,East,90,1.1,1.1,44,0.00,,,0.00,VWS V14.01,2013-08-16 14:25:00,
2013-08-16 10:26:00,77.4,52.5,29.32,East,90,1.6,1.6,42,0.00,,,0.00,VWS V14.01,2013-08-16 14:26:00,
2013-08-16 10:27:00,77.4,52.5,29.32,East,90,1.1,1.6,42,0.00,,,0.00,VWS V14.01,2013-08-16 14:27:00,
2013-08-16 10:28:00,76.3,50.2,29.32,East,90,1.3,2.0,40,0.00,,,0.00,VWS V14.01,2013-08-16 14:28:00,
2013-08-16 10:29:00,75.9,48.5,29.32,East,90,0.0,1.3,38,0.00,,,0.00,VWS V14.01,2013-08-16 14:29:00,
2013-08-16 10:30:00,76.8,52.7,29.32,East,90,0.0,1.1,43,0.00,,,0.00,VWS V14.01,2013-08-16 14:30:00,
2013-08-16 10:31:00,77.0,51.5,29.32,East,90,0.9,1.1,41,0.00,,,0.00,VWS V14.01,2013-08-16 14:31:00,
2013-08-16 10:32:00,77.0,50.8,29.32,East,90,2.2,2.9,40,0.00,,,0.00,VWS V14.01,2013-08-16 14:32:00,
2013-08-16 10:33:00,77.4,51.2,29.32,East,90,0.0,2.2,40,0.00,,,0.00,VWS V14.01,2013-08-16 14:33:00,
2013-08-16 10:34:00,77.7,50.8,29.32,East,90,1.3,1.3,39,0.00,,,0.00,VWS V14.01,2013-08-16 14:34:00,
2013-08-16 10:35:00,76.3,50.9,29.32,East,90,0.0,0.0,41,0.00,,,0.00,VWS V14.01,2013-08-16 14:35:00,
2013-08-16 10:36:00,78.3,52.0,29.32,East,90,1.3,1.6,40,0.00,,,0.00,VWS V14.01,2013-08-16 14:36:00,
2013-08-16 10:37:00,78.3,51.3,29.32,East,90,1.6,2.5,39,0.00,,,0.00,VWS V14.01,2013-08-16 14:37:00,
2013-08-16 10:38:00,78.4,51.5,29.32,East,90,1.6,2.0,39,0.00,,,0.00,VWS V14.01,2013-08-16 14:38:00,
2013-08-16 10:39:00,78.4,51.5,29.32,East,90,1.3,2.0,39,0.00,,,0.00,VWS V14.01,2013-08-16 14:39:00,
2013-08-16 10:40:00,78.1,51.8,29.32,East,90,0.0,1.3,40,0.00,,,0.00,VWS V14.01,2013-08-16 14:40:00,
2013-08-16 10:41:00,78.4,49.3,29.32,East,90,0.0,0.0,36,0.00,,,0.00,VWS V14.01,2013-08-16 14:41:00,
2013-08-16 10:42:00,78.3,49.9,29.32,East,90,2.7,2.7,37,0.00,,,0.00,VWS V14.01,2013-08-16 14:42:00,
2013-08-16 10:43:00,78.1,49.7,29.32,East,90,1.1,2.7,37,0.00,,,0.00,VWS V14.01,2013-08-16 14:43:00,
2013-08-16 10:44:00,78.1,49.0,29.32,East,90,0.0,1.1,36,0.00,,,0.00,VWS V14.01,2013-08-16 14:44:00,
2013-08-16 10:45:00,78.4,51.5,29.32,East,90,1.1,1.3,39,0.00,,,0.00,VWS V14.01,2013-08-16 14:45:00,
2013-08-16 10:46:00,78.3,48.4,29.35,East,90,0.9,2.5,35,0.00,,,0.00,VWS V14.01,2013-08-16 14:46:00,
2013-08-16 10:47:00,78.6,49.5,29.35,East,90,0.0,0.9,36,0.00,,,0.00,VWS V14.01,2013-08-16 14:47:00,
2013-08-16 10:48:00,79.0,49.0,29.35,East,90,1.6,1.6,35,0.00,,,0.00,VWS V14.01,2013-08-16 14:48:00,
2013-08-16 10:49:00,79.3,50.1,29.35,East,90,1.6,1.6,36,0.00,,,0.00,VWS V14.01,2013-08-16 14:49:00,
2013-08-16 10:50:00,77.9,48.8,29.32,East,90,2.5,2.5,36,0.00,,,0.00,VWS V14.01,2013-08-16 14:50:00,
2013-08-16 10:51:00,79.7,49.7,29.35,East,90,2.2,2.5,35,0.00,,,0.00,VWS V14.01,2013-08-16 14:51:00,
2013-08-16 10:52:00,79.7,48.9,29.35,East,90,1.1,2.2,34,0.00,,,0.00,VWS V14.01,2013-08-16 14:52:00,
2013-08-16 10:53:00,79.7,48.1,29.35,East,90,3.1,3.4,33,0.00,,,0.00,VWS V14.01,2013-08-16 14:53:00,
2013-08-16 10:54:00,80.1,48.4,29.35,East,90,1.3,3.1,33,0.00,,,0.00,VWS V14.01,2013-08-16 14:54:00,
2013-08-16 10:55:00,79.3,48.6,29.35,East,90,1.1,1.6,34,0.00,,,0.00,VWS V14.01,2013-08-16 14:55:00,
2013-08-16 10:56:00,80.2,48.5,29.35,East,90,0.0,1.1,33,0.00,,,0.00,VWS V14.01,2013-08-16 14:56:00,
2013-08-16 10:57:00,80.1,47.6,29.35,East,90,0.0,744.7,32,0.00,,,0.00,VWS V14.01,2013-08-16 14:57:00,
2013-08-16 10:58:00,80.1,47.6,29.35,East,90,0.0,744.7,32,0.00,,,0.00,VWS V14.01,2013-08-16 14:58:00,
2013-08-16 10:59:00,80.4,48.7,29.35,East,90,0.0,744.7,33,0.00,,,0.00,VWS V14.01,2013-08-16 14:59:00,
2013-08-16 11:00:00,80.2,48.5,29.35,East,90,0.0,1.3,33,0.00,,,0.00,VWS V14.01,2013-08-16 15:00:00,
2013-08-16 11:01:00,80.8,48.2,29.32,WSW,248,0.0,1.1,32,0.00,,,0.00,VWS V14.01,2013-08-16 15:01:00,
2013-08-16 11:02:00,80.8,48.2,29.32,WSW,248,1.3,1.3,32,0.00,,,0.00,VWS V14.01,2013-08-16 15:02:00,
2013-08-16 11:03:00,80.4,47.9,29.32,WSW,248,1.1,1.3,32,0.00,,,0.00,VWS V14.01,2013-08-16 15:03:00,
2013-08-16 11:04:00,80.4,47.9,29.32,SE,135,2.0,2.7,32,0.00,,,0.00,VWS V14.01,2013-08-16 15:04:00,
2013-08-16 11:05:00,80.4,48.7,29.35,WSW,248,2.2,2.2,33,0.00,,,0.00,VWS V14.01,2013-08-16 15:05:00,
2013-08-16 11:06:00,80.6,48.0,29.32,SE,135,1.3,2.7,32,0.00,,,0.00,VWS V14.01,2013-08-16 15:06:00,
2013-08-16 11:07:00,80.6,48.0,29.32,ENE,68,1.3,2.0,32,0.00,,,0.00,VWS V14.01,2013-08-16 15:07:00,
2013-08-16 11:08:00,81.7,48.1,29.32,ENE,68,2.9,2.9,31,0.00,,,0.00,VWS V14.01,2013-08-16 15:08:00,
2013-08-16 11:09:00,82.0,48.5,29.32,ENE,68,1.6,3.4,31,0.00,,,0.00,VWS V14.01,2013-08-16 15:09:00,
2013-08-16 11:10:00,80.6,48.0,29.32,SE,135,2.7,2.7,32,0.00,,,0.00,VWS V14.01,2013-08-16 15:10:00,
2013-08-16 11:11:00,82.4,47.9,29.32,ENE,68,0.9,1.1,30,0.00,,,0.00,VWS V14.01,2013-08-16 15:11:00,
2013-08-16 11:12:00,82.4,47.9,29.32,ENE,68,1.1,1.1,30,0.00,,,0.00,VWS V14.01,2013-08-16 15:12:00,
2013-08-16 11:13:00,82.2,48.6,29.32,ENE,68,0.9,1.6,31,0.00,,,0.00,VWS V14.01,2013-08-16 15:13:00,
2013-08-16 11:14:00,82.0,48.5,29.32,ENE,68,0.0,1.1,31,0.00,,,0.00,VWS V14.01,2013-08-16 15:14:00,
2013-08-16 11:15:00,82.4,47.9,29.32,ENE,68,0.9,2.0,30,0.00,,,0.00,VWS V14.01,2013-08-16 15:15:00,
2013-08-16 11:16:00,82.2,47.7,29.32,ENE,68,0.0,0.0,30,0.00,,,0.00,VWS V14.01,2013-08-16 15:16:00,
2013-08-16 11:17:00,82.6,48.9,29.32,ENE,68,1.3,3.1,31,0.00,,,0.00,VWS V14.01,2013-08-16 15:17:00,
2013-08-16 11:18:00,82.6,48.0,29.32,ENE,68,2.7,3.1,30,0.00,,,0.00,VWS V14.01,2013-08-16 15:18:00,
2013-08-16 11:19:00,82.4,47.9,29.32,SE,135,1.6,2.7,30,0.00,,,0.00,VWS V14.01,2013-08-16 15:19:00,
2013-08-16 11:20:00,82.2,47.7,29.32,ENE,68,0.0,0.0,30,0.00,,,0.00,VWS V14.01,2013-08-16 15:20:00,
2013-08-16 11:21:00,81.3,47.8,29.32,SE,135,1.6,2.2,31,0.00,,,0.00,VWS V14.01,2013-08-16 15:21:00,
2013-08-16 11:22:00,81.5,48.0,29.32,SE,135,0.0,1.6,31,0.00,,,0.00,VWS V14.01,2013-08-16 15:22:00,
2013-08-16 11:23:00,82.0,47.6,29.32,SE,135,0.0,0.0,30,0.00,,,0.00,VWS V14.01,2013-08-16 15:23:00,
2013-08-16 11:24:00,82.2,48.6,29.32,SE,135,1.1,1.1,31,0.00,,,0.00,VWS V14.01,2013-08-16 15:24:00,
2013-08-16 11:25:00,81.5,47.1,29.32,SE,135,2.2,2.7,30,0.00,,,0.00,VWS V14.01,2013-08-16 15:25:00,
2013-08-16 11:26:00,82.4,48.8,29.32,SE,135,1.3,2.7,31,0.00,,,0.00,VWS V14.01,2013-08-16 15:26:00,
2013-08-16 11:27:00,81.5,48.0,29.32,WSW,248,3.6,4.0,31,0.00,,,0.00,VWS V14.01,2013-08-16 15:27:00,
2013-08-16 11:28:00,80.8,47.4,29.32,WSW,248,2.9,4.3,31,0.00,,,0.00,VWS V14.01,2013-08-16 15:28:00,
2013-08-16 11:29:00,80.8,47.4,29.32,WSW,248,1.1,3.4,31,0.00,,,0.00,VWS V14.01,2013-08-16 15:29:00,
2013-08-16 11:30:00,81.5,48.8,29.32,WSW,248,2.7,2.9,32,0.00,,,0.00,VWS V14.01,2013-08-16 15:30:00,
2013-08-16 11:31:00,82.2,48.6,29.32,SE,135,0.0,0.0,31,0.00,,,0.00,VWS V14.01,2013-08-16 15:31:00,
2013-08-16 11:32:00,81.3,50.3,29.32,WSW,248,0.0,2.9,34,0.00,,,0.00,VWS V14.01,2013-08-16 15:32:00,
2013-08-16 11:33:00,81.5,50.5,29.32,WSW,248,2.7,2.7,34,0.00,,,0.00,VWS V14.01,2013-08-16 15:33:00,
2013-08-16 11:34:00,81.7,50.6,29.32,WSW,248,0.0,2.7,34,0.00,,,0.00,VWS V14.01,2013-08-16 15:34:00,
2013-08-16 11:35:00,82.0,50.9,29.32,WSW,248,0.0,0.0,34,0.00,,,0.00,VWS V14.01,2013-08-16 15:35:00,
2013-08-16 11:36:00,81.5,48.8,29.32,WSW,248,3.1,3.1,32,0.00,,,0.00,VWS V14.01,2013-08-16 15:36:00,
2013-08-16 11:37:00,82.2,50.3,29.32,WNW,292,0.9,3.1,33,0.00,,,0.00,VWS V14.01,2013-08-16 15:37:00,
2013-08-16 11:38:00,82.9,50.9,29.32,WNW,292,0.9,1.3,33,0.00,,,0.00,VWS V14.01,2013-08-16 15:38:00,
2013-08-16 11:39:00,83.1,51.1,29.32,NW,315,2.0,2.0,33,0.00,,,0.00,VWS V14.01,2013-08-16 15:39:00,
2013-08-16 11:40:00,83.1,51.1,29.32,NW,315,0.0,2.0,33,0.00,,,0.00,VWS V14.01,2013-08-16 15:40:00,
2013-08-16 11:41:00,82.0,50.9,29.32,WSW,248,0.0,0.0,34,0.00,,,0.00,VWS V14.01,2013-08-16 15:41:00,
2013-08-16 11:42:00,83.8,50.9,29.32,NW,315,2.0,2.2,32,0.00,,,0.00,VWS V14.01,2013-08-16 15:42:00,
2013-08-16 11:43:00,83.7,51.5,29.32,NW,315,2.0,2.2,33,0.00,,,0.00,VWS V14.01,2013-08-16 15:43:00,
2013-08-16 11:44:00,83.3,49.5,29.32,WSW,248,3.8,3.8,31,0.00,,,0.00,VWS V14.01,2013-08-16 15:44:00,
2013-08-16 11:45:00,82.2,48.6,29.32,West,270,2.7,5.4,31,0.00,,,0.00,VWS V14.01,2013-08-16 15:45:00,
2013-08-16 11:46:00,83.1,51.1,29.32,NW,315,0.0,0.0,33,0.00,,,0.00,VWS V14.01,2013-08-16 15:46:00,
2013-08-16 11:47:00,81.5,48.0,29.32,West,270,3.4,3.8,31,0.00,,,0.00,VWS V14.01,2013-08-16 15:47:00,
2013-08-16 11:48:00,81.3,48.7,29.32,West,270,1.6,3.4,32,0.00,,,0.00,VWS V14.01,2013-08-16 15:48:00,
2013-08-16 11:49:00,81.5,48.8,29.32,West,270,1.6,1.6,32,0.00,,,0.00,VWS V14.01,2013-08-16 15:49:00,
2013-08-16 11:50:00,81.5,49.7,29.32,West,270,0.9,2.9,33,0.00,,,0.00,VWS V14.01,2013-08-16 15:50:00,
2013-08-16 11:51:00,82.2,49.5,29.32,West,270,1.3,2.7,32,0.00,,,0.00,VWS V14.01,2013-08-16 15:51:00,
2013-08-16 11:52:00,81.1,48.5,29.32,WSW,248,2.2,4.3,32,0.00,,,0.00,VWS V14.01,2013-08-16 15:52:00,
2013-08-16 11:53:00,81.7,49.0,29.32,NNW,338,2.0,2.5,32,0.00,,,0.00,VWS V14.01,2013-08-16 15:53:00,
2013-08-16 11:54:00,81.9,49.1,29.32,NW,315,2.7,3.6,32,0.00,,,0.00,VWS V14.01,2013-08-16 15:54:00,
2013-08-16 11:55:00,81.9,49.1,29.32,West,270,3.1,3.8,32,0.00,,,0.00,VWS V14.01,2013-08-16 15:55:00,
2013-08-16 11:56:00,81.5,49.7,29.32,West,270,2.0,3.1,33,0.00,,,0.00,VWS V14.01,2013-08-16 15:56:00,
2013-08-16 11:57:00,82.2,49.5,29.32,West,270,0.0,2.9,32,0.00,,,0.00,VWS V14.01,2013-08-16 15:57:00,
2013-08-16 11:58:00,82.8,49.9,29.32,West,270,0.0,0.0,32,0.00,,,0.00,VWS V14.01,2013-08-16 15:58:00,
2013-08-16 11:59:00,83.1,50.2,29.32,West,270,2.2,2.2,32,0.00,,,0.00,VWS V14.01,2013-08-16 15:59:00,
2013-08-16 12:00:00,83.1,50.2,29.32,West,270,2.9,3.4,32,0.00,,,0.00,VWS V14.01,2013-08-16 16:00:00,
2013-08-16 12:01:00,81.9,48.3,29.32,WNW,292,2.7,3.6,31,0.00,,,0.00,VWS V14.01,2013-08-16 16:01:00,
2013-08-16 12:02:00,81.7,46.4,29.32,West,270,3.6,4.0,29,0.00,,,0.00,VWS V14.01,2013-08-16 16:02:00,
2013-08-16 12:03:00,81.9,45.6,29.32,West,270,2.7,3.6,28,0.00,,,0.00,VWS V14.01,2013-08-16 16:03:00,
2013-08-16 12:04:00,82.4,47.0,29.32,West,270,1.6,2.7,29,0.00,,,0.00,VWS V14.01,2013-08-16 16:04:00,
2013-08-16 12:05:00,81.9,44.6,29.32,West,270,3.6,4.0,27,0.00,,,0.00,VWS V14.01,2013-08-16 16:05:00,
2013-08-16 12:06:00,82.8,49.1,29.32,WNW,292,2.5,2.9,31,0.00,,,0.00,VWS V14.01,2013-08-16 16:06:00,
2013-08-16 12:07:00,82.2,46.8,29.32,West,270,0.0,2.7,29,0.00,,,0.00,VWS V14.01,2013-08-16 16:07:00,
2013-08-16 12:08:00,82.8,47.3,29.32,West,270,0.0,1.1,29,0.00,,,0.00,VWS V14.01,2013-08-16 16:08:00,
2013-08-16 12:09:00,83.1,46.7,29.32,WNW,292,2.9,3.1,28,0.00,,,0.00,VWS V14.01,2013-08-16 16:09:00,
2013-08-16 12:10:00,83.1,46.7,29.32,WNW,292,3.1,3.1,28,0.00,,,0.00,VWS V14.01,2013-08-16 16:10:00,
2013-08-16 12:11:00,81.9,46.5,29.32,West,270,2.7,3.6,29,0.00,,,0.00,VWS V14.01,2013-08-16 16:11:00,
2013-08-16 12:12:00,83.7,46.2,29.32,WNW,292,1.6,3.4,27,0.00,,,0.00,VWS V14.01,2013-08-16 16:12:00,
2013-08-16 12:13:00,83.5,41.8,29.32,WNW,292,0.0,1.6,23,0.00,,,0.00,VWS V14.01,2013-08-16 16:13:00,
2013-08-16 12:14:00,83.3,42.8,29.32,WNW,292,0.0,1.3,24,0.00,,,0.00,VWS V14.01,2013-08-16 16:14:00,
2013-08-16 12:15:00,83.3,43.8,29.32,West,270,1.1,2.9,25,0.00,,,0.00,VWS V14.01,2013-08-16 16:15:00,
2013-08-16 12:16:00,83.1,44.7,29.32,West,270,3.4,4.0,26,0.00,,,0.00,VWS V14.01,2013-08-16 16:16:00,
2013-08-16 12:17:00,82.6,41.1,29.32,West,270,3.6,4.0,23,0.00,,,0.00,VWS V14.01,2013-08-16 16:17:00,
2013-08-16 12:18:00,82.6,41.1,29.32,WNW,292,2.7,3.6,23,0.00,,,0.00,VWS V14.01,2013-08-16 16:18:00,
2013-08-16 12:19:00,82.8,44.4,29.32,WNW,292,0.0,2.7,26,0.00,,,0.00,VWS V14.01,2013-08-16 16:19:00,
2013-08-16 12:20:00,83.3,44.9,29.32,WNW,292,2.7,2.7,26,0.00,,,0.00,VWS V14.01,2013-08-16 16:20:00,
2013-08-16 12:21:00,83.5,45.0,29.32,West,270,2.9,2.9,26,0.00,,,0.00,VWS V14.01,2013-08-16 16:21:00,
2013-08-16 12:22:00,82.8,42.3,29.32,WSW,248,2.2,3.1,24,0.00,,,0.00,VWS V14.01,2013-08-16 16:22:00,
2013-08-16 12:23:00,82.9,43.5,29.32,WSW,248,2.5,2.9,25,0.00,,,0.00,VWS V14.01,2013-08-16 16:23:00,
2013-08-16 12:24:00,83.3,44.9,29.32,WSW,248,1.3,2.5,26,0.00,,,0.00,VWS V14.01,2013-08-16 16:24:00,
2013-08-16 12:25:00,83.7,44.2,29.32,North,0,1.6,1.6,25,0.00,,,0.00,VWS V14.01,2013-08-16 16:25:00,
2013-08-16 12:26:00,82.6,41.1,29.32,WSW,248,2.7,4.5,23,0.00,,,0.00,VWS V14.01,2013-08-16 16:26:00,
2013-08-16 12:27:00,84.2,43.5,29.32,SSE,158,1.1,2.9,24,0.00,,,0.00,VWS V14.01,2013-08-16 16:27:00,
2013-08-16 12:28:00,84.6,44.9,29.32,SSE,158,0.9,1.1,25,0.00,,,0.00,VWS V14.01,2013-08-16 16:28:00,
2013-08-16 12:29:00,85.1,43.2,29.32,SE,135,1.3,1.6,23,0.00,,,0.00,VWS V14.01,2013-08-16 16:29:00,
2013-08-16 12:30:00,85.1,43.2,29.32,SE,135,1.1,1.6,23,0.00,,,0.00,VWS V14.01,2013-08-16 16:30:00,
2013-08-16 12:31:00,84.0,44.5,29.32,SW,225,2.5,3.6,25,0.00,,,0.00,VWS V14.01,2013-08-16 16:31:00,
2013-08-16 12:32:00,84.2,40.1,29.32,West,270,3.6,5.4,21,0.00,,,0.00,VWS V14.01,2013-08-16 16:32:00,
2013-08-16 12:33:00,84.6,41.6,29.32,West,270,2.5,3.6,22,0.00,,,0.00,VWS V14.01,2013-08-16 16:33:00,
2013-08-16 12:34:00,84.9,41.9,29.32,West,270,0.9,2.5,22,0.00,,,0.00,VWS V14.01,2013-08-16 16:34:00,
2013-08-16 12:35:00,85.1,43.2,29.32,West,270,0.9,1.3,23,0.00,,,0.00,VWS V14.01,2013-08-16 16:35:00,
2013-08-16 12:36:00,85.5,43.5,29.32,West,270,1.1,1.3,23,0.00,,,0.00,VWS V14.01,2013-08-16 16:36:00,
2013-08-16 12:37:00,85.5,43.5,29.32,West,270,3.1,3.1,23,0.00,,,0.00,VWS V14.01,2013-08-16 16:37:00,
2013-08-16 12:38:00,85.8,43.8,29.32,NNW,338,2.2,2.7,23,0.00,,,0.00,VWS V14.01,2013-08-16 16:38:00,
2013-08-16 12:39:00,86.2,42.9,29.32,NNE,22,1.1,2.2,22,0.00,,,0.00,VWS V14.01,2013-08-16 16:39:00,
2013-08-16 12:40:00,86.4,43.1,29.32,WSW,248,2.5,2.7,22,0.00,,,0.00,VWS V14.01,2013-08-16 16:40:00,
2013-08-16 12:41:00,86.4,43.1,29.32,WSW,248,2.2,2.5,22,0.00,,,0.00,VWS V14.01,2013-08-16 16:41:00,
2013-08-16 12:42:00,85.5,43.5,29.32,West,270,2.7,2.7,23,0.00,,,0.00,VWS V14.01,2013-08-16 16:42:00,
2013-08-16 12:43:00,86.4,43.1,29.32,North,0,1.6,1.6,22,0.00,,,0.00,VWS V14.01,2013-08-16 16:43:00,
2013-08-16 12:44:00,86.4,43.1,29.32,North,0,0.0,1.6,22,0.00,,,0.00,VWS V14.01,2013-08-16 16:44:00,
2013-08-16 12:45:00,86.7,43.4,29.32,North,0,0.0,0.9,22,0.00,,,0.00,VWS V14.01,2013-08-16 16:45:00,
2013-08-16 12:46:00,87.1,42.5,29.32,North,0,2.5,2.5,21,0.00,,,0.00,VWS V14.01,2013-08-16 16:46:00,
2013-08-16 12:47:00,86.4,43.1,29.32,WSW,248,2.2,2.2,22,0.00,,,0.00,VWS V14.01,2013-08-16 16:47:00,
2013-08-16 12:48:00,87.3,42.6,29.32,North,0,0.0,2.5,21,0.00,,,0.00,VWS V14.01,2013-08-16 16:48:00,
2013-08-16 12:49:00,87.3,42.6,29.32,WNW,292,2.9,3.6,21,0.00,,,0.00,VWS V14.01,2013-08-16 16:49:00,
2013-08-16 12:50:00,87.3,42.6,29.32,WNW,292,2.5,3.1,21,0.00,,,0.00,VWS V14.01,2013-08-16 16:50:00,
2013-08-16 12:51:00,87.6,42.9,29.32,NNW,338,1.3,2.5,21,0.00,,,0.00,VWS V14.01,2013-08-16 16:51:00,
2013-08-16 12:52:00,87.1,42.5,29.32,North,0,2.7,2.7,21,0.00,,,0.00,VWS V14.01,2013-08-16 16:52:00,
2013-08-16 12:53:00,87.8,41.8,29.32,NNW,338,0.0,1.6,20,0.00,,,0.00,VWS V14.01,2013-08-16 16:53:00,
2013-08-16 12:54:00,87.6,41.6,29.32,NNW,338,1.3,1.6,20,0.00,,,0.00,VWS V14.01,2013-08-16 16:54:00,
2013-08-16 12:55:00,87.6,41.6,29.32,NNE,22,1.3,1.6,20,0.00,,,0.00,VWS V14.01,2013-08-16 16:55:00,
2013-08-16 12:56:00,86.5,39.4,29.32,WSW,248,3.8,4.9,19,0.00,,,0.00,VWS V14.01,2013-08-16 16:56:00,
2013-08-16 12:57:00,87.6,42.9,29.32,NNW,338,2.7,2.7,21,0.00,,,0.00,VWS V14.01,2013-08-16 16:57:00,
2013-08-16 12:58:00,87.1,41.2,29.32,NNW,338,0.0,1.3,20,0.00,,,0.00,VWS V14.01,2013-08-16 16:58:00,
2013-08-16 12:59:00,87.1,41.2,29.32,East,90,1.3,2.7,20,0.00,,,0.00,VWS V14.01,2013-08-16 16:59:00,
2013-08-16 13:00:00,87.3,40.0,29.32,East,90,1.3,1.3,19,0.00,,,0.00,VWS V14.01,2013-08-16 17:00:00,
2013-08-16 13:01:00,87.6,41.6,29.32,ENE,68,1.6,2.0,20,0.00,,,0.00,VWS V14.01,2013-08-16 17:01:00,
2013-08-16 13:02:00,86.5,39.4,29.32,West,270,2.0,3.8,19,0.00,,,0.00,VWS V14.01,2013-08-16 17:02:00,
2013-08-16 13:03:00,87.1,39.9,29.32,WSW,248,3.4,3.4,19,0.00,,,0.00,VWS V14.01,2013-08-16 17:03:00,
2013-08-16 13:04:00,87.1,41.2,29.32,WSW,248,1.1,3.4,20,0.00,,,0.00,VWS V14.01,2013-08-16 17:04:00,
2013-08-16 13:05:00,87.1,41.2,29.32,North,0,2.2,2.2,20,0.00,,,0.00,VWS V14.01,2013-08-16 17:05:00,
2013-08-16 13:06:00,87.1,41.2,29.32,North,0,2.0,2.2,20,0.00,,,0.00,VWS V14.01,2013-08-16 17:06:00,
2013-08-16 13:07:00,87.8,41.8,29.32,ENE,68,1.6,1.6,20,0.00,,,0.00,VWS V14.01,2013-08-16 17:07:00,
2013-08-16 13:08:00,85.8,40.2,29.32,WNW,292,5.4,5.4,20,0.00,,,0.00,VWS V14.01,2013-08-16 17:08:00,
2013-08-16 13:09:00,85.1,39.6,29.32,WNW,292,2.5,5.4,20,0.00,,,0.00,VWS V14.01,2013-08-16 17:09:00,
2013-08-16 13:10:00,84.6,37.8,29.32,WSW,248,3.4,4.3,19,0.00,,,0.00,VWS V14.01,2013-08-16 17:10:00,
2013-08-16 13:11:00,84.7,38.0,29.32,West,270,1.6,4.0,19,0.00,,,0.00,VWS V14.01,2013-08-16 17:11:00,
2013-08-16 13:12:00,85.8,40.2,29.32,WNW,292,3.4,4.3,20,0.00,,,0.00,VWS V14.01,2013-08-16 17:12:00,
2013-08-16 13:13:00,84.6,37.8,29.32,West,270,2.9,5.4,19,0.00,,,0.00,VWS V14.01,2013-08-16 17:13:00,
2013-08-16 13:14:00,84.4,37.7,29.32,West,270,4.3,4.3,19,0.00,,,0.00,VWS V14.01,2013-08-16 17:14:00,
2013-08-16 13:15:00,84.2,37.5,29.32,WNW,292,0.9,4.3,19,0.00,,,0.00,VWS V14.01,2013-08-16 17:15:00,
2013-08-16 13:16:00,84.7,39.3,29.29,West,270,2.0,2.0,20,0.00,,,0.00,VWS V14.01,2013-08-16 17:16:00,
2013-08-16 13:17:00,84.7,39.3,29.32,WNW,292,2.5,3.6,20,0.00,,,0.00,VWS V14.01,2013-08-16 17:17:00,
2013-08-16 13:18:00,86.4,40.6,29.29,West,270,0.0,2.2,20,0.00,,,0.00,VWS V14.01,2013-08-16 17:18:00,
2013-08-16 13:19:00,86.7,40.9,29.29,WNW,292,0.0,1.1,20,0.00,,,0.00,VWS V14.01,2013-08-16 17:19:00,
2013-08-16 13:20:00,86.7,40.9,29.29,WNW,292,0.0,0.0,20,0.00,,,0.00,VWS V14.01,2013-08-16 17:20:00,
2013-08-16 13:21:00,87.6,41.6,29.29,WNW,292,1.1,1.3,20,0.00,,,0.00,VWS V14.01,2013-08-16 17:21:00,
2013-08-16 13:22:00,85.5,39.9,29.29,West,270,2.2,2.2,20,0.00,,,0.00,VWS V14.01,2013-08-16 17:22:00,
2013-08-16 13:23:00,88.0,41.9,29.29,WNW,292,0.0,1.1,20,0.00,,,0.00,VWS V14.01,2013-08-16 17:23:00,
2013-08-16 13:24:00,88.5,42.4,29.29,WNW,292,0.0,0.0,20,0.00,,,0.00,VWS V14.01,2013-08-16 17:24:00,
2013-08-16 13:25:00,88.7,42.5,29.29,WNW,292,2.2,2.2,20,0.00,,,0.00,VWS V14.01,2013-08-16 17:25:00,
2013-08-16 13:26:00,88.3,40.9,29.29,North,0,2.7,4.3,19,0.00,,,0.00,VWS V14.01,2013-08-16 17:26:00,
2013-08-16 13:27:00,87.8,41.8,29.29,WNW,292,1.1,2.0,20,0.00,,,0.00,VWS V14.01,2013-08-16 17:27:00,
2013-08-16 13:28:00,88.3,40.9,29.29,SW,225,1.1,2.7,19,0.00,,,0.00,VWS V14.01,2013-08-16 17:28:00,
2013-08-16 13:29:00,88.5,41.0,29.29,West,270,3.1,3.1,19,0.00,,,0.00,VWS V14.01,2013-08-16 17:29:00,
2013-08-16 13:30:00,87.6,40.3,29.29,WSW,248,2.7,3.4,19,0.00,,,0.00,VWS V14.01,2013-08-16 17:30:00,
2013-08-16 13:31:00,86.7,39.6,29.29,West,270,3.4,3.8,19,0.00,,,0.00,VWS V14.01,2013-08-16 17:31:00,
2013-08-16 13:32:00,88.3,40.9,29.29,North,0,0.9,0.9,19,0.00,,,0.00,VWS V14.01,2013-08-16 17:32:00,
2013-08-16 13:33:00,86.9,39.7,29.29,West,270,1.3,2.7,19,0.00,,,0.00,VWS V14.01,2013-08-16 17:33:00,
2013-08-16 13:34:00,86.9,39.7,29.29,West,270,1.6,2.7,19,0.00,,,0.00,VWS V14.01,2013-08-16 17:34:00,
2013-08-16 13:35:00,87.1,39.9,29.29,West,270,2.0,2.5,19,0.00,,,0.00,VWS V14.01,2013-08-16 17:35:00,
2013-08-16 13:36:00,87.1,39.9,29.29,WNW,292,3.8,3.8,19,0.00,,,0.00,VWS V14.01,2013-08-16 17:36:00,
2013-08-16 13:37:00,86.5,39.4,29.29,West,270,1.6,3.4,19,0.00,,,0.00,VWS V14.01,2013-08-16 17:37:00,
2013-08-16 13:38:00,86.2,39.1,29.29,SW,225,2.5,3.4,19,0.00,,,0.00,VWS V14.01,2013-08-16 17:38:00,
2013-08-16 13:39:00,86.4,39.3,29.29,WSW,248,3.1,4.3,19,0.00,,,0.00,VWS V14.01,2013-08-16 17:39:00,
2013-08-16 13:40:00,85.1,38.2,29.29,WSW,248,3.1,4.9,19,0.00,,,0.00,VWS V14.01,2013-08-16 17:40:00,
2013-08-16 13:41:00,85.1,38.2,29.29,West,270,2.2,4.0,19,0.00,,,0.00,VWS V14.01,2013-08-16 17:41:00,
2013-08-16 13:42:00,86.2,39.1,29.29,NW,315,3.4,4.3,19,0.00,,,0.00,VWS V14.01,2013-08-16 17:42:00,
2013-08-16 13:43:00,84.6,37.8,29.29,WSW,248,3.6,5.6,19,0.00,,,0.00,VWS V14.01,2013-08-16 17:43:00,
2013-08-16 13:44:00,84.0,38.7,29.29,WSW,248,3.1,4.7,20,0.00,,,0.00,VWS V14.01,2013-08-16 17:44:00,
2013-08-16 13:45:00,84.0,38.7,29.29,West,270,3.4,3.4,20,0.00,,,0.00,VWS V14.01,2013-08-16 17:45:00,
2013-08-16 13:46:00,84.7,39.3,29.29,NNW,338,2.2,3.4,20,0.00,,,0.00,VWS V14.01,2013-08-16 17:46:00,
2013-08-16 13:47:00,85.5,38.5,29.29,West,270,1.6,1.6,19,0.00,,,0.00,VWS V14.01,2013-08-16 17:47:00,
2013-08-16 13:48:00,86.4,40.6,29.29,NNW,338,0.0,2.5,20,0.00,,,0.00,VWS V14.01,2013-08-16 17:48:00,
2013-08-16 13:49:00,87.1,39.9,29.29,NNW,338,1.6,1.6,19,0.00,,,0.00,VWS V14.01,2013-08-16 17:49:00,
2013-08-16 13:50:00,86.7,39.6,29.29,West,270,3.1,3.4,19,0.00,,,0.00,VWS V14.01,2013-08-16 17:50:00,
2013-08-16 13:51:00,86.2,39.1,29.29,WNW,292,2.7,3.6,19,0.00,,,0.00,VWS V14.01,2013-08-16 17:51:00,
2013-08-16 13:52:00,86.0,39.0,29.29,WNW,292,1.3,2.7,19,0.00,,,0.00,VWS V14.01,2013-08-16 17:52:00,
2013-08-16 13:53:00,86.0,39.0,29.29,NNW,338,0.9,0.9,19,0.00,,,0.00,VWS V14.01,2013-08-16 17:53:00,
2013-08-16 13:54:00,84.9,38.1,29.29,West,270,2.5,4.5,19,0.00,,,0.00,VWS V14.01,2013-08-16 17:54:00,
2013-08-16 13:55:00,84.7,38.0,29.29,West,270,2.9,4.7,19,0.00,,,0.00,VWS V14.01,2013-08-16 17:55:00,
2013-08-16 13:56:00,85.6,40.0,29.29,West,270,0.9,2.9,20,0.00,,,0.00,VWS V14.01,2013-08-16 17:56:00,
2013-08-16 13:57:00,85.6,40.0,29.29,NNW,338,1.3,1.6,20,0.00,,,0.00,VWS V14.01,2013-08-16 17:57:00,
2013-08-16 13:58:00,86.0,39.0,29.29,WNW,292,1.3,1.3,19,0.00,,,0.00,VWS V14.01,2013-08-16 17:58:00,
2013-08-16 13:59:00,86.2,39.1,29.29,North,0,1.6,2.7,19,0.00,,,0.00,VWS V14.01,2013-08-16 17:59:00,
2013-08-16 14:00:00,86.5,39.4,29.29,WSW,248,1.3,1.6,19,0.00,,,0.00,VWS V14.01,2013-08-16 18:00:00,
2013-08-16 14:01:00,86.5,39.4,29.29,WNW,292,1.1,3.1,19,0.00,,,0.00,VWS V14.01,2013-08-16 18:01:00,
2013-08-16 14:02:00,87.3,40.0,29.29,NNE,22,0.0,2.9,19,0.00,,,0.00,VWS V14.01,2013-08-16 18:02:00,
2013-08-16 14:03:00,85.6,40.0,29.29,NNW,338,2.0,3.4,20,0.00,,,0.00,VWS V14.01,2013-08-16 18:03:00,
2013-08-16 14:04:00,87.1,39.9,29.29,WNW,292,2.0,3.6,19,0.00,,,0.00,VWS V14.01,2013-08-16 18:04:00,
2013-08-16 14:05:00,87.3,40.0,29.29,WNW,292,2.0,2.0,19,0.00,,,0.00,VWS V14.01,2013-08-16 18:05:00,
2013-08-16 14:06:00,87.1,39.9,29.29,North,0,0.9,3.4,19,0.00,,,0.00,VWS V14.01,2013-08-16 18:06:00,
2013-08-16 14:07:00,87.4,40.2,29.29,North,0,0.0,1.1,19,0.00,,,0.00,VWS V14.01,2013-08-16 18:07:00,
2013-08-16 14:08:00,87.3,40.0,29.29,North,0,3.1,3.1,19,0.00,,,0.00,VWS V14.01,2013-08-16 18:08:00,
2013-08-16 14:09:00,88.0,40.6,29.29,WNW,292,3.4,3.4,19,0.00,,,0.00,VWS V14.01,2013-08-16 18:09:00,
2013-08-16 14:10:00,86.7,39.6,29.29,WNW,292,2.7,3.4,19,0.00,,,0.00,VWS V14.01,2013-08-16 18:10:00,
2013-08-16 14:11:00,85.6,40.0,29.29,NNW,338,2.0,5.8,20,0.00,,,0.00,VWS V14.01,2013-08-16 18:11:00,
2013-08-16 14:12:00,85.6,40.0,29.29,NNW,338,2.7,2.7,20,0.00,,,0.00,VWS V14.01,2013-08-16 18:12:00,
2013-08-16 14:13:00,87.8,40.5,29.29,North,0,0.0,0.0,19,0.00,,,0.00,VWS V14.01,2013-08-16 18:13:00,
2013-08-16 14:14:00,85.5,39.9,29.29,WSW,248,4.9,4.9,20,0.00,,,0.00,VWS V14.01,2013-08-16 18:14:00,
2013-08-16 14:15:00,84.7,39.3,29.29,West,270,2.9,4.9,20,0.00,,,0.00,VWS V14.01,2013-08-16 18:15:00,
2013-08-16 14:16:00,84.9,39.4,29.26,WSW,248,2.2,3.6,20,0.00,,,0.00,VWS V14.01,2013-08-16 18:16:00,
2013-08-16 14:17:00,84.9,40.7,29.26,West,270,4.9,4.9,21,0.00,,,0.00,VWS V14.01,2013-08-16 18:17:00,
2013-08-16 14:18:00,86.0,40.3,29.29,North,0,0.9,2.7,20,0.00,,,0.00,VWS V14.01,2013-08-16 18:18:00,
2013-08-16 14:19:00,84.2,38.8,29.26,WNW,292,2.0,2.9,20,0.00,,,0.00,VWS V14.01,2013-08-16 18:19:00,
2013-08-16 14:20:00,84.2,38.8,29.26,WSW,248,2.7,4.0,20,0.00,,,0.00,VWS V14.01,2013-08-16 18:20:00,
2013-08-16 14:21:00,84.2,38.8,29.26,WNW,292,1.6,4.0,20,0.00,,,0.00,VWS V14.01,2013-08-16 18:21:00,
2013-08-16 14:22:00,84.2,38.8,29.26,WSW,248,3.6,3.8,20,0.00,,,0.00,VWS V14.01,2013-08-16 18:22:00,
2013-08-16 14:23:00,84.4,39.0,29.26,West,270,6.0,6.0,20,0.00,,,0.00,VWS V14.01,2013-08-16 18:23:00,
2013-08-16 14:24:00,84.2,38.8,29.26,WSW,248,3.6,4.7,20,0.00,,,0.00,VWS V14.01,2013-08-16 18:24:00,
2013-08-16 14:25:00,84.2,38.8,29.26,West,270,3.8,5.8,20,0.00,,,0.00,VWS V14.01,2013-08-16 18:25:00,
2013-08-16 14:26:00,83.5,38.2,29.26,WSW,248,4.9,4.9,20,0.00,,,0.00,VWS V14.01,2013-08-16 18:26:00,
2013-08-16 14:27:00,84.0,39.9,29.26,WSW,248,1.3,5.6,21,0.00,,,0.00,VWS V14.01,2013-08-16 18:27:00,
2013-08-16 14:28:00,84.2,38.8,29.26,West,270,3.6,4.0,20,0.00,,,0.00,VWS V14.01,2013-08-16 18:28:00,
2013-08-16 14:29:00,83.8,39.8,29.26,West,270,5.6,5.6,21,0.00,,,0.00,VWS V14.01,2013-08-16 18:29:00,
2013-08-16 14:30:00,82.6,37.5,29.26,WSW,248,4.0,6.3,20,0.00,,,0.00,VWS V14.01,2013-08-16 18:30:00,
2013-08-16 14:31:00,82.8,38.9,29.29,West,270,5.4,5.4,21,0.00,,,0.00,VWS V14.01,2013-08-16 18:31:00,
2013-08-16 14:32:00,82.6,38.7,29.29,West,270,1.3,5.4,21,0.00,,,0.00,VWS V14.01,2013-08-16 18:32:00,
2013-08-16 14:33:00,83.8,39.8,29.26,WSW,248,3.6,3.6,21,0.00,,,0.00,VWS V14.01,2013-08-16 18:33:00,
2013-08-16 14:34:00,82.8,38.9,29.29,NNW,338,1.3,5.4,21,0.00,,,0.00,VWS V14.01,2013-08-16 18:34:00,
2013-08-16 14:35:00,83.8,39.8,29.29,SSW,202,3.4,4.0,21,0.00,,,0.00,VWS V14.01,2013-08-16 18:35:00,
2013-08-16 14:36:00,83.3,38.1,29.29,NW,315,4.5,5.8,20,0.00,,,0.00,VWS V14.01,2013-08-16 18:36:00,
2013-08-16 14:37:00,82.9,37.8,29.29,West,270,2.5,6.3,20,0.00,,,0.00,VWS V14.01,2013-08-16 18:37:00,
2013-08-16 14:38:00,82.8,38.9,29.29,WSW,248,5.4,5.8,21,0.00,,,0.00,VWS V14.01,2013-08-16 18:38:00,
2013-08-16 14:39:00,82.9,37.8,29.29,NW,315,5.8,6.5,20,0.00,,,0.00,VWS V14.01,2013-08-16 18:39:00,
2013-08-16 14:40:00,84.0,38.7,29.29,North,0,2.7,5.8,20,0.00,,,0.00,VWS V14.01,2013-08-16 18:40:00,
2013-08-16 14:41:00,83.8,38.5,29.29,West,270,3.8,3.8,20,0.00,,,0.00,VWS V14.01,2013-08-16 18:41:00,
2013-08-16 14:42:00,83.5,38.2,29.29,NW,315,3.4,5.4,20,0.00,,,0.00,VWS V14.01,2013-08-16 18:42:00,
2013-08-16 14:43:00,83.5,39.5,29.29,WSW,248,6.5,6.5,21,0.00,,,0.00,VWS V14.01,2013-08-16 18:43:00,
2013-08-16 14:44:00,83.3,38.1,29.29,WSW,248,4.0,7.6,20,0.00,,,0.00,VWS V14.01,2013-08-16 18:44:00,
2013-08-16 14:45:00,83.3,38.1,29.29,West,270,2.9,5.6,20,0.00,,,0.00,VWS V14.01,2013-08-16 18:45:00,
2013-08-16 14:46:00,83.5,38.2,29.26,West,270,4.7,4.9,20,0.00,,,0.00,VWS V14.01,2013-08-16 18:46:00,
2013-08-16 14:47:00,83.5,38.2,29.26,West,270,2.5,5.4,20,0.00,,,0.00,VWS V14.01,2013-08-16 18:47:00,
2013-08-16 14:48:00,83.7,38.4,29.26,SW,225,2.9,5.4,20,0.00,,,0.00,VWS V14.01,2013-08-16 18:48:00,
2013-08-16 14:49:00,84.6,39.1,29.29,West,270,7.6,7.6,20,0.00,,,0.00,VWS V14.01,2013-08-16 18:49:00,
2013-08-16 14:50:00,83.1,37.9,29.26,West,270,2.2,5.4,20,0.00,,,0.00,VWS V14.01,2013-08-16 18:50:00,
2013-08-16 14:51:00,82.8,37.6,29.26,WNW,292,3.8,5.6,20,0.00,,,0.00,VWS V14.01,2013-08-16 18:51:00,
2013-08-16 14:52:00,83.1,37.9,29.26,West,270,0.9,4.3,20,0.00,,,0.00,VWS V14.01,2013-08-16 18:52:00,
2013-08-16 14:53:00,82.9,37.8,29.26,West,270,2.2,5.4,20,0.00,,,0.00,VWS V14.01,2013-08-16 18:53:00,
2013-08-16 14:54:00,83.7,38.4,29.26,West,270,3.1,3.1,20,0.00,,,0.00,VWS V14.01,2013-08-16 18:54:00,
2013-08-16 14:55:00,84.6,39.1,29.26,NW,315,1.6,2.0,20,0.00,,,0.00,VWS V14.01,2013-08-16 18:55:00,
2013-08-16 14:56:00,85.1,39.6,29.26,West,270,1.1,3.1,20,0.00,,,0.00,VWS V14.01,2013-08-16 18:56:00,
2013-08-16 14:57:00,85.3,39.7,29.26,WSW,248,2.7,2.7,20,0.00,,,0.00,VWS V14.01,2013-08-16 18:57:00,
2013-08-16 14:58:00,85.3,39.7,29.26,WNW,292,1.3,3.4,20,0.00,,,0.00,VWS V14.01,2013-08-16 18:58:00,
2013-08-16 14:59:00,83.7,38.4,29.26,North,0,1.6,2.2,20,0.00,,,0.00,VWS V14.01,2013-08-16 18:59:00,
2013-08-16 15:00:00,85.5,39.9,29.26,WNW,292,6.3,6.3,20,0.00,,,0.00,VWS V14.01,2013-08-16 19:00:00,
2013-08-16 15:01:00,84.0,37.4,29.26,West,270,5.6,8.1,19,0.00,,,0.00,VWS V14.01,2013-08-16 19:01:00,
2013-08-16 15:02:00,83.7,37.1,29.26,WNW,292,3.8,5.6,19,0.00,,,0.00,VWS V14.01,2013-08-16 19:02:00,
2013-08-16 15:03:00,84.4,37.7,29.26,West,270,1.6,3.8,19,0.00,,,0.00,VWS V14.01,2013-08-16 19:03:00,
2013-08-16 15:04:00,85.3,39.7,29.26,West,270,1.6,2.5,20,0.00,,,0.00,VWS V14.01,2013-08-16 19:04:00,
2013-08-16 15:05:00,85.1,38.2,29.26,NW,315,0.0,3.1,19,0.00,,,0.00,VWS V14.01,2013-08-16 19:05:00,
2013-08-16 15:06:00,85.5,38.5,29.26,WSW,248,2.7,2.7,19,0.00,,,0.00,VWS V14.01,2013-08-16 19:06:00,
2013-08-16 15:07:00,84.9,38.1,29.26,WSW,248,2.7,6.0,19,0.00,,,0.00,VWS V14.01,2013-08-16 19:07:00,
2013-08-16 15:08:00,84.9,38.1,29.26,West,270,2.5,4.7,19,0.00,,,0.00,VWS V14.01,2013-08-16 19:08:00,
2013-08-16 15:09:00,84.4,37.7,29.26,NW,315,4.0,4.0,19,0.00,,,0.00,VWS V14.01,2013-08-16 19:09:00,
2013-08-16 15:10:00,84.6,37.8,29.26,WNW,292,4.3,6.0,19,0.00,,,0.00,VWS V14.01,2013-08-16 19:10:00,
2013-08-16 15:11:00,84.4,37.7,29.26,WSW,248,2.7,4.3,19,0.00,,,0.00,VWS V14.01,2013-08-16 19:11:00,
2013-08-16 15:12:00,83.5,36.9,29.26,WNW,292,2.9,4.7,19,0.00,,,0.00,VWS V14.01,2013-08-16 19:12:00,
2013-08-16 15:13:00,83.5,36.9,29.26,NW,315,0.0,6.5,19,0.00,,,0.00,VWS V14.01,2013-08-16 19:13:00,
2013-08-16 15:14:00,84.2,37.5,29.26,WNW,292,6.5,7.4,19,0.00,,,0.00,VWS V14.01,2013-08-16 19:14:00,
2013-08-16 15:15:00,84.6,37.8,29.26,NW,315,1.1,2.9,19,0.00,,,0.00,VWS V14.01,2013-08-16 19:15:00,
2013-08-16 15:16:00,85.3,38.4,29.26,NNW,338,2.0,2.5,19,0.00,,,0.00,VWS V14.01,2013-08-16 19:16:00,
2013-08-16 15:17:00,85.8,40.2,29.26,SW,225,2.7,2.9,20,0.00,,,0.00,VWS V14.01,2013-08-16 19:17:00,
2013-08-16 15:18:00,85.6,40.0,29.26,West,270,2.0,3.4,20,0.00,,,0.00,VWS V14.01,2013-08-16 19:18:00,
2013-08-16 15:19:00,84.2,37.5,29.26,West,270,2.5,3.4,19,0.00,,,0.00,VWS V14.01,2013-08-16 19:19:00,
2013-08-16 15:20:00,85.3,38.4,29.26,WSW,248,4.0,5.4,19,0.00,,,0.00,VWS V14.01,2013-08-16 19:20:00,
2013-08-16 15:21:00,84.0,37.4,29.26,West,270,2.9,7.6,19,0.00,,,0.00,VWS V14.01,2013-08-16 19:21:00,
2013-08-16 15:22:00,84.4,37.7,29.26,WSW,248,2.0,4.0,19,0.00,,,0.00,VWS V14.01,2013-08-16 19:22:00,
2013-08-16 15:23:00,84.9,38.1,29.26,WNW,292,1.6,3.4,19,0.00,,,0.00,VWS V14.01,2013-08-16 19:23:00,
2013-08-16 15:24:00,85.6,40.0,29.26,WNW,292,1.1,2.0,20,0.00,,,0.00,VWS V14.01,2013-08-16 19:24:00,
2013-08-16 15:25:00,84.0,37.4,29.26,WSW,248,2.5,7.4,19,0.00,,,0.00,VWS V14.01,2013-08-16 19:25:00,
2013-08-16 15:26:00,84.0,37.4,29.26,WNW,292,5.8,5.8,19,0.00,,,0.00,VWS V14.01,2013-08-16 19:26:00,
2013-08-16 15:27:00,84.4,37.7,29.26,WSW,248,3.4,5.8,19,0.00,,,0.00,VWS V14.01,2013-08-16 19:27:00,
2013-08-16 15:28:00,83.8,37.2,29.26,West,270,7.6,7.6,19,0.00,,,0.00,VWS V14.01,2013-08-16 19:28:00,
2013-08-16 15:29:00,84.9,38.1,29.26,WSW,248,8.5,8.5,19,0.00,,,0.00,VWS V14.01,2013-08-16 19:29:00,
2013-08-16 15:30:00,83.5,36.9,29.26,NW,315,3.8,7.2,19,0.00,,,0.00,VWS V14.01,2013-08-16 19:30:00,
2013-08-16 15:31:00,84.0,37.4,29.26,WNW,292,6.0,6.0,19,0.00,,,0.00,VWS V14.01,2013-08-16 19:31:00,
2013-08-16 15:32:00,83.7,37.1,29.26,West,270,3.6,6.0,19,0.00,,,0.00,VWS V14.01,2013-08-16 19:32:00,
2013-08-16 15:33:00,82.8,36.3,29.26,WSW,248,6.5,7.4,19,0.00,,,0.00,VWS V14.01,2013-08-16 19:33:00,
2013-08-16 15:34:00,83.8,37.2,29.26,WNW,292,2.2,7.6,19,0.00,,,0.00,VWS V14.01,2013-08-16 19:34:00,
2013-08-16 15:35:00,82.6,36.2,29.26,NNW,338,5.8,8.1,19,0.00,,,0.00,VWS V14.01,2013-08-16 19:35:00,
2013-08-16 15:36:00,82.6,36.2,29.26,West,270,3.8,5.8,19,0.00,,,0.00,VWS V14.01,2013-08-16 19:36:00,
2013-08-16 15:37:00,83.3,38.1,29.26,WSW,248,3.1,3.8,20,0.00,,,0.00,VWS V14.01,2013-08-16 19:37:00,
2013-08-16 15:38:00,83.5,38.2,29.26,West,270,2.9,4.0,20,0.00,,,0.00,VWS V14.01,2013-08-16 19:38:00,
2013-08-16 15:39:00,82.8,36.3,29.26,West,270,3.6,6.5,19,0.00,,,0.00,VWS V14.01,2013-08-16 19:39:00,
2013-08-16 15:40:00,83.5,36.9,29.26,NNW,338,2.5,3.6,19,0.00,,,0.00,VWS V14.01,2013-08-16 19:40:00,
2013-08-16 15:41:00,84.2,37.5,29.26,NW,315,2.9,3.4,19,0.00,,,0.00,VWS V14.01,2013-08-16 19:41:00,
2013-08-16 15:42:00,84.0,37.4,29.26,NW,315,3.4,4.3,19,0.00,,,0.00,VWS V14.01,2013-08-16 19:42:00,
2013-08-16 15:43:00,83.8,37.2,29.26,West,270,4.0,4.0,19,0.00,,,0.00,VWS V14.01,2013-08-16 19:43:00,
2013-08-16 15:44:00,83.5,36.9,29.26,WNW,292,2.7,5.6,19,0.00,,,0.00,VWS V14.01,2013-08-16 19:44:00,
2013-08-16 15:45:00,83.1,36.6,29.26,SW,225,8.5,8.5,19,0.00,,,0.00,VWS V14.01,2013-08-16 19:45:00,
2013-08-16 15:46:00,82.4,36.0,29.26,WSW,248,7.6,8.5,19,0.00,,,0.00,VWS V14.01,2013-08-16 19:46:00,
2013-08-16 15:47:00,82.2,37.2,29.26,WNW,292,5.4,7.6,20,0.00,,,0.00,VWS V14.01,2013-08-16 19:47:00,
2013-08-16 15:48:00,82.4,36.0,29.26,North,0,1.3,5.4,19,0.00,,,0.00,VWS V14.01,2013-08-16 19:48:00,
2013-08-16 15:49:00,82.9,36.5,29.26,WSW,248,6.0,7.8,19,0.00,,,0.00,VWS V14.01,2013-08-16 19:49:00,
2013-08-16 15:50:00,82.8,37.6,29.26,West,270,5.4,6.3,20,0.00,,,0.00,VWS V14.01,2013-08-16 19:50:00,
2013-08-16 15:51:00,83.3,38.1,29.26,WSW,248,4.9,5.4,20,0.00,,,0.00,VWS V14.01,2013-08-16 19:51:00,
2013-08-16 15:52:00,82.2,37.2,29.26,WSW,248,4.3,7.4,20,0.00,,,0.00,VWS V14.01,2013-08-16 19:52:00,
2013-08-16 15:53:00,82.6,37.5,29.26,WSW,248,4.0,4.3,20,0.00,,,0.00,VWS V14.01,2013-08-16 19:53:00,
2013-08-16 15:54:00,82.4,36.0,29.26,West,270,6.3,6.3,19,0.00,,,0.00,VWS V14.01,2013-08-16 19:54:00,
2013-08-16 15:55:00,83.5,38.2,29.26,West,270,6.3,6.3,20,0.00,,,0.00,VWS V14.01,2013-08-16 19:55:00,
2013-08-16 15:56:00,82.4,36.0,29.26,WNW,292,6.5,6.5,19,0.00,,,0.00,VWS V14.01,2013-08-16 19:56:00,
2013-08-16 15:57:00,82.6,36.2,29.26,WNW,292,4.3,6.5,19,0.00,,,0.00,VWS V14.01,2013-08-16 19:57:00,
2013-08-16 15:58:00,82.6,36.2,29.26,WNW,292,6.3,6.3,19,0.00,,,0.00,VWS V14.01,2013-08-16 19:58:00,
2013-08-16 15:59:00,82.9,37.8,29.26,NW,315,2.0,4.0,20,0.00,,,0.00,VWS V14.01,2013-08-16 19:59:00,
2013-08-16 16:00:00,82.4,36.0,29.26,NW,315,5.8,5.8,19,0.00,,,0.00,VWS V14.01,2013-08-16 20:00:00,
2013-08-16 16:01:00,82.4,36.0,29.26,WSW,248,7.6,7.6,19,0.00,,,0.00,VWS V14.01,2013-08-16 20:01:00,
2013-08-16 16:02:00,81.9,36.9,29.26,West,270,2.0,7.6,20,0.00,,,0.00,VWS V14.01,2013-08-16 20:02:00,
2013-08-16 16:03:00,83.1,37.9,29.26,WNW,292,3.4,3.4,20,0.00,,,0.00,VWS V14.01,2013-08-16 20:03:00,
2013-08-16 16:04:00,82.6,36.2,29.26,WNW,292,1.1,6.3,19,0.00,,,0.00,VWS V14.01,2013-08-16 20:04:00,
2013-08-16 16:05:00,83.1,37.9,29.26,West,270,2.0,4.9,20,0.00,,,0.00,VWS V14.01,2013-08-16 20:05:00,
2013-08-16 16:06:00,83.1,37.9,29.26,WSW,248,3.4,4.3,20,0.00,,,0.00,VWS V14.01,2013-08-16 20:06:00,
2013-08-16 16:07:00,83.1,37.9,29.26,West,270,2.5,3.6,20,0.00,,,0.00,VWS V14.01,2013-08-16 20:07:00,
2013-08-16 16:08:00,83.1,37.9,29.26,WSW,248,3.4,5.6,20,0.00,,,0.00,VWS V14.01,2013-08-16 20:08:00,
2013-08-16 16:09:00,82.9,37.8,29.26,West,270,3.1,3.4,20,0.00,,,0.00,VWS V14.01,2013-08-16 20:09:00,
2013-08-16 16:10:00,83.1,37.9,29.26,NW,315,2.7,4.9,20,0.00,,,0.00,VWS V14.01,2013-08-16 20:10:00,
2013-08-16 16:11:00,83.5,38.2,29.26,West,270,2.2,3.1,20,0.00,,,0.00,VWS V14.01,2013-08-16 20:11:00,
2013-08-16 16:12:00,83.8,38.5,29.26,WNW,292,2.9,3.4,20,0.00,,,0.00,VWS V14.01,2013-08-16 20:12:00,
2013-08-16 16:13:00,83.8,38.5,29.26,North,0,2.0,2.9,20,0.00,,,0.00,VWS V14.01,2013-08-16 20:13:00,
2013-08-16 16:14:00,83.5,38.2,29.26,WNW,292,2.9,5.6,20,0.00,,,0.00,VWS V14.01,2013-08-16 20:14:00,
2013-08-16 16:15:00,84.4,39.0,29.26,WNW,292,1.3,4.0,20,0.00,,,0.00,VWS V14.01,2013-08-16 20:15:00,
2013-08-16 16:16:00,84.4,39.0,29.26,WSW,248,2.7,4.0,20,0.00,,,0.00,VWS V14.01,2013-08-16 20:16:00,
2013-08-16 16:17:00,84.4,39.0,29.26,NW,315,1.3,3.6,20,0.00,,,0.00,VWS V14.01,2013-08-16 20:17:00,
2013-08-16 16:18:00,84.6,37.8,29.26,NNE,22,1.3,3.6,19,0.00,,,0.00,VWS V14.01,2013-08-16 20:18:00,
2013-08-16 16:19:00,84.0,38.7,29.26,West,270,1.1,2.0,20,0.00,,,0.00,VWS V14.01,2013-08-16 20:19:00,
2013-08-16 16:20:00,84.0,38.7,29.26,West,270,3.1,4.3,20,0.00,,,0.00,VWS V14.01,2013-08-16 20:20:00,
2013-08-16 16:21:00,84.0,38.7,29.26,West,270,2.0,3.1,20,0.00,,,0.00,VWS V14.01,2013-08-16 20:21:00,
2013-08-16 16:22:00,84.0,38.7,29.26,WNW,292,2.7,3.8,20,0.00,,,0.00,VWS V14.01,2013-08-16 20:22:00,
2013-08-16 16:23:00,83.5,38.2,29.26,NNE,22,2.7,3.4,20,0.00,,,0.00,VWS V14.01,2013-08-16 20:23:00,
2013-08-16 16:24:00,84.0,38.7,29.26,WNW,292,3.1,5.6,20,0.00,,,0.00,VWS V14.01,2013-08-16 20:24:00,
2013-08-16 16:25:00,84.4,39.0,29.26,WNW,292,3.8,3.8,20,0.00,,,0.00,VWS V14.01,2013-08-16 20:25:00,
2013-08-16 16:26:00,84.0,38.7,29.26,NW,315,2.7,3.8,20,0.00,,,0.00,VWS V14.01,2013-08-16 20:26:00,
2013-08-16 16:27:00,84.0,38.7,29.26,SW,225,1.1,5.8,20,0.00,,,0.00,VWS V14.01,2013-08-16 20:27:00,
2013-08-16 16:28:00,84.0,38.7,29.26,West,270,3.4,3.4,20,0.00,,,0.00,VWS V14.01,2013-08-16 20:28:00,
2013-08-16 16:29:00,84.4,39.0,29.26,NNE,22,2.5,3.4,20,0.00,,,0.00,VWS V14.01,2013-08-16 20:29:00,
2013-08-16 16:30:00,84.0,38.7,29.26,WSW,248,2.7,2.7,20,0.00,,,0.00,VWS V14.01,2013-08-16 20:30:00,
2013-08-16 16:31:00,84.0,38.7,29.26,WNW,292,2.0,3.6,20,0.00,,,0.00,VWS V14.01,2013-08-16 20:31:00,
2013-08-16 16:32:00,84.4,39.0,29.26,WNW,292,0.0,2.7,20,0.00,,,0.00,VWS V14.01,2013-08-16 20:32:00,
2013-08-16 16:33:00,84.9,39.4,29.26,West,270,3.1,6.0,20,0.00,,,0.00,VWS V14.01,2013-08-16 20:33:00,
2013-08-16 16:34:00,84.2,38.8,29.26,WNW,292,4.3,4.7,20,0.00,,,0.00,VWS V14.01,2013-08-16 20:34:00,
2013-08-16 16:35:00,84.4,39.0,29.26,WSW,248,1.6,2.5,20,0.00,,,0.00,VWS V14.01,2013-08-16 20:35:00,
2013-08-16 16:36:00,84.2,38.8,29.26,West,270,2.9,3.4,20,0.00,,,0.00,VWS V14.01,2013-08-16 20:36:00,
2013-08-16 16:37:00,84.6,39.1,29.26,West,270,2.9,3.1,20,0.00,,,0.00,VWS V14.01,2013-08-16 20:37:00,
2013-08-16 16:38:00,84.6,39.1,29.26,SW,225,4.9,4.9,20,0.00,,,0.00,VWS V14.01,2013-08-16 20:38:00,
2013-08-16 16:39:00,84.6,39.1,29.26,WNW,292,1.6,4.9,20,0.00,,,0.00,VWS V14.01,2013-08-16 20:39:00,
2013-08-16 16:40:00,84.2,38.8,29.26,WSW,248,3.6,4.3,20,0.00,,,0.00,VWS V14.01,2013-08-16 20:40:00,
2013-08-16 16:41:00,83.7,38.4,29.26,West,270,2.5,3.1,20,0.00,,,0.00,VWS V14.01,2013-08-16 20:41:00,
2013-08-16 16:42:00,83.5,38.2,29.26,WSW,248,3.1,3.8,20,0.00,,,0.00,VWS V14.01,2013-08-16 20:42:00,
2013-08-16 16:43:00,83.5,38.2,29.26,NW,315,0.0,7.6,20,0.00,,,0.00,VWS V14.01,2013-08-16 20:43:00,
2013-08-16 16:44:00,83.5,39.5,29.26,NW,315,3.4,3.4,21,0.00,,,0.00,VWS V14.01,2013-08-16 20:44:00,
2013-08-16 16:45:00,83.5,38.2,29.26,WNW,292,4.0,4.7,20,0.00,,,0.00,VWS V14.01,2013-08-16 20:45:00,
2013-08-16 16:46:00,83.7,39.6,29.23,West,270,1.1,2.9,21,0.00,,,0.00,VWS V14.01,2013-08-16 20:46:00,
2013-08-16 16:47:00,84.2,40.1,29.23,WSW,248,3.1,3.8,21,0.00,,,0.00,VWS V14.01,2013-08-16 20:47:00,
2013-08-16 16:48:00,84.0,39.9,29.23,WSW,248,3.4,4.9,21,0.00,,,0.00,VWS V14.01,2013-08-16 20:48:00,
2013-08-16 16:49:00,83.1,39.2,29.23,WNW,292,2.2,5.8,21,0.00,,,0.00,VWS V14.01,2013-08-16 20:49:00,
2013-08-16 16:50:00,83.5,39.5,29.26,WNW,292,2.0,3.4,21,0.00,,,0.00,VWS V14.01,2013-08-16 20:50:00,
2013-08-16 16:51:00,82.0,38.3,29.23,West,270,5.4,6.0,21,0.00,,,0.00,VWS V14.01,2013-08-16 20:51:00,
2013-08-16 16:52:00,82.0,38.3,29.23,West,270,7.2,7.6,21,0.00,,,0.00,VWS V14.01,2013-08-16 20:52:00,
2013-08-16 16:53:00,81.0,38.6,29.23,West,270,4.0,7.2,22,0.00,,,0.00,VWS V14.01,2013-08-16 20:53:00,
2013-08-16 16:54:00,81.1,38.7,29.23,NW,315,4.9,4.9,22,0.00,,,0.00,VWS V14.01,2013-08-16 20:54:00,
2013-08-16 16:55:00,83.1,39.2,29.23,WSW,248,2.7,2.7,21,0.00,,,0.00,VWS V14.01,2013-08-16 20:55:00,
2013-08-16 16:56:00,81.7,39.2,29.23,NNW,338,2.9,5.4,22,0.00,,,0.00,VWS V14.01,2013-08-16 20:56:00,
2013-08-16 16:57:00,81.9,40.5,29.23,SW,225,3.1,3.1,23,0.00,,,0.00,VWS V14.01,2013-08-16 20:57:00,
2013-08-16 16:58:00,81.9,40.5,29.23,WNW,292,2.0,3.6,23,0.00,,,0.00,VWS V14.01,2013-08-16 20:58:00,
2013-08-16 16:59:00,81.9,41.6,29.23,West,270,2.7,3.4,24,0.00,,,0.00,VWS V14.01,2013-08-16 20:59:00,
2013-08-16 17:00:00,81.5,40.2,29.23,North,0,2.5,4.9,23,0.00,,,0.00,VWS V14.01,2013-08-16 21:00:00,
2013-08-16 17:01:00,82.2,40.8,29.23,West,270,3.4,3.8,23,0.00,,,0.00,VWS V14.01,2013-08-16 21:01:00,
2013-08-16 17:02:00,82.0,40.6,29.23,WSW,248,2.5,5.8,23,0.00,,,0.00,VWS V14.01,2013-08-16 21:02:00,
2013-08-16 17:03:00,82.0,40.6,29.23,West,270,3.8,3.8,23,0.00,,,0.00,VWS V14.01,2013-08-16 21:03:00,
2013-08-16 17:04:00,81.5,41.3,29.23,WSW,248,1.3,3.8,24,0.00,,,0.00,VWS V14.01,2013-08-16 21:04:00,
2013-08-16 17:05:00,82.4,40.9,29.23,West,270,2.5,2.7,23,0.00,,,0.00,VWS V14.01,2013-08-16 21:05:00,
2013-08-16 17:06:00,82.6,42.2,29.23,SSW,202,0.0,3.4,24,0.00,,,0.00,VWS V14.01,2013-08-16 21:06:00,
2013-08-16 17:07:00,82.8,42.3,29.23,WSW,248,2.0,2.0,24,0.00,,,0.00,VWS V14.01,2013-08-16 21:07:00,
2013-08-16 17:08:00,83.1,42.6,29.23,NNW,338,0.9,2.5,24,0.00,,,0.00,VWS V14.01,2013-08-16 21:08:00,
2013-08-16 17:09:00,82.8,42.3,29.23,WSW,248,6.3,6.3,24,0.00,,,0.00,VWS V14.01,2013-08-16 21:09:00,
2013-08-16 17:10:00,81.5,41.3,29.23,NW,315,3.1,3.1,24,0.00,,,0.00,VWS V14.01,2013-08-16 21:10:00,
2013-08-16 17:11:00,81.3,41.1,29.23,NW,315,2.7,7.2,24,0.00,,,0.00,VWS V14.01,2013-08-16 21:11:00,
2013-08-16 17:12:00,81.3,42.2,29.23,WSW,248,3.1,3.1,25,0.00,,,0.00,VWS V14.01,2013-08-16 21:12:00,
2013-08-16 17:13:00,81.5,43.3,29.23,West,270,2.0,4.0,26,0.00,,,0.00,VWS V14.01,2013-08-16 21:13:00,
2013-08-16 17:14:00,81.0,42.9,29.23,WNW,292,4.7,6.0,26,0.00,,,0.00,VWS V14.01,2013-08-16 21:14:00,
2013-08-16 17:15:00,81.7,41.4,29.23,WNW,292,4.0,6.3,24,0.00,,,0.00,VWS V14.01,2013-08-16 21:15:00,
2013-08-16 17:16:00,81.1,43.0,29.26,WNW,292,2.7,5.4,26,0.00,,,0.00,VWS V14.01,2013-08-16 21:16:00,
2013-08-16 17:17:00,81.1,44.0,29.26,NNE,22,2.0,2.9,27,0.00,,,0.00,VWS V14.01,2013-08-16 21:17:00,
2013-08-16 17:18:00,81.7,44.5,29.26,West,270,2.7,2.7,27,0.00,,,0.00,VWS V14.01,2013-08-16 21:18:00,
2013-08-16 17:19:00,82.4,45.1,29.26,WSW,248,1.1,2.7,27,0.00,,,0.00,VWS V14.01,2013-08-16 21:19:00,
2013-08-16 17:20:00,81.0,42.9,29.23,WSW,248,3.8,4.7,26,0.00,,,0.00,VWS V14.01,2013-08-16 21:20:00,
2013-08-16 17:21:00,82.4,46.1,29.26,West,270,3.6,3.8,28,0.00,,,0.00,VWS V14.01,2013-08-16 21:21:00,
2013-08-16 17:22:00,82.6,46.2,29.26,WSW,248,0.0,3.6,28,0.00,,,0.00,VWS V14.01,2013-08-16 21:22:00,
2013-08-16 17:23:00,82.0,46.7,29.26,NW,315,3.8,5.4,29,0.00,,,0.00,VWS V14.01,2013-08-16 21:23:00,
2013-08-16 17:24:00,82.4,46.1,29.26,NW,315,0.0,3.8,28,0.00,,,0.00,VWS V14.01,2013-08-16 21:24:00,
2013-08-16 17:25:00,82.4,45.1,29.26,SW,225,0.0,1.1,27,0.00,,,0.00,VWS V14.01,2013-08-16 21:25:00,
2013-08-16 17:26:00,82.6,47.1,29.26,NNE,22,1.6,3.8,29,0.00,,,0.00,VWS V14.01,2013-08-16 21:26:00,
2013-08-16 17:27:00,82.8,47.3,29.26,WNW,292,4.9,4.9,29,0.00,,,0.00,VWS V14.01,2013-08-16 21:27:00,
2013-08-16 17:28:00,81.5,44.3,29.26,WSW,248,3.8,4.9,27,0.00,,,0.00,VWS V14.01,2013-08-16 21:28:00,
2013-08-16 17:29:00,81.0,44.8,29.26,WNW,292,4.0,5.8,28,0.00,,,0.00,VWS V14.01,2013-08-16 21:29:00,
2013-08-16 17:30:00,82.8,47.3,29.26,NW,315,1.3,1.3,29,0.00,,,0.00,VWS V14.01,2013-08-16 21:30:00,
2013-08-16 17:31:00,80.4,44.4,29.26,WSW,248,5.6,5.6,28,0.00,,,0.00,VWS V14.01,2013-08-16 21:31:00,
2013-08-16 17:32:00,80.1,45.0,29.26,West,270,5.8,5.8,29,0.00,,,0.00,VWS V14.01,2013-08-16 21:32:00,
2013-08-16 17:33:00,79.9,45.7,29.26,West,270,4.0,5.8,30,0.00,,,0.00,VWS V14.01,2013-08-16 21:33:00,
2013-08-16 17:34:00,80.4,46.2,29.26,West,270,2.0,6.0,30,0.00,,,0.00,VWS V14.01,2013-08-16 21:34:00,
2013-08-16 17:35:00,81.1,45.0,29.26,West,270,5.6,5.6,28,0.00,,,0.00,VWS V14.01,2013-08-16 21:35:00,
2013-08-16 17:36:00,80.6,46.3,29.26,West,270,3.6,4.7,30,0.00,,,0.00,VWS V14.01,2013-08-16 21:36:00,
2013-08-16 17:37:00,80.1,45.9,29.26,SSW,202,6.0,6.0,30,0.00,,,0.00,VWS V14.01,2013-08-16 21:37:00,
2013-08-16 17:38:00,79.7,45.6,29.26,WNW,292,4.3,6.0,30,0.00,,,0.00,VWS V14.01,2013-08-16 21:38:00,
2013-08-16 17:39:00,79.7,45.6,29.26,NNW,338,4.7,4.7,30,0.00,,,0.00,VWS V14.01,2013-08-16 21:39:00,
2013-08-16 17:40:00,81.1,46.8,29.26,WSW,248,1.3,2.0,30,0.00,,,0.00,VWS V14.01,2013-08-16 21:40:00,
2013-08-16 17:41:00,80.1,45.9,29.26,West,270,2.7,3.8,30,0.00,,,0.00,VWS V14.01,2013-08-16 21:41:00,
2013-08-16 17:42:00,79.9,45.7,29.26,West,270,2.5,4.7,30,0.00,,,0.00,VWS V14.01,2013-08-16 21:42:00,
2013-08-16 17:43:00,79.5,45.4,29.26,West,270,4.3,5.4,30,0.00,,,0.00,VWS V14.01,2013-08-16 21:43:00,
2013-08-16 17:44:00,79.5,45.4,29.26,West,270,1.1,4.3,30,0.00,,,0.00,VWS V14.01,2013-08-16 21:44:00,
2013-08-16 17:45:00,79.9,45.7,29.26,WSW,248,1.6,2.5,30,0.00,,,0.00,VWS V14.01,2013-08-16 21:45:00,
2013-08-16 17:46:00,79.7,45.6,29.26,WNW,292,3.4,3.4,30,0.00,,,0.00,VWS V14.01,2013-08-16 21:46:00,
2013-08-16 17:47:00,80.1,45.9,29.26,WNW,292,3.6,3.6,30,0.00,,,0.00,VWS V14.01,2013-08-16 21:47:00,
2013-08-16 17:48:00,80.1,45.9,29.26,WSW,248,3.8,3.8,30,0.00,,,0.00,VWS V14.01,2013-08-16 21:48:00,
2013-08-16 17:49:00,79.9,46.6,29.26,West,270,1.6,3.8,31,0.00,,,0.00,VWS V14.01,2013-08-16 21:49:00,
2013-08-16 17:50:00,79.5,46.3,29.26,WNW,292,3.6,3.6,31,0.00,,,0.00,VWS V14.01,2013-08-16 21:50:00,
2013-08-16 17:51:00,79.9,45.7,29.26,WNW,292,3.1,3.1,30,0.00,,,0.00,VWS V14.01,2013-08-16 21:51:00,
2013-08-16 17:52:00,79.9,46.6,29.26,West,270,2.5,2.5,31,0.00,,,0.00,VWS V14.01,2013-08-16 21:52:00,
2013-08-16 17:53:00,80.2,46.9,29.26,WNW,292,2.7,3.6,31,0.00,,,0.00,VWS V14.01,2013-08-16 21:53:00,
2013-08-16 17:54:00,79.9,46.6,29.26,West,270,4.0,4.3,31,0.00,,,0.00,VWS V14.01,2013-08-16 21:54:00,
2013-08-16 17:55:00,79.5,45.4,29.26,NNW,338,3.4,4.9,30,0.00,,,0.00,VWS V14.01,2013-08-16 21:55:00,
2013-08-16 17:56:00,79.5,46.3,29.26,WNW,292,3.6,3.6,31,0.00,,,0.00,VWS V14.01,2013-08-16 21:56:00,
2013-08-16 17:57:00,79.3,46.1,29.26,West,270,3.1,3.1,31,0.00,,,0.00,VWS V14.01,2013-08-16 21:57:00,
2013-08-16 17:58:00,79.3,46.1,29.26,WSW,248,4.0,4.0,31,0.00,,,0.00,VWS V14.01,2013-08-16 21:58:00,
2013-08-16 17:59:00,78.6,46.3,29.26,SW,225,6.0,6.3,32,0.00,,,0.00,VWS V14.01,2013-08-16 21:59:00,
2013-08-16 18:00:00,78.6,46.3,29.26,WNW,292,2.5,6.0,32,0.00,,,0.00,VWS V14.01,2013-08-16 22:00:00,
2013-08-16 18:01:00,79.5,46.3,29.26,NW,315,2.5,3.4,31,0.00,,,0.00,VWS V14.01,2013-08-16 22:01:00,
2013-08-16 18:02:00,78.8,46.5,29.26,WNW,292,3.1,3.1,32,0.00,,,0.00,VWS V14.01,2013-08-16 22:02:00,
2013-08-16 18:03:00,78.8,46.5,29.26,West,270,2.5,3.1,32,0.00,,,0.00,VWS V14.01,2013-08-16 22:03:00,
2013-08-16 18:04:00,79.0,46.6,29.26,West,270,2.0,2.5,32,0.00,,,0.00,VWS V14.01,2013-08-16 22:04:00,
2013-08-16 18:05:00,79.0,45.8,29.26,SW,225,4.0,4.0,31,0.00,,,0.00,VWS V14.01,2013-08-16 22:05:00,
2013-08-16 18:06:00,78.6,46.3,29.26,WNW,292,2.5,2.5,32,0.00,,,0.00,VWS V14.01,2013-08-16 22:06:00,
2013-08-16 18:07:00,79.0,45.8,29.26,West,270,0.0,4.0,31,0.00,,,0.00,VWS V14.01,2013-08-16 22:07:00,
2013-08-16 18:08:00,79.0,45.8,29.26,WNW,292,2.5,3.1,31,0.00,,,0.00,VWS V14.01,2013-08-16 22:08:00,
2013-08-16 18:09:00,79.0,45.8,29.26,WNW,292,2.0,2.9,31,0.00,,,0.00,VWS V14.01,2013-08-16 22:09:00,
2013-08-16 18:10:00,79.0,45.8,29.26,NW,315,1.6,2.7,31,0.00,,,0.00,VWS V14.01,2013-08-16 22:10:00,
2013-08-16 18:11:00,79.0,45.8,29.26,WSW,248,3.4,4.3,31,0.00,,,0.00,VWS V14.01,2013-08-16 22:11:00,
2013-08-16 18:12:00,79.2,45.1,29.26,WSW,248,2.0,3.6,30,0.00,,,0.00,VWS V14.01,2013-08-16 22:12:00,
2013-08-16 18:13:00,79.2,45.1,29.26,West,270,2.5,2.5,30,0.00,,,0.00,VWS V14.01,2013-08-16 22:13:00,
2013-08-16 18:14:00,79.0,44.9,29.26,NW,315,2.5,2.7,30,0.00,,,0.00,VWS V14.01,2013-08-16 22:14:00,
2013-08-16 18:15:00,78.8,44.8,29.26,North,0,1.1,4.9,30,0.00,,,0.00,VWS V14.01,2013-08-16 22:15:00,
2013-08-16 18:16:00,79.0,45.8,29.26,North,0,3.6,3.6,31,0.00,,,0.00,VWS V14.01,2013-08-16 22:16:00,
2013-08-16 18:17:00,78.4,45.3,29.23,West,270,4.9,4.9,31,0.00,,,0.00,VWS V14.01,2013-08-16 22:17:00,
2013-08-16 18:18:00,77.5,44.5,29.23,WSW,248,5.6,6.3,31,0.00,,,0.00,VWS V14.01,2013-08-16 22:18:00,
2013-08-16 18:19:00,77.7,44.7,29.23,WSW,248,1.3,5.6,31,0.00,,,0.00,VWS V14.01,2013-08-16 22:19:00,
2013-08-16 18:20:00,77.2,44.2,29.23,West,270,3.6,4.7,31,0.00,,,0.00,VWS V14.01,2013-08-16 22:20:00,
2013-08-16 18:21:00,78.4,45.3,29.26,WSW,248,5.6,5.6,31,0.00,,,0.00,VWS V14.01,2013-08-16 22:21:00,
2013-08-16 18:22:00,77.2,44.2,29.23,WNW,292,2.5,3.6,31,0.00,,,0.00,VWS V14.01,2013-08-16 22:22:00,
2013-08-16 18:23:00,77.4,44.4,29.23,WNW,292,2.0,3.1,31,0.00,,,0.00,VWS V14.01,2013-08-16 22:23:00,
2013-08-16 18:24:00,77.5,44.5,29.23,WNW,292,3.8,3.8,31,0.00,,,0.00,VWS V14.01,2013-08-16 22:24:00,
2013-08-16 18:25:00,77.4,44.4,29.23,West,270,2.7,4.0,31,0.00,,,0.00,VWS V14.01,2013-08-16 22:25:00,
2013-08-16 18:26:00,77.2,44.2,29.23,WSW,248,4.7,7.6,31,0.00,,,0.00,VWS V14.01,2013-08-16 22:26:00,
2013-08-16 18:27:00,76.8,43.9,29.23,WSW,248,2.9,4.3,31,0.00,,,0.00,VWS V14.01,2013-08-16 22:27:00,
2013-08-16 18:28:00,77.2,44.2,29.23,WNW,292,1.6,4.3,31,0.00,,,0.00,VWS V14.01,2013-08-16 22:28:00,
2013-08-16 18:29:00,77.4,44.4,29.23,WNW,292,2.0,2.7,31,0.00,,,0.00,VWS V14.01,2013-08-16 22:29:00,
2013-08-16 18:30:00,77.5,44.5,29.23,WNW,292,0.0,2.2,31,0.00,,,0.00,VWS V14.01,2013-08-16 22:30:00,
2013-08-16 18:31:00,76.6,43.8,29.23,WNW,292,4.0,5.6,31,0.00,,,0.00,VWS V14.01,2013-08-16 22:31:00,
2013-08-16 18:32:00,78.1,45.0,29.23,NNW,338,0.0,2.0,31,0.00,,,0.00,VWS V14.01,2013-08-16 22:32:00,
2013-08-16 18:33:00,78.3,45.2,29.23,WSW,248,2.5,2.5,31,0.00,,,0.00,VWS V14.01,2013-08-16 22:33:00,
2013-08-16 18:34:00,78.3,45.2,29.23,WNW,292,1.1,2.5,31,0.00,,,0.00,VWS V14.01,2013-08-16 22:34:00,
2013-08-16 18:35:00,78.4,45.3,29.23,WSW,248,2.2,2.2,31,0.00,,,0.00,VWS V14.01,2013-08-16 22:35:00,
2013-08-16 18:36:00,77.9,45.7,29.23,WNW,292,0.9,2.2,32,0.00,,,0.00,VWS V14.01,2013-08-16 22:36:00,
2013-08-16 18:37:00,77.7,44.7,29.23,NW,315,1.3,3.4,31,0.00,,,0.00,VWS V14.01,2013-08-16 22:37:00,
2013-08-16 18:38:00,77.9,45.7,29.23,WSW,248,0.0,2.2,32,0.00,,,0.00,VWS V14.01,2013-08-16 22:38:00,
2013-08-16 18:39:00,78.3,46.0,29.23,WSW,248,2.0,2.0,32,0.00,,,0.00,VWS V14.01,2013-08-16 22:39:00,
2013-08-16 18:40:00,78.3,46.0,29.23,West,270,1.1,2.2,32,0.00,,,0.00,VWS V14.01,2013-08-16 22:40:00,
2013-08-16 18:41:00,78.4,45.3,29.23,WSW,248,4.3,4.3,31,0.00,,,0.00,VWS V14.01,2013-08-16 22:41:00,
2013-08-16 18:42:00,78.3,46.0,29.23,NNW,338,0.0,1.6,32,0.00,,,0.00,VWS V14.01,2013-08-16 22:42:00,
2013-08-16 18:43:00,78.3,46.0,29.23,SW,225,2.0,2.0,32,0.00,,,0.00,VWS V14.01,2013-08-16 22:43:00,
2013-08-16 18:44:00,78.3,46.0,29.23,NW,315,1.1,4.7,32,0.00,,,0.00,VWS V14.01,2013-08-16 22:44:00,
2013-08-16 18:45:00,78.3,46.0,29.23,WSW,248,1.3,2.5,32,0.00,,,0.00,VWS V14.01,2013-08-16 22:45:00,
2013-08-16 18:46:00,78.3,46.0,29.23,West,270,1.3,1.3,32,0.00,,,0.00,VWS V14.01,2013-08-16 22:46:00,
2013-08-16 18:47:00,78.4,45.3,29.26,NW,315,1.1,2.0,31,0.00,,,0.00,VWS V14.01,2013-08-16 22:47:00,
2013-08-16 18:48:00,78.4,45.3,29.26,NW,315,0.0,1.1,31,0.00,,,0.00,VWS V14.01,2013-08-16 22:48:00,
2013-08-16 18:49:00,78.8,45.6,29.26,NW,315,0.0,0.0,31,0.00,,,0.00,VWS V14.01,2013-08-16 22:49:00,
2013-08-16 18:50:00,79.0,45.8,29.26,NW,315,0.0,1.3,31,0.00,,,0.00,VWS V14.01,2013-08-16 22:50:00,
2013-08-16 18:51:00,78.6,45.5,29.23,WNW,292,1.6,2.2,31,0.00,,,0.00,VWS V14.01,2013-08-16 22:51:00,
2013-08-16 18:52:00,78.6,45.5,29.26,WSW,248,3.6,3.6,31,0.00,,,0.00,VWS V14.01,2013-08-16 22:52:00,
2013-08-16 18:53:00,78.1,45.0,29.26,West,270,4.9,4.9,31,0.00,,,0.00,VWS V14.01,2013-08-16 22:53:00,
2013-08-16 18:54:00,78.1,45.0,29.26,West,270,3.6,4.9,31,0.00,,,0.00,VWS V14.01,2013-08-16 22:54:00,
2013-08-16 18:55:00,76.8,43.9,29.26,WSW,248,5.4,6.5,31,0.00,,,0.00,VWS V14.01,2013-08-16 22:55:00,
2013-08-16 18:56:00,79.0,45.8,29.26,West,270,2.0,2.0,31,0.00,,,0.00,VWS V14.01,2013-08-16 22:56:00,
2013-08-16 18:57:00,75.9,43.2,29.26,NNW,338,4.0,4.0,31,0.00,,,0.00,VWS V14.01,2013-08-16 22:57:00,
2013-08-16 18:58:00,75.9,43.2,29.26,West,270,3.6,4.0,31,0.00,,,0.00,VWS V14.01,2013-08-16 22:58:00,
2013-08-16 18:59:00,75.7,43.0,29.26,West,270,3.6,3.6,31,0.00,,,0.00,VWS V14.01,2013-08-16 22:59:00,
2013-08-16 19:00:00,75.7,43.0,29.26,WSW,248,3.1,3.6,31,0.00,,,0.00,VWS V14.01,2013-08-16 23:00:00,
2013-08-16 19:01:00,76.3,43.5,29.26,West,270,2.7,5.4,31,0.00,,,0.00,VWS V14.01,2013-08-16 23:01:00,
2013-08-16 19:02:00,75.4,42.7,29.26,West,270,3.4,4.3,31,0.00,,,0.00,VWS V14.01,2013-08-16 23:02:00,
2013-08-16 19:03:00,75.6,43.7,29.26,WSW,248,3.4,3.4,32,0.00,,,0.00,VWS V14.01,2013-08-16 23:03:00,
2013-08-16 19:04:00,75.4,43.5,29.26,West,270,3.8,3.8,32,0.00,,,0.00,VWS V14.01,2013-08-16 23:04:00,
2013-08-16 19:05:00,75.6,43.7,29.26,WSW,248,2.9,3.8,32,0.00,,,0.00,VWS V14.01,2013-08-16 23:05:00,
2013-08-16 19:06:00,75.6,42.8,29.26,SSW,202,3.8,3.8,31,0.00,,,0.00,VWS V14.01,2013-08-16 23:06:00,
2013-08-16 19:07:00,75.4,43.5,29.26,West,270,2.9,5.6,32,0.00,,,0.00,VWS V14.01,2013-08-16 23:07:00,
2013-08-16 19:08:00,75.7,43.8,29.26,West,270,1.6,2.9,32,0.00,,,0.00,VWS V14.01,2013-08-16 23:08:00,
2013-08-16 19:09:00,75.7,43.8,29.26,WSW,248,1.3,2.0,32,0.00,,,0.00,VWS V14.01,2013-08-16 23:09:00,
2013-08-16 19:10:00,75.9,44.0,29.26,WSW,248,0.9,2.5,32,0.00,,,0.00,VWS V14.01,2013-08-16 23:10:00,
2013-08-16 19:11:00,75.6,43.7,29.26,WSW,248,3.6,3.6,32,0.00,,,0.00,VWS V14.01,2013-08-16 23:11:00,
2013-08-16 19:12:00,76.3,44.3,29.26,West,270,1.1,2.5,32,0.00,,,0.00,VWS V14.01,2013-08-16 23:12:00,
2013-08-16 19:13:00,76.5,44.4,29.26,West,270,0.0,2.2,32,0.00,,,0.00,VWS V14.01,2013-08-16 23:13:00,
2013-08-16 19:14:00,76.6,45.4,29.26,West,270,0.0,0.0,33,0.00,,,0.00,VWS V14.01,2013-08-16 23:14:00,
2013-08-16 19:15:00,76.3,44.3,29.26,West,270,2.0,2.5,32,0.00,,,0.00,VWS V14.01,2013-08-16 23:15:00,
2013-08-16 19:16:00,76.3,44.3,29.26,West,270,1.1,2.9,32,0.00,,,0.00,VWS V14.01,2013-08-16 23:16:00,
2013-08-16 19:17:00,76.3,44.3,29.26,WSW,248,2.0,2.5,32,0.00,,,0.00,VWS V14.01,2013-08-16 23:17:00,
2013-08-16 19:18:00,76.5,44.4,29.26,West,270,2.5,2.5,32,0.00,,,0.00,VWS V14.01,2013-08-16 23:18:00,
2013-08-16 19:19:00,76.5,44.4,29.26,West,270,1.1,2.5,32,0.00,,,0.00,VWS V14.01,2013-08-16 23:19:00,
2013-08-16 19:20:00,76.3,44.3,29.26,WNW,292,2.0,2.0,32,0.00,,,0.00,VWS V14.01,2013-08-16 23:20:00,
2013-08-16 19:21:00,76.1,44.1,29.26,WSW,248,2.5,2.5,32,0.00,,,0.00,VWS V14.01,2013-08-16 23:21:00,
2013-08-16 19:22:00,76.5,44.4,29.26,West,270,1.6,1.6,32,0.00,,,0.00,VWS V14.01,2013-08-16 23:22:00,
2013-08-16 19:23:00,75.4,43.5,29.26,West,270,2.5,3.8,32,0.00,,,0.00,VWS V14.01,2013-08-16 23:23:00,
2013-08-16 19:24:00,75.4,43.5,29.26,West,270,3.4,3.4,32,0.00,,,0.00,VWS V14.01,2013-08-16 23:24:00,
2013-08-16 19:25:00,75.4,43.5,29.26,West,270,1.1,3.4,32,0.00,,,0.00,VWS V14.01,2013-08-16 23:25:00,
2013-08-16 19:26:00,75.2,43.3,29.26,West,270,2.7,3.4,32,0.00,,,0.00,VWS V14.01,2013-08-16 23:26:00,
2013-08-16 19:27:00,76.1,44.1,29.26,West,270,2.2,2.5,32,0.00,,,0.00,VWS V14.01,2013-08-16 23:27:00,
2013-08-16 19:28:00,75.4,43.5,29.26,WSW,248,0.0,0.0,32,0.00,,,0.00,VWS V14.01,2013-08-16 23:28:00,
2013-08-16 19:29:00,75.4,43.5,29.26,WSW,248,1.3,1.3,32,0.00,,,0.00,VWS V14.01,2013-08-16 23:29:00,
2013-08-16 19:30:00,75.2,43.3,29.26,WSW,248,1.1,2.0,32,0.00,,,0.00,VWS V14.01,2013-08-16 23:30:00,
2013-08-16 19:31:00,75.2,43.3,29.26,WSW,248,0.0,1.1,32,0.00,,,0.00,VWS V14.01,2013-08-16 23:31:00,
2013-08-16 19:32:00,75.2,43.3,29.26,West,270,1.3,2.7,32,0.00,,,0.00,VWS V14.01,2013-08-16 23:32:00,
2013-08-16 19:33:00,75.2,43.3,29.26,West,270,0.0,1.6,32,0.00,,,0.00,VWS V14.01,2013-08-16 23:33:00,
2013-08-16 19:34:00,75.2,44.2,29.26,West,270,1.6,1.6,33,0.00,,,0.00,VWS V14.01,2013-08-16 23:34:00,
2013-08-16 19:35:00,75.0,44.0,29.26,West,270,1.3,1.6,33,0.00,,,0.00,VWS V14.01,2013-08-16 23:35:00,
2013-08-16 19:36:00,74.8,43.8,29.26,West,270,0.0,1.3,33,0.00,,,0.00,VWS V14.01,2013-08-16 23:36:00,
2013-08-16 19:37:00,75.2,43.3,29.26,WSW,248,1.6,1.6,32,0.00,,,0.00,VWS V14.01,2013-08-16 23:37:00,
2013-08-16 19:38:00,74.7,43.7,29.26,West,270,1.3,2.0,33,0.00,,,0.00,VWS V14.01,2013-08-16 23:38:00,
2013-08-16 19:39:00,74.5,43.5,29.26,West,270,2.5,2.7,33,0.00,,,0.00,VWS V14.01,2013-08-16 23:39:00,
2013-08-16 19:40:00,74.3,43.4,29.26,West,270,2.7,2.9,33,0.00,,,0.00,VWS V14.01,2013-08-16 23:40:00,
2013-08-16 19:41:00,74.1,44.0,29.26,West,270,1.6,3.6,34,0.00,,,0.00,VWS V14.01,2013-08-16 23:41:00,
2013-08-16 19:42:00,74.8,43.8,29.26,West,270,0.0,0.0,33,0.00,,,0.00,VWS V14.01,2013-08-16 23:42:00,
2013-08-16 19:43:00,73.8,43.7,29.26,West,270,4.0,4.9,34,0.00,,,0.00,VWS V14.01,2013-08-16 23:43:00,
2013-08-16 19:44:00,73.6,42.7,29.26,West,270,1.3,4.0,33,0.00,,,0.00,VWS V14.01,2013-08-16 23:44:00,
2013-08-16 19:45:00,73.4,43.3,29.26,West,270,2.5,2.5,34,0.00,,,0.00,VWS V14.01,2013-08-16 23:45:00,
2013-08-16 19:46:00,73.2,43.2,29.26,West,270,2.9,2.9,34,0.00,,,0.00,VWS V14.01,2013-08-16 23:46:00,
2013-08-16 19:47:00,74.1,44.0,29.26,WSW,248,1.6,1.6,34,0.00,,,0.00,VWS V14.01,2013-08-16 23:47:00,
2013-08-16 19:48:00,73.0,43.0,29.26,West,270,1.3,2.9,34,0.00,,,0.00,VWS V14.01,2013-08-16 23:48:00,
2013-08-16 19:49:00,73.0,43.0,29.26,West,270,2.5,2.5,34,0.00,,,0.00,VWS V14.01,2013-08-16 23:49:00,
2013-08-16 19:50:00,72.9,43.6,29.26,WSW,248,2.0,2.9,35,0.00,,,0.00,VWS V14.01,2013-08-16 23:50:00,
2013-08-16 19:51:00,72.7,43.5,29.26,West,270,2.0,2.2,35,0.00,,,0.00,VWS V14.01,2013-08-16 23:51:00,
2013-08-16 19:52:00,73.2,43.2,29.26,West,270,2.0,3.1,34,0.00,,,0.00,VWS V14.01,2013-08-16 23:52:00,
2013-08-16 19:53:00,72.7,43.5,29.26,West,270,1.3,2.0,35,0.00,,,0.00,VWS V14.01,2013-08-16 23:53:00,
2013-08-16 19:54:00,72.5,43.3,29.26,West,270,2.0,3.1,35,0.00,,,0.00,VWS V14.01,2013-08-16 23:54:00,
2013-08-16 19:55:00,72.5,44.1,29.26,West,270,2.7,2.7,36,0.00,,,0.00,VWS V14.01,2013-08-16 23:55:00,
2013-08-16 19:56:00,72.5,44.1,29.26,West,270,0.9,2.9,36,0.00,,,0.00,VWS V14.01,2013-08-16 23:56:00,
2013-08-16 19:57:00,72.7,43.5,29.26,West,270,1.6,2.5,35,0.00,,,0.00,VWS V14.01,2013-08-16 23:57:00,
2013-08-16 19:58:00,72.0,43.6,29.26,West,270,1.6,2.0,36,0.00,,,0.00,VWS V14.01,2013-08-16 23:58:00,
2013-08-16 19:59:00,72.0,44.3,29.26,West,270,1.3,2.7,37,0.00,,,0.00,VWS V14.01,2013-08-16 23:59:00,
2013-08-16 20:00:00,72.0,44.3,29.26,West,270,2.2,2.2,37,0.00,,,0.00,VWS V14.01,2013-08-17 00:00:00,
2013-08-16 20:01:00,71.8,44.1,29.26,West,270,1.6,2.2,37,0.00,,,0.00,VWS V14.01,2013-08-17 00:01:00,
2013-08-16 20:02:00,72.3,43.9,29.26,West,270,2.0,3.1,36,0.00,,,0.00,VWS V14.01,2013-08-17 00:02:00,
2013-08-16 20:03:00,71.6,44.0,29.26,West,270,0.9,2.2,37,0.00,,,0.00,VWS V14.01,2013-08-17 00:03:00,
2013-08-16 20:04:00,71.6,44.7,29.26,West,270,1.3,1.6,38,0.00,,,0.00,VWS V14.01,2013-08-17 00:04:00,
2013-08-16 20:05:00,71.4,44.5,29.26,West,270,1.3,1.6,38,0.00,,,0.00,VWS V14.01,2013-08-17 00:05:00,
2013-08-16 20:06:00,71.4,44.5,29.26,West,270,1.6,1.6,38,0.00,,,0.00,VWS V14.01,2013-08-17 00:06:00,
2013-08-16 20:07:00,71.8,44.1,29.26,West,270,1.3,1.6,37,0.00,,,0.00,VWS V14.01,2013-08-17 00:07:00,
2013-08-16 20:08:00,71.4,44.5,29.26,West,270,0.0,0.0,38,0.00,,,0.00,VWS V14.01,2013-08-17 00:08:00,
2013-08-16 20:09:00,70.9,44.7,29.26,SW,225,1.1,1.1,39,0.00,,,0.00,VWS V14.01,2013-08-17 00:09:00,
2013-08-16 20:10:00,70.7,44.6,29.26,SSW,202,1.6,2.5,39,0.00,,,0.00,VWS V14.01,2013-08-17 00:10:00,
2013-08-16 20:11:00,70.7,44.6,29.26,SSW,202,0.0,1.6,39,0.00,,,0.00,VWS V14.01,2013-08-17 00:11:00,
2013-08-16 20:12:00,70.3,44.9,29.26,SSW,202,1.1,1.1,40,0.00,,,0.00,VWS V14.01,2013-08-17 00:12:00,
2013-08-16 20:13:00,71.4,44.5,29.26,West,270,0.0,0.0,38,0.00,,,0.00,VWS V14.01,2013-08-17 00:13:00,
2013-08-16 20:14:00,70.2,44.7,29.26,SSW,202,0.0,1.1,40,0.00,,,0.00,VWS V14.01,2013-08-17 00:14:00,
2013-08-16 20:15:00,70.0,44.6,29.26,WSW,248,0.9,1.3,40,0.00,,,0.00,VWS V14.01,2013-08-17 00:15:00,
2013-08-16 20:16:00,70.0,44.6,29.26,WSW,248,0.0,2.0,40,0.00,,,0.00,VWS V14.01,2013-08-17 00:16:00,
2013-08-16 20:17:00,69.8,45.1,29.26,WSW,248,0.0,0.0,41,0.00,,,0.00,VWS V14.01,2013-08-17 00:17:00,
2013-08-16 20:18:00,70.3,44.9,29.26,SSW,202,1.6,1.6,40,0.00,,,0.00,VWS V14.01,2013-08-17 00:18:00,
2013-08-16 20:19:00,69.8,44.4,29.26,WSW,248,0.0,1.1,40,0.00,,,0.00,VWS V14.01,2013-08-17 00:19:00,
2013-08-16 20:20:00,69.6,45.5,29.26,WSW,248,1.3,1.3,42,0.00,,,0.00,VWS V14.01,2013-08-17 00:20:00,
2013-08-16 20:21:00,69.3,44.6,29.26,WSW,248,1.6,1.6,41,0.00,,,0.00,VWS V14.01,2013-08-17 00:21:00,
2013-08-16 20:22:00,69.3,44.6,29.26,SSW,202,1.6,2.2,41,0.00,,,0.00,VWS V14.01,2013-08-17 00:22:00,
2013-08-16 20:23:00,69.8,45.1,29.26,WSW,248,0.0,0.0,41,0.00,,,0.00,VWS V14.01,2013-08-17 00:23:00,
2013-08-16 20:24:00,69.3,44.6,29.26,SW,225,0.0,2.9,41,0.00,,,0.00,VWS V14.01,2013-08-17 00:24:00,
2013-08-16 20:25:00,69.3,44.6,29.26,SSW,202,1.1,1.1,41,0.00,,,0.00,VWS V14.01,2013-08-17 00:25:00,
2013-08-16 20:26:00,69.3,44.6,29.26,South,180,2.2,2.2,41,0.00,,,0.00,VWS V14.01,2013-08-17 00:26:00,
2013-08-16 20:27:00,68.5,45.2,29.26,SW,225,2.0,2.9,43,0.00,,,0.00,VWS V14.01,2013-08-17 00:27:00,
2013-08-16 20:28:00,69.3,44.6,29.26,SSW,202,2.0,2.0,41,0.00,,,0.00,VWS V14.01,2013-08-17 00:28:00,
2013-08-16 20:29:00,68.2,44.9,29.26,SSW,202,1.1,1.6,43,0.00,,,0.00,VWS V14.01,2013-08-17 00:29:00,
2013-08-16 20:30:00,68.0,44.7,29.26,SSW,202,1.1,2.2,43,0.00,,,0.00,VWS V14.01,2013-08-17 00:30:00,
2013-08-16 20:31:00,68.0,44.7,29.26,SSW,202,1.1,1.1,43,0.00,,,0.00,VWS V14.01,2013-08-17 00:31:00,
2013-08-16 20:32:00,68.0,44.7,29.26,SSW,202,0.0,1.3,43,0.00,,,0.00,VWS V14.01,2013-08-17 00:32:00,
2013-08-16 20:33:00,68.5,45.2,29.26,SW,225,1.6,2.0,43,0.00,,,0.00,VWS V14.01,2013-08-17 00:33:00,
2013-08-16 20:34:00,67.6,44.4,29.26,SW,225,2.0,2.0,43,0.00,,,0.00,VWS V14.01,2013-08-17 00:34:00,
2013-08-16 20:35:00,67.5,44.8,29.26,SSW,202,0.9,2.0,44,0.00,,,0.00,VWS V14.01,2013-08-17 00:35:00,
2013-08-16 20:36:00,67.3,44.7,29.26,SW,225,1.6,1.6,44,0.00,,,0.00,VWS V14.01,2013-08-17 00:36:00,
2013-08-16 20:37:00,67.3,44.7,29.26,SW,225,2.2,2.5,44,0.00,,,0.00,VWS V14.01,2013-08-17 00:37:00,
2013-08-16 20:38:00,67.8,44.5,29.26,SSW,202,0.0,0.0,43,0.00,,,0.00,VWS V14.01,2013-08-17 00:38:00,
2013-08-16 20:39:00,67.3,45.2,29.26,SW,225,1.6,2.5,45,0.00,,,0.00,VWS V14.01,2013-08-17 00:39:00,
2013-08-16 20:40:00,67.1,45.1,29.26,SW,225,1.6,2.0,45,0.00,,,0.00,VWS V14.01,2013-08-17 00:40:00,
2013-08-16 20:41:00,67.1,45.1,29.26,SW,225,1.1,1.6,45,0.00,,,0.00,VWS V14.01,2013-08-17 00:41:00,
2013-08-16 20:42:00,67.1,45.1,29.26,SW,225,1.1,1.1,45,0.00,,,0.00,VWS V14.01,2013-08-17 00:42:00,
2013-08-16 20:43:00,67.3,44.7,29.26,SW,225,2.2,2.5,44,0.00,,,0.00,VWS V14.01,2013-08-17 00:43:00,
2013-08-16 20:44:00,66.9,44.9,29.26,SW,225,0.0,0.0,45,0.00,,,0.00,VWS V14.01,2013-08-17 00:44:00,
2013-08-16 20:45:00,66.9,44.9,29.26,SW,225,0.0,0.0,45,0.00,,,0.00,VWS V14.01,2013-08-17 00:45:00,
2013-08-16 20:46:00,66.7,44.7,29.26,SW,225,0.0,0.0,45,0.00,,,0.00,VWS V14.01,2013-08-17 00:46:00,
2013-08-16 20:47:00,66.6,45.2,29.26,SW,225,0.0,0.0,46,0.00,,,0.00,VWS V14.01,2013-08-17 00:47:00,
2013-08-16 20:48:00,66.9,44.9,29.26,SW,225,1.1,1.6,45,0.00,,,0.00,VWS V14.01,2013-08-17 00:48:00,
2013-08-16 20:49:00,66.4,45.0,29.26,South,180,0.0,0.0,46,0.00,,,0.00,VWS V14.01,2013-08-17 00:49:00,
2013-08-16 20:50:00,66.4,45.0,29.26,South,180,0.0,0.0,46,0.00,,,0.00,VWS V14.01,2013-08-17 00:50:00,
2013-08-16 20:51:00,66.0,45.2,29.26,South,180,0.0,0.0,47,0.00,,,0.00,VWS V14.01,2013-08-17 00:51:00,
2013-08-16 20:52:00,66.0,45.2,29.26,South,180,1.3,1.3,47,0.00,,,0.00,VWS V14.01,2013-08-17 00:52:00,
2013-08-16 20:53:00,66.6,45.2,29.26,SW,225,0.0,0.0,46,0.00,,,0.00,VWS V14.01,2013-08-17 00:53:00,
2013-08-16 20:54:00,65.8,45.1,29.26,SSE,158,1.3,1.3,47,0.00,,,0.00,VWS V14.01,2013-08-17 00:54:00,
2013-08-16 20:55:00,65.7,44.9,29.26,SE,135,1.3,1.6,47,0.00,,,0.00,VWS V14.01,2013-08-17 00:55:00,
2013-08-16 20:56:00,65.5,45.3,29.26,SE,135,1.1,1.3,48,0.00,,,0.00,VWS V14.01,2013-08-17 00:56:00,
2013-08-16 20:57:00,65.5,45.3,29.26,SE,135,1.1,1.6,48,0.00,,,0.00,VWS V14.01,2013-08-17 00:57:00,
2013-08-16 20:58:00,66.0,45.2,29.26,SSE,158,1.3,1.3,47,0.00,,,0.00,VWS V14.01,2013-08-17 00:58:00,
2013-08-16 20:59:00,65.3,45.1,29.26,SE,135,0.0,1.3,48,0.00,,,0.00,VWS V14.01,2013-08-17 00:59:00,
2013-08-16 21:00:00,65.3,45.7,29.26,SE,135,0.0,0.0,49,0.00,,,0.00,VWS V14.01,2013-08-17 01:00:00,
2013-08-16 21:01:00,65.1,45.5,29.26,SE,135,0.0,0.0,49,0.00,,,0.00,VWS V14.01,2013-08-17 01:01:00,
2013-08-16 21:02:00,65.1,45.5,29.26,SE,135,0.0,0.0,49,0.00,,,0.00,VWS V14.01,2013-08-17 01:02:00,
2013-08-16 21:03:00,65.5,45.3,29.26,SE,135,1.1,1.1,48,0.00,,,0.00,VWS V14.01,2013-08-17 01:03:00,
2013-08-16 21:04:00,64.9,45.3,29.26,SE,135,0.0,0.0,49,0.00,,,0.00,VWS V14.01,2013-08-17 01:04:00,
2013-08-16 21:05:00,64.9,45.3,29.26,SE,135,0.0,0.0,49,0.00,,,0.00,VWS V14.01,2013-08-17 01:05:00,
2013-08-16 21:06:00,64.8,45.2,29.26,SE,135,0.0,0.0,49,0.00,,,0.00,VWS V14.01,2013-08-17 01:06:00,
2013-08-16 21:07:00,64.8,45.2,29.26,SE,135,0.0,0.0,49,0.00,,,0.00,VWS V14.01,2013-08-17 01:07:00,
2013-08-16 21:08:00,65.1,45.5,29.26,SE,135,0.0,0.0,49,0.00,,,0.00,VWS V14.01,2013-08-17 01:08:00,
2013-08-16 21:09:00,64.6,45.5,29.26,SE,135,0.0,0.0,50,0.00,,,0.00,VWS V14.01,2013-08-17 01:09:00,
2013-08-16 21:10:00,64.6,45.5,29.26,SE,135,0.0,0.0,50,0.00,,,0.00,VWS V14.01,2013-08-17 01:10:00,
2013-08-16 21:11:00,64.4,45.4,29.26,SE,135,0.0,0.0,50,0.00,,,0.00,VWS V14.01,2013-08-17 01:11:00,
2013-08-16 21:12:00,64.2,45.2,29.26,SE,135,0.0,0.0,50,0.00,,,0.00,VWS V14.01,2013-08-17 01:12:00,
2013-08-16 21:13:00,64.8,45.2,29.26,SE,135,0.0,0.0,49,0.00,,,0.00,VWS V14.01,2013-08-17 01:13:00,
2013-08-16 21:14:00,63.9,44.9,29.26,SE,135,0.0,0.0,50,0.00,,,0.00,VWS V14.01,2013-08-17 01:14:00,
2013-08-16 21:15:00,63.9,44.9,29.26,SE,135,0.0,0.0,50,0.00,,,0.00,VWS V14.01,2013-08-17 01:15:00,
2013-08-16 21:16:00,63.7,44.7,29.23,SE,135,1.1,1.1,50,0.00,,,0.00,VWS V14.01,2013-08-17 01:16:00,
2013-08-16 21:17:00,63.7,44.7,29.23,SE,135,1.3,2.5,50,0.00,,,0.00,VWS V14.01,2013-08-17 01:17:00,
2013-08-16 21:18:00,64.0,45.6,29.26,SE,135,0.0,0.0,51,0.00,,,0.00,VWS V14.01,2013-08-17 01:18:00,
2013-08-16 21:19:00,63.7,45.2,29.23,SE,135,1.3,1.3,51,0.00,,,0.00,VWS V14.01,2013-08-17 01:19:00,
2013-08-16 21:20:00,63.7,45.8,29.23,SE,135,1.6,1.6,52,0.00,,,0.00,VWS V14.01,2013-08-17 01:20:00,
2013-08-16 21:21:00,63.7,45.8,29.23,SE,135,0.9,2.0,52,0.00,,,0.00,VWS V14.01,2013-08-17 01:21:00,
2013-08-16 21:22:00,63.5,46.6,29.23,SE,135,1.6,1.6,54,0.00,,,0.00,VWS V14.01,2013-08-17 01:22:00,
2013-08-16 21:23:00,63.7,45.2,29.23,SE,135,1.1,1.3,51,0.00,,,0.00,VWS V14.01,2013-08-17 01:23:00,
2013-08-16 21:24:00,63.3,46.4,29.23,ESE,112,1.3,2.0,54,0.00,,,0.00,VWS V14.01,2013-08-17 01:24:00,
2013-08-16 21:25:00,63.1,46.2,29.23,ESE,112,1.3,1.6,54,0.00,,,0.00,VWS V14.01,2013-08-17 01:25:00,
2013-08-16 21:26:00,63.0,46.1,29.23,ESE,112,1.6,2.0,54,0.00,,,0.00,VWS V14.01,2013-08-17 01:26:00,
2013-08-16 21:27:00,63.0,45.6,29.23,ESE,112,0.0,1.6,53,0.00,,,0.00,VWS V14.01,2013-08-17 01:27:00,
2013-08-16 21:28:00,63.3,46.4,29.23,SE,135,1.6,1.6,54,0.00,,,0.00,VWS V14.01,2013-08-17 01:28:00,
2013-08-16 21:29:00,63.0,46.1,29.23,ESE,112,0.0,1.3,54,0.00,,,0.00,VWS V14.01,2013-08-17 01:29:00,
2013-08-16 21:30:00,63.1,46.2,29.23,SW,225,1.6,1.6,54,0.00,,,0.00,VWS V14.01,2013-08-17 01:30:00,
2013-08-16 21:31:00,63.1,46.2,29.26,SSE,158,0.9,1.6,54,0.00,,,0.00,VWS V14.01,2013-08-17 01:31:00,
2013-08-16 21:32:00,63.1,46.2,29.26,SSE,158,0.0,0.9,54,0.00,,,0.00,VWS V14.01,2013-08-17 01:32:00,
2013-08-16 21:33:00,63.0,45.6,29.23,ESE,112,1.3,1.3,53,0.00,,,0.00,VWS V14.01,2013-08-17 01:33:00,
2013-08-16 21:34:00,63.1,46.7,29.26,SSE,158,0.9,1.1,55,0.00,,,0.00,VWS V14.01,2013-08-17 01:34:00,
2013-08-16 21:35:00,63.0,46.1,29.26,SE,135,0.0,1.6,54,0.00,,,0.00,VWS V14.01,2013-08-17 01:35:00,
2013-08-16 21:36:00,63.0,46.1,29.26,SE,135,0.0,0.0,54,0.00,,,0.00,VWS V14.01,2013-08-17 01:36:00,
2013-08-16 21:37:00,63.0,46.1,29.26,SE,135,1.3,1.3,54,0.00,,,0.00,VWS V14.01,2013-08-17 01:37:00,
2013-08-16 21:38:00,63.1,46.2,29.26,SSE,158,1.1,1.1,54,0.00,,,0.00,VWS V14.01,2013-08-17 01:38:00,
2013-08-16 21:39:00,63.0,46.1,29.26,SE,135,0.0,0.0,54,0.00,,,0.00,VWS V14.01,2013-08-17 01:39:00,
2013-08-16 21:40:00,63.0,46.1,29.26,SE,135,0.9,0.9,54,0.00,,,0.00,VWS V14.01,2013-08-17 01:40:00,
2013-08-16 21:41:00,63.0,46.1,29.26,SE,135,1.1,1.1,54,0.00,,,0.00,VWS V14.01,2013-08-17 01:41:00,
2013-08-16 21:42:00,63.0,46.1,29.26,SE,135,0.9,1.3,54,0.00,,,0.00,VWS V14.01,2013-08-17 01:42:00,
2013-08-16 21:43:00,63.0,46.1,29.26,SE,135,0.0,1.3,54,0.00,,,0.00,VWS V14.01,2013-08-17 01:43:00,
2013-08-16 21:44:00,62.8,45.9,29.26,SE,135,1.3,1.6,54,0.00,,,0.00,VWS V14.01,2013-08-17 01:44:00,
2013-08-16 21:45:00,62.8,45.9,29.26,SE,135,1.1,1.3,54,0.00,,,0.00,VWS V14.01,2013-08-17 01:45:00,
2013-08-16 21:46:00,62.8,45.9,29.26,SE,135,0.0,1.1,54,0.00,,,0.00,VWS V14.01,2013-08-17 01:46:00,
2013-08-16 21:47:00,62.8,45.9,29.26,SE,135,0.0,0.0,54,0.00,,,0.00,VWS V14.01,2013-08-17 01:47:00,
2013-08-16 21:48:00,63.0,46.1,29.26,SE,135,1.6,2.0,54,0.00,,,0.00,VWS V14.01,2013-08-17 01:48:00,
2013-08-16 21:49:00,62.8,45.9,29.26,SE,135,0.9,1.1,54,0.00,,,0.00,VWS V14.01,2013-08-17 01:49:00,
2013-08-16 21:50:00,62.8,46.4,29.26,SE,135,1.6,1.6,55,0.00,,,0.00,VWS V14.01,2013-08-17 01:50:00,
2013-08-16 21:51:00,62.6,46.2,29.26,SE,135,0.0,1.6,55,0.00,,,0.00,VWS V14.01,2013-08-17 01:51:00,
2013-08-16 21:52:00,62.6,45.7,29.26,SE,135,0.9,1.3,54,0.00,,,0.00,VWS V14.01,2013-08-17 01:52:00,
2013-08-16 21:53:00,62.8,45.9,29.26,SE,135,0.0,0.9,54,0.00,,,0.00,VWS V14.01,2013-08-17 01:53:00,
2013-08-16 21:54:00,62.4,46.1,29.26,SE,135,0.0,1.1,55,0.00,,,0.00,VWS V14.01,2013-08-17 01:54:00,
2013-08-16 21:55:00,62.4,46.1,29.26,SE,135,0.0,0.9,55,0.00,,,0.00,VWS V14.01,2013-08-17 01:55:00,
2013-08-16 21:56:00,62.4,46.1,29.26,SE,135,0.0,0.0,55,0.00,,,0.00,VWS V14.01,2013-08-17 01:56:00,
2013-08-16 21:57:00,62.2,45.9,29.26,SE,135,0.0,0.0,55,0.00,,,0.00,VWS V14.01,2013-08-17 01:57:00,
2013-08-16 21:58:00,62.4,46.1,29.26,SE,135,0.9,1.6,55,0.00,,,0.00,VWS V14.01,2013-08-17 01:58:00,
2013-08-16 21:59:00,62.4,46.1,29.26,SE,135,0.0,0.0,55,0.00,,,0.00,VWS V14.01,2013-08-17 01:59:00,
2013-08-16 22:00:00,62.4,46.1,29.26,SE,135,0.0,0.0,55,0.00,,,0.00,VWS V14.01,2013-08-17 02:00:00,
2013-08-16 22:01:00,62.4,46.1,29.29,SE,135,0.0,0.0,55,0.00,,,0.00,VWS V14.01,2013-08-17 02:01:00,
2013-08-16 22:02:00,62.4,46.1,29.29,SE,135,0.0,0.0,55,0.00,,,0.00,VWS V14.01,2013-08-17 02:02:00,
2013-08-16 22:03:00,62.2,45.9,29.26,SE,135,0.0,0.0,55,0.00,,,0.00,VWS V14.01,2013-08-17 02:03:00,
2013-08-16 22:04:00,62.4,46.1,29.29,SE,135,0.0,0.0,55,0.00,,,0.00,VWS V14.01,2013-08-17 02:04:00,
2013-08-16 22:05:00,62.4,46.1,29.29,SE,135,0.0,0.0,55,0.00,,,0.00,VWS V14.01,2013-08-17 02:05:00,
2013-08-16 22:06:00,62.4,46.1,29.29,SE,135,0.0,0.0,55,0.00,,,0.00,VWS V14.01,2013-08-17 02:06:00,
2013-08-16 22:07:00,62.4,46.1,29.29,SE,135,0.0,0.0,55,0.00,,,0.00,VWS V14.01,2013-08-17 02:07:00,
2013-08-16 22:08:00,62.4,46.1,29.29,SE,135,0.0,0.0,55,0.00,,,0.00,VWS V14.01,2013-08-17 02:08:00,
2013-08-16 22:09:00,62.2,45.4,29.29,SE,135,0.0,0.0,54,0.00,,,0.00,VWS V14.01,2013-08-17 02:09:00,
2013-08-16 22:11:00,62.1,45.2,29.29,SE,135,0.0,0.0,54,0.00,,,0.00,VWS V14.01,2013-08-17 02:11:00,
2013-08-16 22:12:00,61.9,45.1,29.29,SE,135,0.0,0.0,54,0.00,,,0.00,VWS V14.01,2013-08-17 02:12:00,
2013-08-16 22:13:00,61.9,45.1,29.29,SE,135,0.0,0.0,54,0.00,,,0.00,VWS V14.01,2013-08-17 02:13:00,
2013-08-16 22:14:00,62.2,45.9,29.29,SE,135,0.0,0.0,55,0.00,,,0.00,VWS V14.01,2013-08-17 02:14:00,
2013-08-16 22:15:00,61.7,45.4,29.29,SE,135,0.0,0.0,55,0.00,,,0.00,VWS V14.01,2013-08-17 02:15:00,
2013-08-16 22:16:00,61.7,44.9,29.29,SE,135,0.0,0.0,54,0.00,,,0.00,VWS V14.01,2013-08-17 02:16:00,
2013-08-16 22:17:00,61.7,45.4,29.29,SE,135,0.0,0.0,55,0.00,,,0.00,VWS V14.01,2013-08-17 02:17:00,
2013-08-16 22:18:00,61.7,45.4,29.29,ESE,112,1.3,1.3,55,0.00,,,0.00,VWS V14.01,2013-08-17 02:18:00,
2013-08-16 22:19:00,61.7,45.4,29.29,SE,135,0.0,0.0,55,0.00,,,0.00,VWS V14.01,2013-08-17 02:19:00,
2013-08-16 22:20:00,61.5,45.2,29.29,ESE,112,1.1,1.6,55,0.00,,,0.00,VWS V14.01,2013-08-17 02:20:00,
2013-08-16 22:21:00,61.5,45.2,29.29,East,90,1.6,1.6,55,0.00,,,0.00,VWS V14.01,2013-08-17 02:21:00,
2013-08-16 22:22:00,61.5,45.2,29.29,East,90,1.1,2.0,55,0.00,,,0.00,VWS V14.01,2013-08-17 02:22:00,
2013-08-16 22:23:00,61.5,45.2,29.29,East,90,1.3,1.3,55,0.00,,,0.00,VWS V14.01,2013-08-17 02:23:00,
2013-08-16 22:24:00,61.7,45.4,29.29,ESE,112,1.3,1.3,55,0.00,,,0.00,VWS V14.01,2013-08-17 02:24:00,
2013-08-16 22:25:00,61.5,46.2,29.29,East,90,1.3,2.0,57,0.00,,,0.00,VWS V14.01,2013-08-17 02:25:00,
2013-08-16 22:26:00,61.5,46.2,29.29,East,90,1.1,1.3,57,0.00,,,0.00,VWS V14.01,2013-08-17 02:26:00,
2013-08-16 22:27:00,61.3,45.5,29.29,East,90,1.3,1.6,56,0.00,,,0.00,VWS V14.01,2013-08-17 02:27:00,
2013-08-16 22:28:00,61.3,45.5,29.29,East,90,2.5,2.5,56,0.00,,,0.00,VWS V14.01,2013-08-17 02:28:00,
2013-08-16 22:29:00,61.5,45.2,29.29,East,90,1.3,1.3,55,0.00,,,0.00,VWS V14.01,2013-08-17 02:29:00,
2013-08-16 22:30:00,61.5,46.2,29.29,East,90,2.0,2.0,57,0.00,,,0.00,VWS V14.01,2013-08-17 02:30:00,
2013-08-16 22:31:00,61.5,46.2,29.26,East,90,2.2,2.2,57,0.00,,,0.00,VWS V14.01,2013-08-17 02:31:00,
2013-08-16 22:32:00,61.5,46.2,29.26,East,90,1.6,2.5,57,0.00,,,0.00,VWS V14.01,2013-08-17 02:32:00,
2013-08-16 22:33:00,61.5,46.2,29.26,East,90,1.6,2.0,57,0.00,,,0.00,VWS V14.01,2013-08-17 02:33:00,
2013-08-16 22:34:00,61.3,46.0,29.29,East,90,2.0,2.5,57,0.00,,,0.00,VWS V14.01,2013-08-17 02:34:00,
2013-08-16 22:35:00,61.3,46.5,29.26,East,90,1.6,2.0,58,0.00,,,0.00,VWS V14.01,2013-08-17 02:35:00,
2013-08-16 22:36:00,61.3,46.0,29.26,East,90,1.6,1.6,57,0.00,,,0.00,VWS V14.01,2013-08-17 02:36:00,
2013-08-16 22:37:00,61.3,46.0,29.26,East,90,2.0,2.0,57,0.00,,,0.00,VWS V14.01,2013-08-17 02:37:00,
2013-08-16 22:38:00,61.2,45.8,29.26,ENE,68,2.5,2.5,57,0.00,,,0.00,VWS V14.01,2013-08-17 02:38:00,
2013-08-16 22:39:00,61.5,46.2,29.26,East,90,1.6,2.0,57,0.00,,,0.00,VWS V14.01,2013-08-17 02:39:00,
2013-08-16 22:40:00,61.2,46.3,29.26,East,90,2.2,2.9,58,0.00,,,0.00,VWS V14.01,2013-08-17 02:40:00,
2013-08-16 22:41:00,61.0,46.1,29.26,ENE,68,2.7,2.7,58,0.00,,,0.00,VWS V14.01,2013-08-17 02:41:00,
2013-08-16 22:42:00,61.0,46.1,29.26,East,90,2.7,2.7,58,0.00,,,0.00,VWS V14.01,2013-08-17 02:42:00,
2013-08-16 22:43:00,61.0,46.1,29.26,East,90,1.3,2.7,58,0.00,,,0.00,VWS V14.01,2013-08-17 02:43:00,
2013-08-16 22:44:00,61.2,45.8,29.26,ENE,68,2.2,2.5,57,0.00,,,0.00,VWS V14.01,2013-08-17 02:44:00,
2013-08-16 22:45:00,61.0,46.1,29.26,East,90,1.1,1.3,58,0.00,,,0.00,VWS V14.01,2013-08-17 02:45:00,
2013-08-16 22:46:00,61.0,46.1,29.29,ENE,68,2.0,2.0,58,0.00,,,0.00,VWS V14.01,2013-08-17 02:46:00,
2013-08-16 22:47:00,61.0,46.1,29.29,East,90,1.1,2.0,58,0.00,,,0.00,VWS V14.01,2013-08-17 02:47:00,
2013-08-16 22:48:00,61.0,46.1,29.29,East,90,0.9,1.3,58,0.00,,,0.00,VWS V14.01,2013-08-17 02:48:00,
2013-08-16 22:49:00,61.0,46.1,29.26,East,90,2.2,2.2,58,0.00,,,0.00,VWS V14.01,2013-08-17 02:49:00,
2013-08-16 22:50:00,60.8,46.0,29.29,ESE,112,0.0,1.6,58,0.00,,,0.00,VWS V14.01,2013-08-17 02:50:00,
2013-08-16 22:51:00,60.8,46.0,29.29,ESE,112,1.1,2.0,58,0.00,,,0.00,VWS V14.01,2013-08-17 02:51:00,
2013-08-16 22:52:00,60.8,46.0,29.29,ESE,112,1.3,2.0,58,0.00,,,0.00,VWS V14.01,2013-08-17 02:52:00,
2013-08-16 22:53:00,60.6,45.8,29.29,ESE,112,1.1,1.3,58,0.00,,,0.00,VWS V14.01,2013-08-17 02:53:00,
2013-08-16 22:54:00,61.0,46.1,29.29,East,90,1.6,1.6,58,0.00,,,0.00,VWS V14.01,2013-08-17 02:54:00,
2013-08-16 22:55:00,60.6,45.8,29.29,East,90,1.3,2.2,58,0.00,,,0.00,VWS V14.01,2013-08-17 02:55:00,
2013-08-16 22:56:00,60.6,45.8,29.29,ESE,112,1.6,2.9,58,0.00,,,0.00,VWS V14.01,2013-08-17 02:56:00,
2013-08-16 22:57:00,60.6,45.8,29.29,East,90,1.1,1.6,58,0.00,,,0.00,VWS V14.01,2013-08-17 02:57:00,
2013-08-16 22:58:00,60.6,45.8,29.29,East,90,1.6,2.0,58,0.00,,,0.00,VWS V14.01,2013-08-17 02:58:00,
2013-08-16 22:59:00,60.6,45.8,29.29,East,90,1.6,1.6,58,0.00,,,0.00,VWS V14.01,2013-08-17 02:59:00,
2013-08-16 23:00:00,60.6,45.8,29.29,East,90,0.0,1.3,58,0.00,,,0.00,VWS V14.01,2013-08-17 03:00:00,
2013-08-16 23:01:00,60.6,45.8,29.29,East,90,0.0,0.0,58,0.00,,,0.00,VWS V14.01,2013-08-17 03:01:00,
2013-08-16 23:02:00,60.6,45.8,29.29,East,90,1.3,1.3,58,0.00,,,0.00,VWS V14.01,2013-08-17 03:02:00,
2013-08-16 23:03:00,60.6,45.8,29.29,East,90,0.0,1.6,58,0.00,,,0.00,VWS V14.01,2013-08-17 03:03:00,
2013-08-16 23:04:00,60.6,45.8,29.29,East,90,1.3,1.6,58,0.00,,,0.00,VWS V14.01,2013-08-17 03:04:00,
2013-08-16 23:05:00,60.6,45.8,29.29,East,90,0.0,0.0,58,0.00,,,0.00,VWS V14.01,2013-08-17 03:05:00,
2013-08-16 23:06:00,60.4,45.2,29.29,East,90,0.0,0.0,57,0.00,,,0.00,VWS V14.01,2013-08-17 03:06:00,
2013-08-16 23:07:00,60.4,45.6,29.29,East,90,1.3,1.3,58,0.00,,,0.00,VWS V14.01,2013-08-17 03:07:00,
2013-08-16 23:08:00,60.4,45.2,29.29,East,90,1.6,1.6,57,0.00,,,0.00,VWS V14.01,2013-08-17 03:08:00,
2013-08-16 23:09:00,60.6,45.8,29.29,East,90,0.0,0.0,58,0.00,,,0.00,VWS V14.01,2013-08-17 03:09:00,
2013-08-16 23:10:00,60.4,45.2,29.29,ENE,68,2.9,2.9,57,0.00,,,0.00,VWS V14.01,2013-08-17 03:10:00,
2013-08-16 23:11:00,60.4,45.6,29.29,East,90,2.0,2.9,58,0.00,,,0.00,VWS V14.01,2013-08-17 03:11:00,
2013-08-16 23:12:00,60.4,45.6,29.29,East,90,1.6,2.2,58,0.00,,,0.00,VWS V14.01,2013-08-17 03:12:00,
2013-08-16 23:13:00,60.4,45.6,29.29,East,90,3.4,3.4,58,0.00,,,0.00,VWS V14.01,2013-08-17 03:13:00,
2013-08-16 23:14:00,60.4,45.2,29.29,East,90,2.0,2.0,57,0.00,,,0.00,VWS V14.01,2013-08-17 03:14:00,
2013-08-16 23:15:00,60.6,46.2,29.29,East,90,2.0,2.0,59,0.00,,,0.00,VWS V14.01,2013-08-17 03:15:00,
2013-08-16 23:16:00,60.8,46.4,29.29,East,90,1.6,2.2,59,0.00,,,0.00,VWS V14.01,2013-08-17 03:16:00,
2013-08-16 23:17:00,60.8,46.4,29.29,NE,45,2.5,2.5,59,0.00,,,0.00,VWS V14.01,2013-08-17 03:17:00,
2013-08-16 23:18:00,60.8,46.4,29.29,East,90,2.0,2.9,59,0.00,,,0.00,VWS V14.01,2013-08-17 03:18:00,
2013-08-16 23:19:00,60.6,46.2,29.29,East,90,2.0,3.4,59,0.00,,,0.00,VWS V14.01,2013-08-17 03:19:00,
2013-08-16 23:20:00,61.0,46.6,29.29,ENE,68,1.6,2.5,59,0.00,,,0.00,VWS V14.01,2013-08-17 03:20:00,
2013-08-16 23:21:00,61.0,46.6,29.29,ENE,68,3.1,4.3,59,0.00,,,0.00,VWS V14.01,2013-08-17 03:21:00,
2013-08-16 23:22:00,61.0,46.6,29.29,ENE,68,3.1,3.1,59,0.00,,,0.00,VWS V14.01,2013-08-17 03:22:00,
2013-08-16 23:23:00,61.2,46.7,29.29,East,90,2.0,3.1,59,0.00,,,0.00,VWS V14.01,2013-08-17 03:23:00,
2013-08-16 23:24:00,61.0,46.6,29.29,East,90,2.5,2.5,59,0.00,,,0.00,VWS V14.01,2013-08-17 03:24:00,
2013-08-16 23:25:00,61.2,46.3,29.29,East,90,2.2,2.5,58,0.00,,,0.00,VWS V14.01,2013-08-17 03:25:00,
2013-08-16 23:26:00,61.2,46.3,29.29,East,90,1.6,2.2,58,0.00,,,0.00,VWS V14.01,2013-08-17 03:26:00,
2013-08-16 23:27:00,61.2,46.3,29.29,East,90,2.0,2.2,58,0.00,,,0.00,VWS V14.01,2013-08-17 03:27:00,
2013-08-16 23:28:00,61.3,46.5,29.29,NE,45,1.3,2.0,58,0.00,,,0.00,VWS V14.01,2013-08-17 03:28:00,
2013-08-16 23:29:00,61.2,46.7,29.29,East,90,1.6,2.5,59,0.00,,,0.00,VWS V14.01,2013-08-17 03:29:00,
2013-08-16 23:30:00,61.3,46.5,29.29,ESE,112,1.6,1.6,58,0.00,,,0.00,VWS V14.01,2013-08-17 03:30:00,
2013-08-16 23:31:00,61.3,46.0,29.29,ESE,112,1.1,2.0,57,0.00,,,0.00,VWS V14.01,2013-08-17 03:31:00,
2013-08-16 23:32:00,61.3,46.0,29.29,ESE,112,2.5,2.5,57,0.00,,,0.00,VWS V14.01,2013-08-17 03:32:00,
2013-08-16 23:33:00,61.3,46.0,29.29,East,90,1.6,2.5,57,0.00,,,0.00,VWS V14.01,2013-08-17 03:33:00,
2013-08-16 23:34:00,61.3,46.5,29.29,NE,45,0.0,1.3,58,0.00,,,0.00,VWS V14.01,2013-08-17 03:34:00,
2013-08-16 23:35:00,61.3,46.0,29.29,East,90,2.0,2.9,57,0.00,,,0.00,VWS V14.01,2013-08-17 03:35:00,
2013-08-16 23:36:00,61.3,45.5,29.29,East,90,1.6,2.7,56,0.00,,,0.00,VWS V14.01,2013-08-17 03:36:00,
2013-08-16 23:37:00,61.5,45.7,29.29,ESE,112,1.3,2.9,56,0.00,,,0.00,VWS V14.01,2013-08-17 03:37:00,
2013-08-16 23:38:00,61.5,45.7,29.29,East,90,1.6,2.2,56,0.00,,,0.00,VWS V14.01,2013-08-17 03:38:00,
2013-08-16 23:39:00,61.3,46.0,29.29,ESE,112,2.0,2.5,57,0.00,,,0.00,VWS V14.01,2013-08-17 03:39:00,
2013-08-16 23:40:00,61.3,45.5,29.29,ESE,112,1.6,1.6,56,0.00,,,0.00,VWS V14.01,2013-08-17 03:40:00,
2013-08-16 23:41:00,61.3,45.5,29.29,ENE,68,2.5,2.5,56,0.00,,,0.00,VWS V14.01,2013-08-17 03:41:00,
2013-08-16 23:42:00,61.3,45.5,29.29,East,90,2.0,3.4,56,0.00,,,0.00,VWS V14.01,2013-08-17 03:42:00,
2013-08-16 23:43:00,61.3,45.5,29.29,ESE,112,2.5,2.5,56,0.00,,,0.00,VWS V14.01,2013-08-17 03:43:00,
2013-08-16 23:44:00,61.5,45.7,29.29,East,90,2.2,2.2,56,0.00,,,0.00,VWS V14.01,2013-08-17 03:44:00,
2013-08-16 23:45:00,61.2,44.9,29.29,SE,135,2.7,2.7,55,0.00,,,0.00,VWS V14.01,2013-08-17 03:45:00,
2013-08-16 23:46:00,61.3,45.0,29.29,SE,135,0.0,2.7,55,0.00,,,0.00,VWS V14.01,2013-08-17 03:46:00,
2013-08-16 23:47:00,61.3,45.0,29.29,SE,135,0.0,0.0,55,0.00,,,0.00,VWS V14.01,2013-08-17 03:47:00,
2013-08-16 23:48:00,61.3,45.0,29.29,SE,135,0.0,0.0,55,0.00,,,0.00,VWS V14.01,2013-08-17 03:48:00,
2013-08-16 23:49:00,61.3,45.5,29.29,East,90,2.0,2.5,56,0.00,,,0.00,VWS V14.01,2013-08-17 03:49:00,
2013-08-16 23:50:00,61.3,45.0,29.29,SE,135,0.0,0.0,55,0.00,,,0.00,VWS V14.01,2013-08-17 03:50:00,
2013-08-16 23:51:00,61.0,44.7,29.29,SE,135,0.0,0.0,55,0.00,,,0.00,VWS V14.01,2013-08-17 03:51:00,
2013-08-16 23:52:00,60.8,44.1,29.29,SE,135,0.0,0.0,54,0.00,,,0.00,VWS V14.01,2013-08-17 03:52:00,
2013-08-16 23:53:00,60.6,44.4,29.29,SE,135,0.0,0.0,55,0.00,,,0.00,VWS V14.01,2013-08-17 03:53:00,
2013-08-16 23:54:00,61.3,45.0,29.29,SE,135,0.0,0.0,55,0.00,,,0.00,VWS V14.01,2013-08-17 03:54:00,
2013-08-16 23:55:00,60.4,44.2,29.29,ESE,112,1.1,1.1,55,0.00,,,0.00,VWS V14.01,2013-08-17 03:55:00,
2013-08-16 23:56:00,60.4,44.2,29.29,ESE,112,0.0,1.1,55,0.00,,,0.00,VWS V14.01,2013-08-17 03:56:00,
2013-08-16 23:57:00,60.4,44.2,29.29,ESE,112,0.0,0.0,55,0.00,,,0.00,VWS V14.01,2013-08-17 03:57:00,
2013-08-16 23:58:00,60.3,43.6,29.29,ESE,112,0.0,0.0,54,0.00,,,0.00,VWS V14.01,2013-08-17 03:58:00,
2013-08-16 23:59:00,60.6,44.4,29.29,SE,135,0.0,0.0,55,0.00,,,0.00,VWS V14.01,2013-08-17 03:59:00,